<?xml version="1.0" encoding="UTF-8" standalone="no" ?>
<gpx xmlns="http://www.topografix.com/GPX/1/1" xmlns:xsi="http://www.w3.org/2001/XMLSchema-instance" xsi:schemaLocation="http://www.topografix.com/GPX/1/1 http://www.topografix.com/GPX/1/1/gpx.xsd" version="1.1" creator="VisuGPX - https://www.visugpx.com">
  <metadata>
    <name>Perigneux ( La Gare ) - Chateau d'Essalois 31km</name>
    <desc><![CDATA[tracé du 14 06 2021 ]]></desc>
  </metadata>
  <trk>
    <name><![CDATA[2021-06-14 08:08:27]]></name>
    <extensions>
      <line xmlns="http://www.topografix.com/GPX/gpx_style/0/2">
        <color>0000FF</color>
        <width>4</width>
      </line>
    </extensions>
    <trkseg>
      <trkpt lat="45.46008" lon="4.15227">
        <ele>587.5</ele>
        <time>2021-06-13T07:31:33Z</time>
      </trkpt>
      <trkpt lat="45.46014" lon="4.15228">
        <ele>590.39</ele>
        <time>2021-06-13T07:31:55Z</time>
      </trkpt>
      <trkpt lat="45.46012" lon="4.15224">
        <ele>594.23</ele>
        <time>2021-06-13T07:32:25Z</time>
      </trkpt>
      <trkpt lat="45.46015" lon="4.15226">
        <ele>596.64</ele>
        <time>2021-06-13T07:33:08Z</time>
      </trkpt>
      <trkpt lat="45.46018" lon="4.15228">
        <ele>595.67</ele>
        <time>2021-06-13T07:33:18Z</time>
      </trkpt>
      <trkpt lat="45.46022" lon="4.15229">
        <ele>595.19</ele>
        <time>2021-06-13T07:33:21Z</time>
      </trkpt>
      <trkpt lat="45.46024" lon="4.15229">
        <ele>595.19</ele>
        <time>2021-06-13T07:33:22Z</time>
      </trkpt>
      <trkpt lat="45.46026" lon="4.15229">
        <ele>595.19</ele>
        <time>2021-06-13T07:33:23Z</time>
      </trkpt>
      <trkpt lat="45.46027" lon="4.15229">
        <ele>595.19</ele>
        <time>2021-06-13T07:33:24Z</time>
      </trkpt>
      <trkpt lat="45.46038" lon="4.15234">
        <ele>596.15</ele>
        <time>2021-06-13T07:33:33Z</time>
      </trkpt>
      <trkpt lat="45.46038" lon="4.15236">
        <ele>596.15</ele>
        <time>2021-06-13T07:33:34Z</time>
      </trkpt>
      <trkpt lat="45.46041" lon="4.15273">
        <ele>594.23</ele>
        <time>2021-06-13T07:33:50Z</time>
      </trkpt>
      <trkpt lat="45.46043" lon="4.1528">
        <ele>594.23</ele>
        <time>2021-06-13T07:33:53Z</time>
      </trkpt>
      <trkpt lat="45.46043" lon="4.15282">
        <ele>594.23</ele>
        <time>2021-06-13T07:33:54Z</time>
      </trkpt>
      <trkpt lat="45.46043" lon="4.15284">
        <ele>594.23</ele>
        <time>2021-06-13T07:33:55Z</time>
      </trkpt>
      <trkpt lat="45.46043" lon="4.15286">
        <ele>594.23</ele>
        <time>2021-06-13T07:33:56Z</time>
      </trkpt>
      <trkpt lat="45.46043" lon="4.15288">
        <ele>594.23</ele>
        <time>2021-06-13T07:33:57Z</time>
      </trkpt>
      <trkpt lat="45.46043" lon="4.1529">
        <ele>594.23</ele>
        <time>2021-06-13T07:33:58Z</time>
      </trkpt>
      <trkpt lat="45.46043" lon="4.15292">
        <ele>594.23</ele>
        <time>2021-06-13T07:33:59Z</time>
      </trkpt>
      <trkpt lat="45.46044" lon="4.15295">
        <ele>594.23</ele>
        <time>2021-06-13T07:34:00Z</time>
      </trkpt>
      <trkpt lat="45.46045" lon="4.15297">
        <ele>593.75</ele>
        <time>2021-06-13T07:34:01Z</time>
      </trkpt>
      <trkpt lat="45.46045" lon="4.15299">
        <ele>593.75</ele>
        <time>2021-06-13T07:34:02Z</time>
      </trkpt>
      <trkpt lat="45.46055" lon="4.15324">
        <ele>595.19</ele>
        <time>2021-06-13T07:34:16Z</time>
      </trkpt>
      <trkpt lat="45.46069" lon="4.15333">
        <ele>596.64</ele>
        <time>2021-06-13T07:34:34Z</time>
      </trkpt>
      <trkpt lat="45.46067" lon="4.15337">
        <ele>597.12</ele>
        <time>2021-06-13T07:35:06Z</time>
      </trkpt>
      <trkpt lat="45.4607" lon="4.15343">
        <ele>595.19</ele>
        <time>2021-06-13T07:35:30Z</time>
      </trkpt>
      <trkpt lat="45.46101" lon="4.1536">
        <ele>592.31</ele>
        <time>2021-06-13T07:35:52Z</time>
      </trkpt>
      <trkpt lat="45.46124" lon="4.15376">
        <ele>594.23</ele>
        <time>2021-06-13T07:36:10Z</time>
      </trkpt>
      <trkpt lat="45.46146" lon="4.15396">
        <ele>596.15</ele>
        <time>2021-06-13T07:36:29Z</time>
      </trkpt>
      <trkpt lat="45.46167" lon="4.15425">
        <ele>598.08</ele>
        <time>2021-06-13T07:36:50Z</time>
      </trkpt>
      <trkpt lat="45.46183" lon="4.15453">
        <ele>598.08</ele>
        <time>2021-06-13T07:37:10Z</time>
      </trkpt>
      <trkpt lat="45.46191" lon="4.15464">
        <ele>598.08</ele>
        <time>2021-06-13T07:37:27Z</time>
      </trkpt>
      <trkpt lat="45.46194" lon="4.1547">
        <ele>597.6</ele>
        <time>2021-06-13T07:37:37Z</time>
      </trkpt>
      <trkpt lat="45.46202" lon="4.15498">
        <ele>597.12</ele>
        <time>2021-06-13T07:37:52Z</time>
      </trkpt>
      <trkpt lat="45.46218" lon="4.15523">
        <ele>594.23</ele>
        <time>2021-06-13T07:38:09Z</time>
      </trkpt>
      <trkpt lat="45.46236" lon="4.15537">
        <ele>593.27</ele>
        <time>2021-06-13T07:38:22Z</time>
      </trkpt>
      <trkpt lat="45.46262" lon="4.15555">
        <ele>594.23</ele>
        <time>2021-06-13T07:38:41Z</time>
      </trkpt>
      <trkpt lat="45.46285" lon="4.1557">
        <ele>593.27</ele>
        <time>2021-06-13T07:38:57Z</time>
      </trkpt>
      <trkpt lat="45.46314" lon="4.15585">
        <ele>592.79</ele>
        <time>2021-06-13T07:39:17Z</time>
      </trkpt>
      <trkpt lat="45.46339" lon="4.15606">
        <ele>591.35</ele>
        <time>2021-06-13T07:39:36Z</time>
      </trkpt>
      <trkpt lat="45.46369" lon="4.15622">
        <ele>590.87</ele>
        <time>2021-06-13T07:39:58Z</time>
      </trkpt>
      <trkpt lat="45.46398" lon="4.15637">
        <ele>589.91</ele>
        <time>2021-06-13T07:40:18Z</time>
      </trkpt>
      <trkpt lat="45.4643" lon="4.15651">
        <ele>589.43</ele>
        <time>2021-06-13T07:40:40Z</time>
      </trkpt>
      <trkpt lat="45.46455" lon="4.15655">
        <ele>590.39</ele>
        <time>2021-06-13T07:40:56Z</time>
      </trkpt>
      <trkpt lat="45.46483" lon="4.15661">
        <ele>589.43</ele>
        <time>2021-06-13T07:41:14Z</time>
      </trkpt>
      <trkpt lat="45.46509" lon="4.1567">
        <ele>587.02</ele>
        <time>2021-06-13T07:41:31Z</time>
      </trkpt>
      <trkpt lat="45.46536" lon="4.15691">
        <ele>584.62</ele>
        <time>2021-06-13T07:41:52Z</time>
      </trkpt>
      <trkpt lat="45.46557" lon="4.15709">
        <ele>583.18</ele>
        <time>2021-06-13T07:42:08Z</time>
      </trkpt>
      <trkpt lat="45.46576" lon="4.15729">
        <ele>580.77</ele>
        <time>2021-06-13T07:42:23Z</time>
      </trkpt>
      <trkpt lat="45.466" lon="4.15754">
        <ele>579.33</ele>
        <time>2021-06-13T07:42:42Z</time>
      </trkpt>
      <trkpt lat="45.46627" lon="4.15774">
        <ele>578.85</ele>
        <time>2021-06-13T07:43:02Z</time>
      </trkpt>
      <trkpt lat="45.46643" lon="4.15803">
        <ele>579.33</ele>
        <time>2021-06-13T07:43:20Z</time>
      </trkpt>
      <trkpt lat="45.46655" lon="4.15836">
        <ele>575.49</ele>
        <time>2021-06-13T07:43:37Z</time>
      </trkpt>
      <trkpt lat="45.46665" lon="4.1587">
        <ele>571.64</ele>
        <time>2021-06-13T07:43:53Z</time>
      </trkpt>
      <trkpt lat="45.46678" lon="4.15903">
        <ele>574.53</ele>
        <time>2021-06-13T07:44:09Z</time>
      </trkpt>
      <trkpt lat="45.46699" lon="4.1594">
        <ele>574.04</ele>
        <time>2021-06-13T07:44:30Z</time>
      </trkpt>
      <trkpt lat="45.46719" lon="4.15969">
        <ele>573.56</ele>
        <time>2021-06-13T07:44:49Z</time>
      </trkpt>
      <trkpt lat="45.46748" lon="4.15991">
        <ele>571.64</ele>
        <time>2021-06-13T07:45:09Z</time>
      </trkpt>
      <trkpt lat="45.46776" lon="4.16014">
        <ele>568.28</ele>
        <time>2021-06-13T07:45:29Z</time>
      </trkpt>
      <trkpt lat="45.46796" lon="4.16028">
        <ele>564.91</ele>
        <time>2021-06-13T07:45:44Z</time>
      </trkpt>
      <trkpt lat="45.46818" lon="4.16043">
        <ele>562.51</ele>
        <time>2021-06-13T07:46:01Z</time>
      </trkpt>
      <trkpt lat="45.46836" lon="4.1605">
        <ele>559.14</ele>
        <time>2021-06-13T07:46:16Z</time>
      </trkpt>
      <trkpt lat="45.46861" lon="4.16058">
        <ele>555.3</ele>
        <time>2021-06-13T07:46:32Z</time>
      </trkpt>
      <trkpt lat="45.46884" lon="4.16056">
        <ele>553.38</ele>
        <time>2021-06-13T07:46:48Z</time>
      </trkpt>
      <trkpt lat="45.46909" lon="4.1606">
        <ele>553.38</ele>
        <time>2021-06-13T07:47:02Z</time>
      </trkpt>
      <trkpt lat="45.46933" lon="4.16061">
        <ele>550.49</ele>
        <time>2021-06-13T07:47:18Z</time>
      </trkpt>
      <trkpt lat="45.46935" lon="4.16065">
        <ele>550.49</ele>
        <time>2021-06-13T07:47:24Z</time>
      </trkpt>
      <trkpt lat="45.46935" lon="4.16067">
        <ele>550.01</ele>
        <time>2021-06-13T07:47:25Z</time>
      </trkpt>
      <trkpt lat="45.46934" lon="4.16072">
        <ele>550.49</ele>
        <time>2021-06-13T07:47:28Z</time>
      </trkpt>
      <trkpt lat="45.46934" lon="4.16074">
        <ele>550.49</ele>
        <time>2021-06-13T07:47:29Z</time>
      </trkpt>
      <trkpt lat="45.46934" lon="4.16076">
        <ele>550.49</ele>
        <time>2021-06-13T07:47:30Z</time>
      </trkpt>
      <trkpt lat="45.46934" lon="4.16078">
        <ele>550.49</ele>
        <time>2021-06-13T07:47:31Z</time>
      </trkpt>
      <trkpt lat="45.46934" lon="4.1608">
        <ele>550.01</ele>
        <time>2021-06-13T07:47:32Z</time>
      </trkpt>
      <trkpt lat="45.46934" lon="4.1612">
        <ele>548.09</ele>
        <time>2021-06-13T07:47:50Z</time>
      </trkpt>
      <trkpt lat="45.46938" lon="4.16157">
        <ele>546.17</ele>
        <time>2021-06-13T07:48:07Z</time>
      </trkpt>
      <trkpt lat="45.46935" lon="4.16188">
        <ele>544.24</ele>
        <time>2021-06-13T07:48:22Z</time>
      </trkpt>
      <trkpt lat="45.46919" lon="4.162">
        <ele>544.24</ele>
        <time>2021-06-13T07:48:35Z</time>
      </trkpt>
      <trkpt lat="45.46893" lon="4.16222">
        <ele>548.09</ele>
        <time>2021-06-13T07:48:56Z</time>
      </trkpt>
      <trkpt lat="45.46869" lon="4.16244">
        <ele>551.93</ele>
        <time>2021-06-13T07:49:16Z</time>
      </trkpt>
      <trkpt lat="45.4687" lon="4.16246">
        <ele>551.93</ele>
        <time>2021-06-13T07:49:17Z</time>
      </trkpt>
      <trkpt lat="45.4687" lon="4.16249">
        <ele>552.41</ele>
        <time>2021-06-13T07:49:18Z</time>
      </trkpt>
      <trkpt lat="45.46884" lon="4.16284">
        <ele>553.38</ele>
        <time>2021-06-13T07:49:34Z</time>
      </trkpt>
      <trkpt lat="45.46892" lon="4.16316">
        <ele>552.41</ele>
        <time>2021-06-13T07:49:48Z</time>
      </trkpt>
      <trkpt lat="45.46902" lon="4.16348">
        <ele>550.97</ele>
        <time>2021-06-13T07:50:04Z</time>
      </trkpt>
      <trkpt lat="45.46917" lon="4.1638">
        <ele>550.97</ele>
        <time>2021-06-13T07:50:21Z</time>
      </trkpt>
      <trkpt lat="45.46935" lon="4.16415">
        <ele>549.05</ele>
        <time>2021-06-13T07:50:38Z</time>
      </trkpt>
      <trkpt lat="45.46951" lon="4.1645">
        <ele>546.17</ele>
        <time>2021-06-13T07:50:57Z</time>
      </trkpt>
      <trkpt lat="45.46956" lon="4.16485">
        <ele>546.65</ele>
        <time>2021-06-13T07:51:13Z</time>
      </trkpt>
      <trkpt lat="45.46963" lon="4.16528">
        <ele>549.53</ele>
        <time>2021-06-13T07:51:33Z</time>
      </trkpt>
      <trkpt lat="45.4697" lon="4.1657">
        <ele>548.09</ele>
        <time>2021-06-13T07:51:52Z</time>
      </trkpt>
      <trkpt lat="45.46979" lon="4.16599">
        <ele>544.24</ele>
        <time>2021-06-13T07:52:07Z</time>
      </trkpt>
      <trkpt lat="45.46982" lon="4.16607">
        <ele>543.76</ele>
        <time>2021-06-13T07:52:11Z</time>
      </trkpt>
      <trkpt lat="45.46982" lon="4.16609">
        <ele>543.28</ele>
        <time>2021-06-13T07:52:12Z</time>
      </trkpt>
      <trkpt lat="45.46982" lon="4.16612">
        <ele>543.28</ele>
        <time>2021-06-13T07:52:13Z</time>
      </trkpt>
      <trkpt lat="45.46982" lon="4.16615">
        <ele>542.8</ele>
        <time>2021-06-13T07:52:14Z</time>
      </trkpt>
      <trkpt lat="45.46982" lon="4.16617">
        <ele>542.8</ele>
        <time>2021-06-13T07:52:15Z</time>
      </trkpt>
      <trkpt lat="45.46996" lon="4.16635">
        <ele>542.32</ele>
        <time>2021-06-13T07:52:27Z</time>
      </trkpt>
      <trkpt lat="45.47008" lon="4.1666">
        <ele>537.99</ele>
        <time>2021-06-13T07:52:42Z</time>
      </trkpt>
      <trkpt lat="45.47023" lon="4.16691">
        <ele>534.63</ele>
        <time>2021-06-13T07:52:58Z</time>
      </trkpt>
      <trkpt lat="45.47032" lon="4.16723">
        <ele>532.71</ele>
        <time>2021-06-13T07:53:15Z</time>
      </trkpt>
      <trkpt lat="45.47048" lon="4.16726">
        <ele>531.27</ele>
        <time>2021-06-13T07:53:30Z</time>
      </trkpt>
      <trkpt lat="45.4707" lon="4.16722">
        <ele>533.67</ele>
        <time>2021-06-13T07:53:46Z</time>
      </trkpt>
      <trkpt lat="45.47097" lon="4.16729">
        <ele>530.79</ele>
        <time>2021-06-13T07:54:02Z</time>
      </trkpt>
      <trkpt lat="45.47106" lon="4.16763">
        <ele>527.9</ele>
        <time>2021-06-13T07:54:17Z</time>
      </trkpt>
      <trkpt lat="45.47112" lon="4.16778">
        <ele>526.46</ele>
        <time>2021-06-13T07:54:23Z</time>
      </trkpt>
      <trkpt lat="45.47119" lon="4.16819">
        <ele>525.02</ele>
        <time>2021-06-13T07:54:42Z</time>
      </trkpt>
      <trkpt lat="45.47119" lon="4.16829">
        <ele>524.54</ele>
        <time>2021-06-13T07:54:46Z</time>
      </trkpt>
      <trkpt lat="45.47119" lon="4.16832">
        <ele>524.06</ele>
        <time>2021-06-13T07:54:47Z</time>
      </trkpt>
      <trkpt lat="45.47118" lon="4.16835">
        <ele>523.58</ele>
        <time>2021-06-13T07:54:48Z</time>
      </trkpt>
      <trkpt lat="45.47104" lon="4.16861">
        <ele>522.13</ele>
        <time>2021-06-13T07:55:04Z</time>
      </trkpt>
      <trkpt lat="45.47092" lon="4.16898">
        <ele>520.21</ele>
        <time>2021-06-13T07:55:20Z</time>
      </trkpt>
      <trkpt lat="45.47077" lon="4.16929">
        <ele>518.77</ele>
        <time>2021-06-13T07:55:38Z</time>
      </trkpt>
      <trkpt lat="45.47065" lon="4.16963">
        <ele>516.37</ele>
        <time>2021-06-13T07:55:54Z</time>
      </trkpt>
      <trkpt lat="45.47067" lon="4.16994">
        <ele>515.4</ele>
        <time>2021-06-13T07:56:10Z</time>
      </trkpt>
      <trkpt lat="45.47067" lon="4.16997">
        <ele>515.4</ele>
        <time>2021-06-13T07:56:11Z</time>
      </trkpt>
      <trkpt lat="45.47067" lon="4.16999">
        <ele>515.4</ele>
        <time>2021-06-13T07:56:12Z</time>
      </trkpt>
      <trkpt lat="45.47061" lon="4.17033">
        <ele>514.92</ele>
        <time>2021-06-13T07:56:28Z</time>
      </trkpt>
      <trkpt lat="45.47059" lon="4.17043">
        <ele>514.92</ele>
        <time>2021-06-13T07:56:32Z</time>
      </trkpt>
      <trkpt lat="45.47057" lon="4.17079">
        <ele>511.56</ele>
        <time>2021-06-13T07:56:48Z</time>
      </trkpt>
      <trkpt lat="45.47058" lon="4.17081">
        <ele>511.56</ele>
        <time>2021-06-13T07:56:49Z</time>
      </trkpt>
      <trkpt lat="45.47052" lon="4.17123">
        <ele>507.23</ele>
        <time>2021-06-13T07:57:08Z</time>
      </trkpt>
      <trkpt lat="45.47048" lon="4.17157">
        <ele>501.95</ele>
        <time>2021-06-13T07:57:25Z</time>
      </trkpt>
      <trkpt lat="45.47041" lon="4.17194">
        <ele>499.54</ele>
        <time>2021-06-13T07:57:42Z</time>
      </trkpt>
      <trkpt lat="45.47022" lon="4.17223">
        <ele>493.77</ele>
        <time>2021-06-13T07:57:58Z</time>
      </trkpt>
      <trkpt lat="45.47007" lon="4.17252">
        <ele>492.81</ele>
        <time>2021-06-13T07:58:14Z</time>
      </trkpt>
      <trkpt lat="45.47" lon="4.17281">
        <ele>501.46</ele>
        <time>2021-06-13T07:58:29Z</time>
      </trkpt>
      <trkpt lat="45.47" lon="4.17321">
        <ele>503.87</ele>
        <time>2021-06-13T07:58:45Z</time>
      </trkpt>
      <trkpt lat="45.47001" lon="4.1736">
        <ele>504.83</ele>
        <time>2021-06-13T07:59:03Z</time>
      </trkpt>
      <trkpt lat="45.47007" lon="4.17392">
        <ele>503.39</ele>
        <time>2021-06-13T07:59:18Z</time>
      </trkpt>
      <trkpt lat="45.47012" lon="4.17412">
        <ele>502.43</ele>
        <time>2021-06-13T07:59:28Z</time>
      </trkpt>
      <trkpt lat="45.47013" lon="4.17414">
        <ele>502.43</ele>
        <time>2021-06-13T07:59:29Z</time>
      </trkpt>
      <trkpt lat="45.47013" lon="4.17416">
        <ele>502.43</ele>
        <time>2021-06-13T07:59:30Z</time>
      </trkpt>
      <trkpt lat="45.47014" lon="4.17418">
        <ele>502.43</ele>
        <time>2021-06-13T07:59:31Z</time>
      </trkpt>
      <trkpt lat="45.47014" lon="4.1742">
        <ele>501.95</ele>
        <time>2021-06-13T07:59:32Z</time>
      </trkpt>
      <trkpt lat="45.47014" lon="4.17423">
        <ele>501.95</ele>
        <time>2021-06-13T07:59:33Z</time>
      </trkpt>
      <trkpt lat="45.47015" lon="4.17425">
        <ele>501.95</ele>
        <time>2021-06-13T07:59:34Z</time>
      </trkpt>
      <trkpt lat="45.47014" lon="4.17427">
        <ele>501.46</ele>
        <time>2021-06-13T07:59:35Z</time>
      </trkpt>
      <trkpt lat="45.47014" lon="4.17429">
        <ele>501.46</ele>
        <time>2021-06-13T07:59:36Z</time>
      </trkpt>
      <trkpt lat="45.47015" lon="4.17431">
        <ele>501.46</ele>
        <time>2021-06-13T07:59:37Z</time>
      </trkpt>
      <trkpt lat="45.47015" lon="4.17433">
        <ele>501.46</ele>
        <time>2021-06-13T07:59:38Z</time>
      </trkpt>
      <trkpt lat="45.47016" lon="4.17435">
        <ele>501.46</ele>
        <time>2021-06-13T07:59:39Z</time>
      </trkpt>
      <trkpt lat="45.47016" lon="4.17437">
        <ele>501.46</ele>
        <time>2021-06-13T07:59:40Z</time>
      </trkpt>
      <trkpt lat="45.47014" lon="4.17472">
        <ele>499.06</ele>
        <time>2021-06-13T07:59:55Z</time>
      </trkpt>
      <trkpt lat="45.47005" lon="4.17508">
        <ele>498.1</ele>
        <time>2021-06-13T08:00:12Z</time>
      </trkpt>
      <trkpt lat="45.46999" lon="4.17543">
        <ele>500.5</ele>
        <time>2021-06-13T08:00:28Z</time>
      </trkpt>
      <trkpt lat="45.47003" lon="4.17587">
        <ele>501.46</ele>
        <time>2021-06-13T08:00:46Z</time>
      </trkpt>
      <trkpt lat="45.4701" lon="4.17626">
        <ele>502.43</ele>
        <time>2021-06-13T08:01:05Z</time>
      </trkpt>
      <trkpt lat="45.47007" lon="4.17662">
        <ele>501.46</ele>
        <time>2021-06-13T08:01:21Z</time>
      </trkpt>
      <trkpt lat="45.47006" lon="4.17695">
        <ele>497.14</ele>
        <time>2021-06-13T08:01:35Z</time>
      </trkpt>
      <trkpt lat="45.47005" lon="4.17698">
        <ele>497.14</ele>
        <time>2021-06-13T08:01:36Z</time>
      </trkpt>
      <trkpt lat="45.47005" lon="4.177">
        <ele>496.66</ele>
        <time>2021-06-13T08:01:37Z</time>
      </trkpt>
      <trkpt lat="45.47004" lon="4.17702">
        <ele>496.66</ele>
        <time>2021-06-13T08:01:38Z</time>
      </trkpt>
      <trkpt lat="45.47003" lon="4.17703">
        <ele>496.66</ele>
        <time>2021-06-13T08:01:39Z</time>
      </trkpt>
      <trkpt lat="45.47002" lon="4.17704">
        <ele>496.66</ele>
        <time>2021-06-13T08:01:40Z</time>
      </trkpt>
      <trkpt lat="45.47001" lon="4.17704">
        <ele>496.18</ele>
        <time>2021-06-13T08:01:41Z</time>
      </trkpt>
      <trkpt lat="45.46979" lon="4.17721">
        <ele>494.74</ele>
        <time>2021-06-13T08:01:58Z</time>
      </trkpt>
      <trkpt lat="45.46978" lon="4.17723">
        <ele>494.26</ele>
        <time>2021-06-13T08:01:59Z</time>
      </trkpt>
      <trkpt lat="45.46978" lon="4.17725">
        <ele>494.74</ele>
        <time>2021-06-13T08:02:00Z</time>
      </trkpt>
      <trkpt lat="45.46979" lon="4.17727">
        <ele>494.26</ele>
        <time>2021-06-13T08:02:01Z</time>
      </trkpt>
      <trkpt lat="45.4698" lon="4.1773">
        <ele>494.26</ele>
        <time>2021-06-13T08:02:02Z</time>
      </trkpt>
      <trkpt lat="45.46981" lon="4.17732">
        <ele>494.26</ele>
        <time>2021-06-13T08:02:03Z</time>
      </trkpt>
      <trkpt lat="45.46982" lon="4.17734">
        <ele>494.26</ele>
        <time>2021-06-13T08:02:04Z</time>
      </trkpt>
      <trkpt lat="45.46983" lon="4.17736">
        <ele>494.26</ele>
        <time>2021-06-13T08:02:05Z</time>
      </trkpt>
      <trkpt lat="45.46997" lon="4.17772">
        <ele>493.77</ele>
        <time>2021-06-13T08:02:23Z</time>
      </trkpt>
      <trkpt lat="45.47023" lon="4.17821">
        <ele>498.1</ele>
        <time>2021-06-13T08:02:51Z</time>
      </trkpt>
      <trkpt lat="45.47046" lon="4.17861">
        <ele>499.06</ele>
        <time>2021-06-13T08:03:14Z</time>
      </trkpt>
      <trkpt lat="45.47069" lon="4.17901">
        <ele>499.54</ele>
        <time>2021-06-13T08:03:33Z</time>
      </trkpt>
      <trkpt lat="45.47082" lon="4.17933">
        <ele>499.06</ele>
        <time>2021-06-13T08:03:49Z</time>
      </trkpt>
      <trkpt lat="45.47096" lon="4.17964">
        <ele>497.62</ele>
        <time>2021-06-13T08:04:06Z</time>
      </trkpt>
      <trkpt lat="45.47114" lon="4.18003">
        <ele>497.14</ele>
        <time>2021-06-13T08:04:25Z</time>
      </trkpt>
      <trkpt lat="45.47137" lon="4.18009">
        <ele>496.18</ele>
        <time>2021-06-13T08:04:42Z</time>
      </trkpt>
      <trkpt lat="45.47152" lon="4.18009">
        <ele>493.29</ele>
        <time>2021-06-13T08:04:55Z</time>
      </trkpt>
      <trkpt lat="45.47153" lon="4.18011">
        <ele>493.29</ele>
        <time>2021-06-13T08:04:56Z</time>
      </trkpt>
      <trkpt lat="45.47154" lon="4.18013">
        <ele>492.81</ele>
        <time>2021-06-13T08:04:57Z</time>
      </trkpt>
      <trkpt lat="45.47155" lon="4.18015">
        <ele>492.81</ele>
        <time>2021-06-13T08:04:58Z</time>
      </trkpt>
      <trkpt lat="45.47156" lon="4.18017">
        <ele>492.81</ele>
        <time>2021-06-13T08:04:59Z</time>
      </trkpt>
      <trkpt lat="45.47173" lon="4.18055">
        <ele>493.29</ele>
        <time>2021-06-13T08:05:19Z</time>
      </trkpt>
      <trkpt lat="45.47192" lon="4.18087">
        <ele>495.22</ele>
        <time>2021-06-13T08:05:37Z</time>
      </trkpt>
      <trkpt lat="45.47205" lon="4.18129">
        <ele>495.7</ele>
        <time>2021-06-13T08:05:57Z</time>
      </trkpt>
      <trkpt lat="45.47197" lon="4.18165">
        <ele>497.62</ele>
        <time>2021-06-13T08:06:15Z</time>
      </trkpt>
      <trkpt lat="45.4718" lon="4.18198">
        <ele>498.1</ele>
        <time>2021-06-13T08:06:31Z</time>
      </trkpt>
      <trkpt lat="45.4717" lon="4.18246">
        <ele>499.54</ele>
        <time>2021-06-13T08:06:53Z</time>
      </trkpt>
      <trkpt lat="45.47156" lon="4.18281">
        <ele>500.02</ele>
        <time>2021-06-13T08:07:11Z</time>
      </trkpt>
      <trkpt lat="45.47141" lon="4.18323">
        <ele>501.95</ele>
        <time>2021-06-13T08:07:34Z</time>
      </trkpt>
      <trkpt lat="45.47129" lon="4.18364">
        <ele>500.5</ele>
        <time>2021-06-13T08:07:53Z</time>
      </trkpt>
      <trkpt lat="45.47119" lon="4.18394">
        <ele>498.1</ele>
        <time>2021-06-13T08:08:08Z</time>
      </trkpt>
      <trkpt lat="45.47104" lon="4.18413">
        <ele>493.29</ele>
        <time>2021-06-13T08:08:23Z</time>
      </trkpt>
      <trkpt lat="45.47082" lon="4.18417">
        <ele>488.01</ele>
        <time>2021-06-13T08:08:38Z</time>
      </trkpt>
      <trkpt lat="45.47056" lon="4.18409">
        <ele>485.12</ele>
        <time>2021-06-13T08:08:55Z</time>
      </trkpt>
      <trkpt lat="45.4703" lon="4.18396">
        <ele>483.2</ele>
        <time>2021-06-13T08:09:13Z</time>
      </trkpt>
      <trkpt lat="45.47009" lon="4.18385">
        <ele>479.84</ele>
        <time>2021-06-13T08:09:31Z</time>
      </trkpt>
      <trkpt lat="45.46995" lon="4.18385">
        <ele>478.87</ele>
        <time>2021-06-13T08:09:44Z</time>
      </trkpt>
      <trkpt lat="45.46968" lon="4.18386">
        <ele>474.55</ele>
        <time>2021-06-13T08:10:02Z</time>
      </trkpt>
      <trkpt lat="45.46944" lon="4.18387">
        <ele>472.14</ele>
        <time>2021-06-13T08:10:17Z</time>
      </trkpt>
      <trkpt lat="45.46917" lon="4.18389">
        <ele>469.26</ele>
        <time>2021-06-13T08:10:34Z</time>
      </trkpt>
      <trkpt lat="45.46894" lon="4.1839">
        <ele>464.93</ele>
        <time>2021-06-13T08:10:48Z</time>
      </trkpt>
      <trkpt lat="45.4687" lon="4.18395">
        <ele>462.53</ele>
        <time>2021-06-13T08:11:03Z</time>
      </trkpt>
      <trkpt lat="45.46845" lon="4.18403">
        <ele>461.09</ele>
        <time>2021-06-13T08:11:20Z</time>
      </trkpt>
      <trkpt lat="45.46821" lon="4.18409">
        <ele>459.17</ele>
        <time>2021-06-13T08:11:34Z</time>
      </trkpt>
      <trkpt lat="45.46802" lon="4.18417">
        <ele>458.21</ele>
        <time>2021-06-13T08:11:49Z</time>
      </trkpt>
      <trkpt lat="45.46815" lon="4.18434">
        <ele>456.76</ele>
        <time>2021-06-13T08:12:06Z</time>
      </trkpt>
      <trkpt lat="45.46837" lon="4.18449">
        <ele>456.76</ele>
        <time>2021-06-13T08:12:23Z</time>
      </trkpt>
      <trkpt lat="45.46857" lon="4.18461">
        <ele>457.72</ele>
        <time>2021-06-13T08:12:37Z</time>
      </trkpt>
      <trkpt lat="45.46879" lon="4.18474">
        <ele>457.72</ele>
        <time>2021-06-13T08:12:53Z</time>
      </trkpt>
      <trkpt lat="45.46903" lon="4.18489">
        <ele>456.28</ele>
        <time>2021-06-13T08:13:10Z</time>
      </trkpt>
      <trkpt lat="45.46925" lon="4.18501">
        <ele>453.88</ele>
        <time>2021-06-13T08:13:27Z</time>
      </trkpt>
      <trkpt lat="45.46945" lon="4.18512">
        <ele>451.48</ele>
        <time>2021-06-13T08:13:42Z</time>
      </trkpt>
      <trkpt lat="45.46963" lon="4.18525">
        <ele>450.03</ele>
        <time>2021-06-13T08:13:59Z</time>
      </trkpt>
      <trkpt lat="45.46978" lon="4.18536">
        <ele>448.59</ele>
        <time>2021-06-13T08:14:13Z</time>
      </trkpt>
      <trkpt lat="45.46984" lon="4.18537">
        <ele>448.11</ele>
        <time>2021-06-13T08:14:17Z</time>
      </trkpt>
      <trkpt lat="45.47008" lon="4.18551">
        <ele>444.27</ele>
        <time>2021-06-13T08:14:35Z</time>
      </trkpt>
      <trkpt lat="45.47032" lon="4.18562">
        <ele>440.42</ele>
        <time>2021-06-13T08:14:54Z</time>
      </trkpt>
      <trkpt lat="45.47062" lon="4.18575">
        <ele>437.54</ele>
        <time>2021-06-13T08:15:13Z</time>
      </trkpt>
      <trkpt lat="45.4707" lon="4.18579">
        <ele>434.17</ele>
        <time>2021-06-13T08:15:27Z</time>
      </trkpt>
      <trkpt lat="45.47089" lon="4.18592">
        <ele>431.29</ele>
        <time>2021-06-13T08:15:43Z</time>
      </trkpt>
      <trkpt lat="45.47115" lon="4.18606">
        <ele>429.37</ele>
        <time>2021-06-13T08:16:00Z</time>
      </trkpt>
      <trkpt lat="45.47139" lon="4.18625">
        <ele>426.96</ele>
        <time>2021-06-13T08:16:16Z</time>
      </trkpt>
      <trkpt lat="45.47139" lon="4.18629">
        <ele>426.96</ele>
        <time>2021-06-13T08:16:17Z</time>
      </trkpt>
      <trkpt lat="45.47124" lon="4.18664">
        <ele>427.92</ele>
        <time>2021-06-13T08:16:31Z</time>
      </trkpt>
      <trkpt lat="45.47109" lon="4.18699">
        <ele>429.37</ele>
        <time>2021-06-13T08:16:48Z</time>
      </trkpt>
      <trkpt lat="45.47118" lon="4.18733">
        <ele>428.89</ele>
        <time>2021-06-13T08:17:03Z</time>
      </trkpt>
      <trkpt lat="45.47128" lon="4.18765">
        <ele>428.4</ele>
        <time>2021-06-13T08:17:19Z</time>
      </trkpt>
      <trkpt lat="45.47131" lon="4.1881">
        <ele>429.37</ele>
        <time>2021-06-13T08:17:38Z</time>
      </trkpt>
      <trkpt lat="45.4714" lon="4.18837">
        <ele>427.92</ele>
        <time>2021-06-13T08:17:54Z</time>
      </trkpt>
      <trkpt lat="45.47146" lon="4.18874">
        <ele>426.48</ele>
        <time>2021-06-13T08:18:12Z</time>
      </trkpt>
      <trkpt lat="45.47124" lon="4.18899">
        <ele>430.33</ele>
        <time>2021-06-13T08:18:32Z</time>
      </trkpt>
      <trkpt lat="45.47121" lon="4.18908">
        <ele>430.33</ele>
        <time>2021-06-13T08:18:40Z</time>
      </trkpt>
      <trkpt lat="45.47124" lon="4.18931">
        <ele>428.4</ele>
        <time>2021-06-13T08:19:02Z</time>
      </trkpt>
      <trkpt lat="45.47145" lon="4.18971">
        <ele>438.02</ele>
        <time>2021-06-13T08:19:23Z</time>
      </trkpt>
      <trkpt lat="45.47153" lon="4.19007">
        <ele>444.75</ele>
        <time>2021-06-13T08:19:44Z</time>
      </trkpt>
      <trkpt lat="45.47164" lon="4.19027">
        <ele>444.75</ele>
        <time>2021-06-13T08:19:54Z</time>
      </trkpt>
      <trkpt lat="45.47186" lon="4.19061">
        <ele>444.27</ele>
        <time>2021-06-13T08:20:14Z</time>
      </trkpt>
      <trkpt lat="45.47194" lon="4.19086">
        <ele>445.23</ele>
        <time>2021-06-13T08:20:29Z</time>
      </trkpt>
      <trkpt lat="45.47208" lon="4.19128">
        <ele>449.55</ele>
        <time>2021-06-13T08:20:48Z</time>
      </trkpt>
      <trkpt lat="45.47216" lon="4.19153">
        <ele>451</ele>
        <time>2021-06-13T08:21:02Z</time>
      </trkpt>
      <trkpt lat="45.47219" lon="4.19188">
        <ele>451.96</ele>
        <time>2021-06-13T08:21:20Z</time>
      </trkpt>
      <trkpt lat="45.47224" lon="4.19223">
        <ele>451.96</ele>
        <time>2021-06-13T08:21:39Z</time>
      </trkpt>
      <trkpt lat="45.47229" lon="4.19251">
        <ele>452.44</ele>
        <time>2021-06-13T08:21:55Z</time>
      </trkpt>
      <trkpt lat="45.47237" lon="4.19282">
        <ele>455.8</ele>
        <time>2021-06-13T08:22:13Z</time>
      </trkpt>
      <trkpt lat="45.47244" lon="4.19319">
        <ele>462.53</ele>
        <time>2021-06-13T08:22:32Z</time>
      </trkpt>
      <trkpt lat="45.4724" lon="4.19336">
        <ele>465.42</ele>
        <time>2021-06-13T08:22:41Z</time>
      </trkpt>
      <trkpt lat="45.47244" lon="4.19364">
        <ele>470.22</ele>
        <time>2021-06-13T08:22:57Z</time>
      </trkpt>
      <trkpt lat="45.47245" lon="4.19366">
        <ele>470.22</ele>
        <time>2021-06-13T08:22:58Z</time>
      </trkpt>
      <trkpt lat="45.47245" lon="4.19368">
        <ele>470.7</ele>
        <time>2021-06-13T08:22:59Z</time>
      </trkpt>
      <trkpt lat="45.4724" lon="4.19402">
        <ele>473.11</ele>
        <time>2021-06-13T08:23:18Z</time>
      </trkpt>
      <trkpt lat="45.47217" lon="4.19427">
        <ele>470.22</ele>
        <time>2021-06-13T08:23:34Z</time>
      </trkpt>
      <trkpt lat="45.47214" lon="4.1943">
        <ele>469.74</ele>
        <time>2021-06-13T08:23:36Z</time>
      </trkpt>
      <trkpt lat="45.47186" lon="4.19442">
        <ele>472.14</ele>
        <time>2021-06-13T08:23:55Z</time>
      </trkpt>
      <trkpt lat="45.4716" lon="4.19455">
        <ele>474.07</ele>
        <time>2021-06-13T08:24:14Z</time>
      </trkpt>
      <trkpt lat="45.47134" lon="4.1947">
        <ele>478.87</ele>
        <time>2021-06-13T08:24:32Z</time>
      </trkpt>
      <trkpt lat="45.47128" lon="4.1947">
        <ele>480.32</ele>
        <time>2021-06-13T08:24:38Z</time>
      </trkpt>
      <trkpt lat="45.47126" lon="4.1947">
        <ele>480.32</ele>
        <time>2021-06-13T08:24:39Z</time>
      </trkpt>
      <trkpt lat="45.47125" lon="4.1947">
        <ele>480.32</ele>
        <time>2021-06-13T08:24:40Z</time>
      </trkpt>
      <trkpt lat="45.47095" lon="4.19473">
        <ele>483.68</ele>
        <time>2021-06-13T08:25:00Z</time>
      </trkpt>
      <trkpt lat="45.47065" lon="4.19477">
        <ele>486.56</ele>
        <time>2021-06-13T08:25:19Z</time>
      </trkpt>
      <trkpt lat="45.47035" lon="4.19483">
        <ele>489.45</ele>
        <time>2021-06-13T08:25:38Z</time>
      </trkpt>
      <trkpt lat="45.47" lon="4.1949">
        <ele>492.33</ele>
        <time>2021-06-13T08:26:01Z</time>
      </trkpt>
      <trkpt lat="45.46988" lon="4.19524">
        <ele>494.74</ele>
        <time>2021-06-13T08:26:20Z</time>
      </trkpt>
      <trkpt lat="45.46969" lon="4.19546">
        <ele>497.62</ele>
        <time>2021-06-13T08:26:36Z</time>
      </trkpt>
      <trkpt lat="45.46946" lon="4.19566">
        <ele>500.02</ele>
        <time>2021-06-13T08:26:55Z</time>
      </trkpt>
      <trkpt lat="45.46929" lon="4.19589">
        <ele>503.39</ele>
        <time>2021-06-13T08:27:11Z</time>
      </trkpt>
      <trkpt lat="45.46903" lon="4.19608">
        <ele>506.27</ele>
        <time>2021-06-13T08:27:30Z</time>
      </trkpt>
      <trkpt lat="45.46877" lon="4.19607">
        <ele>511.08</ele>
        <time>2021-06-13T08:27:48Z</time>
      </trkpt>
      <trkpt lat="45.46849" lon="4.19613">
        <ele>513.96</ele>
        <time>2021-06-13T08:28:08Z</time>
      </trkpt>
      <trkpt lat="45.46819" lon="4.19612">
        <ele>513.96</ele>
        <time>2021-06-13T08:28:26Z</time>
      </trkpt>
      <trkpt lat="45.46786" lon="4.19615">
        <ele>514.92</ele>
        <time>2021-06-13T08:28:47Z</time>
      </trkpt>
      <trkpt lat="45.46767" lon="4.19637">
        <ele>517.81</ele>
        <time>2021-06-13T08:29:02Z</time>
      </trkpt>
      <trkpt lat="45.46747" lon="4.19663">
        <ele>520.21</ele>
        <time>2021-06-13T08:29:19Z</time>
      </trkpt>
      <trkpt lat="45.46723" lon="4.19687">
        <ele>523.09</ele>
        <time>2021-06-13T08:29:36Z</time>
      </trkpt>
      <trkpt lat="45.46713" lon="4.19716">
        <ele>525.98</ele>
        <time>2021-06-13T08:29:53Z</time>
      </trkpt>
      <trkpt lat="45.46705" lon="4.19766">
        <ele>526.46</ele>
        <time>2021-06-13T08:30:15Z</time>
      </trkpt>
      <trkpt lat="45.46692" lon="4.19814">
        <ele>521.65</ele>
        <time>2021-06-13T08:30:39Z</time>
      </trkpt>
      <trkpt lat="45.46679" lon="4.19852">
        <ele>520.21</ele>
        <time>2021-06-13T08:30:59Z</time>
      </trkpt>
      <trkpt lat="45.46666" lon="4.19893">
        <ele>519.73</ele>
        <time>2021-06-13T08:31:18Z</time>
      </trkpt>
      <trkpt lat="45.46648" lon="4.19932">
        <ele>519.73</ele>
        <time>2021-06-13T08:31:37Z</time>
      </trkpt>
      <trkpt lat="45.46653" lon="4.19969">
        <ele>522.61</ele>
        <time>2021-06-13T08:31:54Z</time>
      </trkpt>
      <trkpt lat="45.46642" lon="4.20015">
        <ele>522.13</ele>
        <time>2021-06-13T08:32:15Z</time>
      </trkpt>
      <trkpt lat="45.46617" lon="4.20023">
        <ele>521.65</ele>
        <time>2021-06-13T08:32:32Z</time>
      </trkpt>
      <trkpt lat="45.46583" lon="4.20026">
        <ele>523.58</ele>
        <time>2021-06-13T08:32:52Z</time>
      </trkpt>
      <trkpt lat="45.46557" lon="4.2004">
        <ele>526.46</ele>
        <time>2021-06-13T08:33:11Z</time>
      </trkpt>
      <trkpt lat="45.46527" lon="4.2005">
        <ele>530.79</ele>
        <time>2021-06-13T08:33:32Z</time>
      </trkpt>
      <trkpt lat="45.465" lon="4.20057">
        <ele>534.63</ele>
        <time>2021-06-13T08:33:50Z</time>
      </trkpt>
      <trkpt lat="45.46471" lon="4.20056">
        <ele>535.11</ele>
        <time>2021-06-13T08:34:09Z</time>
      </trkpt>
      <trkpt lat="45.46449" lon="4.20038">
        <ele>536.07</ele>
        <time>2021-06-13T08:34:25Z</time>
      </trkpt>
      <trkpt lat="45.46426" lon="4.20018">
        <ele>537.03</ele>
        <time>2021-06-13T08:34:43Z</time>
      </trkpt>
      <trkpt lat="45.46398" lon="4.20013">
        <ele>537.99</ele>
        <time>2021-06-13T08:35:00Z</time>
      </trkpt>
      <trkpt lat="45.46373" lon="4.20008">
        <ele>539.92</ele>
        <time>2021-06-13T08:35:15Z</time>
      </trkpt>
      <trkpt lat="45.46347" lon="4.20001">
        <ele>544.24</ele>
        <time>2021-06-13T08:35:32Z</time>
      </trkpt>
      <trkpt lat="45.46326" lon="4.1999">
        <ele>547.13</ele>
        <time>2021-06-13T08:35:47Z</time>
      </trkpt>
      <trkpt lat="45.46305" lon="4.20013">
        <ele>548.09</ele>
        <time>2021-06-13T08:36:05Z</time>
      </trkpt>
      <trkpt lat="45.46281" lon="4.20043">
        <ele>549.53</ele>
        <time>2021-06-13T08:36:25Z</time>
      </trkpt>
      <trkpt lat="45.4626" lon="4.20065">
        <ele>551.93</ele>
        <time>2021-06-13T08:36:43Z</time>
      </trkpt>
      <trkpt lat="45.46238" lon="4.20081">
        <ele>553.86</ele>
        <time>2021-06-13T08:37:00Z</time>
      </trkpt>
      <trkpt lat="45.4621" lon="4.20094">
        <ele>555.3</ele>
        <time>2021-06-13T08:37:19Z</time>
      </trkpt>
      <trkpt lat="45.46175" lon="4.20109">
        <ele>556.26</ele>
        <time>2021-06-13T08:37:43Z</time>
      </trkpt>
      <trkpt lat="45.46149" lon="4.20127">
        <ele>555.78</ele>
        <time>2021-06-13T08:38:01Z</time>
      </trkpt>
      <trkpt lat="45.46125" lon="4.20146">
        <ele>555.78</ele>
        <time>2021-06-13T08:38:15Z</time>
      </trkpt>
      <trkpt lat="45.46096" lon="4.20168">
        <ele>556.26</ele>
        <time>2021-06-13T08:38:37Z</time>
      </trkpt>
      <trkpt lat="45.46067" lon="4.2019">
        <ele>555.78</ele>
        <time>2021-06-13T08:38:59Z</time>
      </trkpt>
      <trkpt lat="45.4604" lon="4.20207">
        <ele>558.18</ele>
        <time>2021-06-13T08:39:17Z</time>
      </trkpt>
      <trkpt lat="45.46013" lon="4.20224">
        <ele>561.55</ele>
        <time>2021-06-13T08:39:35Z</time>
      </trkpt>
      <trkpt lat="45.45988" lon="4.20243">
        <ele>562.51</ele>
        <time>2021-06-13T08:39:54Z</time>
      </trkpt>
      <trkpt lat="45.45964" lon="4.20266">
        <ele>565.87</ele>
        <time>2021-06-13T08:40:12Z</time>
      </trkpt>
      <trkpt lat="45.45938" lon="4.20283">
        <ele>568.76</ele>
        <time>2021-06-13T08:40:30Z</time>
      </trkpt>
      <trkpt lat="45.45911" lon="4.20297">
        <ele>571.16</ele>
        <time>2021-06-13T08:40:49Z</time>
      </trkpt>
      <trkpt lat="45.45882" lon="4.20309">
        <ele>573.56</ele>
        <time>2021-06-13T08:41:10Z</time>
      </trkpt>
      <trkpt lat="45.45848" lon="4.20317">
        <ele>577.41</ele>
        <time>2021-06-13T08:41:33Z</time>
      </trkpt>
      <trkpt lat="45.45818" lon="4.20322">
        <ele>579.33</ele>
        <time>2021-06-13T08:41:53Z</time>
      </trkpt>
      <trkpt lat="45.4579" lon="4.20329">
        <ele>581.25</ele>
        <time>2021-06-13T08:42:11Z</time>
      </trkpt>
      <trkpt lat="45.45758" lon="4.20343">
        <ele>584.14</ele>
        <time>2021-06-13T08:42:31Z</time>
      </trkpt>
      <trkpt lat="45.45729" lon="4.20348">
        <ele>584.14</ele>
        <time>2021-06-13T08:42:49Z</time>
      </trkpt>
      <trkpt lat="45.45708" lon="4.20357">
        <ele>587.02</ele>
        <time>2021-06-13T08:43:05Z</time>
      </trkpt>
      <trkpt lat="45.4568" lon="4.2037">
        <ele>587.02</ele>
        <time>2021-06-13T08:43:23Z</time>
      </trkpt>
      <trkpt lat="45.45647" lon="4.20374">
        <ele>589.43</ele>
        <time>2021-06-13T08:43:43Z</time>
      </trkpt>
      <trkpt lat="45.45614" lon="4.20394">
        <ele>590.87</ele>
        <time>2021-06-13T08:44:02Z</time>
      </trkpt>
      <trkpt lat="45.45589" lon="4.20428">
        <ele>597.12</ele>
        <time>2021-06-13T08:44:23Z</time>
      </trkpt>
      <trkpt lat="45.45572" lon="4.2047">
        <ele>599.52</ele>
        <time>2021-06-13T08:44:44Z</time>
      </trkpt>
      <trkpt lat="45.45562" lon="4.20506">
        <ele>601.44</ele>
        <time>2021-06-13T08:45:01Z</time>
      </trkpt>
      <trkpt lat="45.45553" lon="4.20536">
        <ele>601.92</ele>
        <time>2021-06-13T08:45:16Z</time>
      </trkpt>
      <trkpt lat="45.45539" lon="4.20572">
        <ele>602.88</ele>
        <time>2021-06-13T08:45:35Z</time>
      </trkpt>
      <trkpt lat="45.45524" lon="4.20608">
        <ele>605.77</ele>
        <time>2021-06-13T08:45:55Z</time>
      </trkpt>
      <trkpt lat="45.45506" lon="4.20653">
        <ele>606.73</ele>
        <time>2021-06-13T08:46:19Z</time>
      </trkpt>
      <trkpt lat="45.45493" lon="4.20682">
        <ele>607.21</ele>
        <time>2021-06-13T08:46:35Z</time>
      </trkpt>
      <trkpt lat="45.45479" lon="4.20723">
        <ele>609.13</ele>
        <time>2021-06-13T08:46:55Z</time>
      </trkpt>
      <trkpt lat="45.45467" lon="4.20764">
        <ele>607.69</ele>
        <time>2021-06-13T08:47:15Z</time>
      </trkpt>
      <trkpt lat="45.45455" lon="4.20797">
        <ele>605.29</ele>
        <time>2021-06-13T08:47:31Z</time>
      </trkpt>
      <trkpt lat="45.4543" lon="4.2081">
        <ele>600.48</ele>
        <time>2021-06-13T08:47:47Z</time>
      </trkpt>
      <trkpt lat="45.454" lon="4.20811">
        <ele>596.64</ele>
        <time>2021-06-13T08:48:07Z</time>
      </trkpt>
      <trkpt lat="45.45382" lon="4.20807">
        <ele>595.67</ele>
        <time>2021-06-13T08:48:22Z</time>
      </trkpt>
      <trkpt lat="45.45384" lon="4.20802">
        <ele>595.19</ele>
        <time>2021-06-13T08:48:40Z</time>
      </trkpt>
      <trkpt lat="45.45379" lon="4.20798">
        <ele>597.12</ele>
        <time>2021-06-13T08:48:48Z</time>
      </trkpt>
      <trkpt lat="45.45377" lon="4.208">
        <ele>597.6</ele>
        <time>2021-06-13T08:48:49Z</time>
      </trkpt>
      <trkpt lat="45.45376" lon="4.20801">
        <ele>598.08</ele>
        <time>2021-06-13T08:48:50Z</time>
      </trkpt>
      <trkpt lat="45.45375" lon="4.20802">
        <ele>598.56</ele>
        <time>2021-06-13T08:48:51Z</time>
      </trkpt>
      <trkpt lat="45.45374" lon="4.20804">
        <ele>598.56</ele>
        <time>2021-06-13T08:48:52Z</time>
      </trkpt>
      <trkpt lat="45.45373" lon="4.20806">
        <ele>598.56</ele>
        <time>2021-06-13T08:48:53Z</time>
      </trkpt>
      <trkpt lat="45.45374" lon="4.20807">
        <ele>599.04</ele>
        <time>2021-06-13T08:48:54Z</time>
      </trkpt>
      <trkpt lat="45.45373" lon="4.20808">
        <ele>598.56</ele>
        <time>2021-06-13T08:48:55Z</time>
      </trkpt>
      <trkpt lat="45.45374" lon="4.20851">
        <ele>602.88</ele>
        <time>2021-06-13T08:49:15Z</time>
      </trkpt>
      <trkpt lat="45.45376" lon="4.20863">
        <ele>603.36</ele>
        <time>2021-06-13T08:49:20Z</time>
      </trkpt>
      <trkpt lat="45.45354" lon="4.20903">
        <ele>606.73</ele>
        <time>2021-06-13T08:49:39Z</time>
      </trkpt>
      <trkpt lat="45.4535" lon="4.20937">
        <ele>607.21</ele>
        <time>2021-06-13T08:49:54Z</time>
      </trkpt>
      <trkpt lat="45.45359" lon="4.20983">
        <ele>609.13</ele>
        <time>2021-06-13T08:50:15Z</time>
      </trkpt>
      <trkpt lat="45.45372" lon="4.21016">
        <ele>612.02</ele>
        <time>2021-06-13T08:50:33Z</time>
      </trkpt>
      <trkpt lat="45.45372" lon="4.21052">
        <ele>614.9</ele>
        <time>2021-06-13T08:50:49Z</time>
      </trkpt>
      <trkpt lat="45.4535" lon="4.21088">
        <ele>614.9</ele>
        <time>2021-06-13T08:51:08Z</time>
      </trkpt>
      <trkpt lat="45.45328" lon="4.21121">
        <ele>614.9</ele>
        <time>2021-06-13T08:51:27Z</time>
      </trkpt>
      <trkpt lat="45.45304" lon="4.21156">
        <ele>616.34</ele>
        <time>2021-06-13T08:51:49Z</time>
      </trkpt>
      <trkpt lat="45.4528" lon="4.2119">
        <ele>616.34</ele>
        <time>2021-06-13T08:52:11Z</time>
      </trkpt>
      <trkpt lat="45.45258" lon="4.21223">
        <ele>617.3</ele>
        <time>2021-06-13T08:52:31Z</time>
      </trkpt>
      <trkpt lat="45.4524" lon="4.21271">
        <ele>619.71</ele>
        <time>2021-06-13T08:52:55Z</time>
      </trkpt>
      <trkpt lat="45.45226" lon="4.21309">
        <ele>620.19</ele>
        <time>2021-06-13T08:53:16Z</time>
      </trkpt>
      <trkpt lat="45.45212" lon="4.21341">
        <ele>619.71</ele>
        <time>2021-06-13T08:53:34Z</time>
      </trkpt>
      <trkpt lat="45.45196" lon="4.21375">
        <ele>620.19</ele>
        <time>2021-06-13T08:53:53Z</time>
      </trkpt>
      <trkpt lat="45.45179" lon="4.21411">
        <ele>618.75</ele>
        <time>2021-06-13T08:54:13Z</time>
      </trkpt>
      <trkpt lat="45.4517" lon="4.21444">
        <ele>614.42</ele>
        <time>2021-06-13T08:54:30Z</time>
      </trkpt>
      <trkpt lat="45.45162" lon="4.21467">
        <ele>612.5</ele>
        <time>2021-06-13T08:54:46Z</time>
      </trkpt>
      <trkpt lat="45.45147" lon="4.21467">
        <ele>610.57</ele>
        <time>2021-06-13T08:54:56Z</time>
      </trkpt>
      <trkpt lat="45.45119" lon="4.2146">
        <ele>608.17</ele>
        <time>2021-06-13T08:55:11Z</time>
      </trkpt>
      <trkpt lat="45.4509" lon="4.2146">
        <ele>605.29</ele>
        <time>2021-06-13T08:55:28Z</time>
      </trkpt>
      <trkpt lat="45.45079" lon="4.21459">
        <ele>604.33</ele>
        <time>2021-06-13T08:55:35Z</time>
      </trkpt>
      <trkpt lat="45.45073" lon="4.21466">
        <ele>602.4</ele>
        <time>2021-06-13T08:55:40Z</time>
      </trkpt>
      <trkpt lat="45.45073" lon="4.21481">
        <ele>599.04</ele>
        <time>2021-06-13T08:55:48Z</time>
      </trkpt>
      <trkpt lat="45.45071" lon="4.21513">
        <ele>594.71</ele>
        <time>2021-06-13T08:56:04Z</time>
      </trkpt>
      <trkpt lat="45.45066" lon="4.2153">
        <ele>591.83</ele>
        <time>2021-06-13T08:56:13Z</time>
      </trkpt>
      <trkpt lat="45.45043" lon="4.21558">
        <ele>608.65</ele>
        <time>2021-06-13T08:56:28Z</time>
      </trkpt>
      <trkpt lat="45.45023" lon="4.21577">
        <ele>618.26</ele>
        <time>2021-06-13T08:56:47Z</time>
      </trkpt>
      <trkpt lat="45.4502" lon="4.21586">
        <ele>621.15</ele>
        <time>2021-06-13T08:56:52Z</time>
      </trkpt>
      <trkpt lat="45.45019" lon="4.21611">
        <ele>635.09</ele>
        <time>2021-06-13T08:57:09Z</time>
      </trkpt>
      <trkpt lat="45.45014" lon="4.21651">
        <ele>639.41</ele>
        <time>2021-06-13T08:57:27Z</time>
      </trkpt>
      <trkpt lat="45.45011" lon="4.21656">
        <ele>639.89</ele>
        <time>2021-06-13T08:57:30Z</time>
      </trkpt>
      <trkpt lat="45.4501" lon="4.21658">
        <ele>639.89</ele>
        <time>2021-06-13T08:57:31Z</time>
      </trkpt>
      <trkpt lat="45.44987" lon="4.217">
        <ele>640.86</ele>
        <time>2021-06-13T08:57:54Z</time>
      </trkpt>
      <trkpt lat="45.44978" lon="4.21715">
        <ele>641.34</ele>
        <time>2021-06-13T08:58:06Z</time>
      </trkpt>
      <trkpt lat="45.44962" lon="4.21751">
        <ele>643.26</ele>
        <time>2021-06-13T08:58:27Z</time>
      </trkpt>
      <trkpt lat="45.44953" lon="4.21794">
        <ele>649.51</ele>
        <time>2021-06-13T08:58:47Z</time>
      </trkpt>
      <trkpt lat="45.4495" lon="4.21835">
        <ele>653.83</ele>
        <time>2021-06-13T08:59:04Z</time>
      </trkpt>
      <trkpt lat="45.44948" lon="4.21877">
        <ele>653.35</ele>
        <time>2021-06-13T08:59:24Z</time>
      </trkpt>
      <trkpt lat="45.44953" lon="4.21922">
        <ele>654.8</ele>
        <time>2021-06-13T08:59:46Z</time>
      </trkpt>
      <trkpt lat="45.44966" lon="4.2197">
        <ele>652.87</ele>
        <time>2021-06-13T09:00:07Z</time>
      </trkpt>
      <trkpt lat="45.4496" lon="4.22006">
        <ele>649.99</ele>
        <time>2021-06-13T09:00:23Z</time>
      </trkpt>
      <trkpt lat="45.44956" lon="4.22049">
        <ele>645.66</ele>
        <time>2021-06-13T09:00:43Z</time>
      </trkpt>
      <trkpt lat="45.4495" lon="4.22089">
        <ele>643.26</ele>
        <time>2021-06-13T09:01:04Z</time>
      </trkpt>
      <trkpt lat="45.44952" lon="4.22134">
        <ele>642.78</ele>
        <time>2021-06-13T09:01:22Z</time>
      </trkpt>
      <trkpt lat="45.44958" lon="4.22155">
        <ele>643.26</ele>
        <time>2021-06-13T09:01:37Z</time>
      </trkpt>
      <trkpt lat="45.44957" lon="4.22167">
        <ele>642.3</ele>
        <time>2021-06-13T09:01:43Z</time>
      </trkpt>
      <trkpt lat="45.44943" lon="4.22202">
        <ele>641.34</ele>
        <time>2021-06-13T09:02:00Z</time>
      </trkpt>
      <trkpt lat="45.44928" lon="4.22234">
        <ele>639.41</ele>
        <time>2021-06-13T09:02:17Z</time>
      </trkpt>
      <trkpt lat="45.44917" lon="4.22267">
        <ele>638.93</ele>
        <time>2021-06-13T09:02:34Z</time>
      </trkpt>
      <trkpt lat="45.44906" lon="4.22302">
        <ele>637.97</ele>
        <time>2021-06-13T09:02:51Z</time>
      </trkpt>
      <trkpt lat="45.44891" lon="4.22341">
        <ele>637.97</ele>
        <time>2021-06-13T09:03:10Z</time>
      </trkpt>
      <trkpt lat="45.44882" lon="4.22375">
        <ele>638.45</ele>
        <time>2021-06-13T09:03:26Z</time>
      </trkpt>
      <trkpt lat="45.44882" lon="4.22416">
        <ele>637.97</ele>
        <time>2021-06-13T09:03:44Z</time>
      </trkpt>
      <trkpt lat="45.44875" lon="4.22449">
        <ele>634.13</ele>
        <time>2021-06-13T09:03:59Z</time>
      </trkpt>
      <trkpt lat="45.44867" lon="4.2248">
        <ele>628.84</ele>
        <time>2021-06-13T09:04:16Z</time>
      </trkpt>
      <trkpt lat="45.44866" lon="4.22482">
        <ele>628.84</ele>
        <time>2021-06-13T09:04:17Z</time>
      </trkpt>
      <trkpt lat="45.44864" lon="4.22487">
        <ele>627.4</ele>
        <time>2021-06-13T09:04:20Z</time>
      </trkpt>
      <trkpt lat="45.44862" lon="4.22491">
        <ele>626.92</ele>
        <time>2021-06-13T09:04:22Z</time>
      </trkpt>
      <trkpt lat="45.4486" lon="4.22493">
        <ele>626.92</ele>
        <time>2021-06-13T09:04:23Z</time>
      </trkpt>
      <trkpt lat="45.44849" lon="4.22505">
        <ele>627.4</ele>
        <time>2021-06-13T09:04:34Z</time>
      </trkpt>
      <trkpt lat="45.44819" lon="4.22523">
        <ele>625.96</ele>
        <time>2021-06-13T09:04:52Z</time>
      </trkpt>
      <trkpt lat="45.4479" lon="4.22543">
        <ele>624.03</ele>
        <time>2021-06-13T09:05:10Z</time>
      </trkpt>
      <trkpt lat="45.44766" lon="4.22555">
        <ele>619.71</ele>
        <time>2021-06-13T09:05:25Z</time>
      </trkpt>
      <trkpt lat="45.4476" lon="4.22586">
        <ele>618.26</ele>
        <time>2021-06-13T09:05:39Z</time>
      </trkpt>
      <trkpt lat="45.44775" lon="4.22616">
        <ele>619.23</ele>
        <time>2021-06-13T09:05:55Z</time>
      </trkpt>
      <trkpt lat="45.44794" lon="4.22651">
        <ele>624.03</ele>
        <time>2021-06-13T09:06:15Z</time>
      </trkpt>
      <trkpt lat="45.44781" lon="4.22693">
        <ele>628.36</ele>
        <time>2021-06-13T09:06:33Z</time>
      </trkpt>
      <trkpt lat="45.44771" lon="4.22726">
        <ele>633.65</ele>
        <time>2021-06-13T09:06:49Z</time>
      </trkpt>
      <trkpt lat="45.44761" lon="4.22767">
        <ele>635.57</ele>
        <time>2021-06-13T09:07:09Z</time>
      </trkpt>
      <trkpt lat="45.44749" lon="4.22803">
        <ele>638.45</ele>
        <time>2021-06-13T09:07:29Z</time>
      </trkpt>
      <trkpt lat="45.44733" lon="4.22836">
        <ele>638.45</ele>
        <time>2021-06-13T09:07:49Z</time>
      </trkpt>
      <trkpt lat="45.44718" lon="4.22854">
        <ele>641.34</ele>
        <time>2021-06-13T09:08:04Z</time>
      </trkpt>
      <trkpt lat="45.44693" lon="4.22877">
        <ele>641.34</ele>
        <time>2021-06-13T09:08:22Z</time>
      </trkpt>
      <trkpt lat="45.44684" lon="4.22883">
        <ele>640.38</ele>
        <time>2021-06-13T09:08:28Z</time>
      </trkpt>
      <trkpt lat="45.44682" lon="4.22884">
        <ele>640.38</ele>
        <time>2021-06-13T09:08:29Z</time>
      </trkpt>
      <trkpt lat="45.4468" lon="4.22885">
        <ele>640.38</ele>
        <time>2021-06-13T09:08:30Z</time>
      </trkpt>
      <trkpt lat="45.44652" lon="4.22906">
        <ele>638.93</ele>
        <time>2021-06-13T09:08:50Z</time>
      </trkpt>
      <trkpt lat="45.44629" lon="4.22925">
        <ele>637.97</ele>
        <time>2021-06-13T09:09:08Z</time>
      </trkpt>
      <trkpt lat="45.44602" lon="4.22942">
        <ele>638.93</ele>
        <time>2021-06-13T09:09:26Z</time>
      </trkpt>
      <trkpt lat="45.44579" lon="4.22965">
        <ele>637.97</ele>
        <time>2021-06-13T09:09:44Z</time>
      </trkpt>
      <trkpt lat="45.44556" lon="4.22982">
        <ele>637.01</ele>
        <time>2021-06-13T09:10:01Z</time>
      </trkpt>
      <trkpt lat="45.44532" lon="4.23005">
        <ele>635.57</ele>
        <time>2021-06-13T09:10:19Z</time>
      </trkpt>
      <trkpt lat="45.44509" lon="4.23024">
        <ele>634.61</ele>
        <time>2021-06-13T09:10:36Z</time>
      </trkpt>
      <trkpt lat="45.44496" lon="4.23045">
        <ele>632.2</ele>
        <time>2021-06-13T09:10:48Z</time>
      </trkpt>
      <trkpt lat="45.44484" lon="4.23081">
        <ele>633.17</ele>
        <time>2021-06-13T09:11:05Z</time>
      </trkpt>
      <trkpt lat="45.44471" lon="4.23119">
        <ele>632.68</ele>
        <time>2021-06-13T09:11:23Z</time>
      </trkpt>
      <trkpt lat="45.44461" lon="4.23165">
        <ele>634.13</ele>
        <time>2021-06-13T09:11:43Z</time>
      </trkpt>
      <trkpt lat="45.44453" lon="4.23198">
        <ele>635.57</ele>
        <time>2021-06-13T09:11:59Z</time>
      </trkpt>
      <trkpt lat="45.44452" lon="4.232">
        <ele>635.57</ele>
        <time>2021-06-13T09:12:00Z</time>
      </trkpt>
      <trkpt lat="45.44446" lon="4.23235">
        <ele>635.09</ele>
        <time>2021-06-13T09:12:16Z</time>
      </trkpt>
      <trkpt lat="45.44442" lon="4.23274">
        <ele>637.97</ele>
        <time>2021-06-13T09:12:35Z</time>
      </trkpt>
      <trkpt lat="45.44442" lon="4.23294">
        <ele>640.38</ele>
        <time>2021-06-13T09:12:51Z</time>
      </trkpt>
      <trkpt lat="45.44436" lon="4.23332">
        <ele>643.26</ele>
        <time>2021-06-13T09:13:10Z</time>
      </trkpt>
      <trkpt lat="45.44431" lon="4.23357">
        <ele>644.22</ele>
        <time>2021-06-13T09:13:23Z</time>
      </trkpt>
      <trkpt lat="45.44416" lon="4.23394">
        <ele>646.14</ele>
        <time>2021-06-13T09:13:43Z</time>
      </trkpt>
      <trkpt lat="45.44405" lon="4.23426">
        <ele>646.62</ele>
        <time>2021-06-13T09:14:00Z</time>
      </trkpt>
      <trkpt lat="45.44395" lon="4.23452">
        <ele>648.55</ele>
        <time>2021-06-13T09:14:14Z</time>
      </trkpt>
      <trkpt lat="45.44378" lon="4.23492">
        <ele>648.55</ele>
        <time>2021-06-13T09:14:34Z</time>
      </trkpt>
      <trkpt lat="45.44369" lon="4.23524">
        <ele>649.51</ele>
        <time>2021-06-13T09:14:49Z</time>
      </trkpt>
      <trkpt lat="45.4436" lon="4.23556">
        <ele>649.03</ele>
        <time>2021-06-13T09:15:05Z</time>
      </trkpt>
      <trkpt lat="45.4436" lon="4.23558">
        <ele>649.03</ele>
        <time>2021-06-13T09:15:06Z</time>
      </trkpt>
      <trkpt lat="45.44359" lon="4.2356">
        <ele>649.03</ele>
        <time>2021-06-13T09:15:07Z</time>
      </trkpt>
      <trkpt lat="45.44347" lon="4.23595">
        <ele>646.14</ele>
        <time>2021-06-13T09:15:25Z</time>
      </trkpt>
      <trkpt lat="45.44334" lon="4.23622">
        <ele>644.7</ele>
        <time>2021-06-13T09:15:40Z</time>
      </trkpt>
      <trkpt lat="45.44319" lon="4.23646">
        <ele>641.34</ele>
        <time>2021-06-13T09:15:57Z</time>
      </trkpt>
      <trkpt lat="45.44301" lon="4.2367">
        <ele>637.01</ele>
        <time>2021-06-13T09:16:14Z</time>
      </trkpt>
      <trkpt lat="45.44276" lon="4.23683">
        <ele>633.17</ele>
        <time>2021-06-13T09:16:32Z</time>
      </trkpt>
      <trkpt lat="45.44252" lon="4.23696">
        <ele>630.28</ele>
        <time>2021-06-13T09:16:49Z</time>
      </trkpt>
      <trkpt lat="45.44235" lon="4.23712">
        <ele>627.4</ele>
        <time>2021-06-13T09:17:09Z</time>
      </trkpt>
      <trkpt lat="45.44227" lon="4.23723">
        <ele>631.24</ele>
        <time>2021-06-13T09:17:37Z</time>
      </trkpt>
      <trkpt lat="45.4422" lon="4.23756">
        <ele>633.65</ele>
        <time>2021-06-13T09:17:54Z</time>
      </trkpt>
      <trkpt lat="45.44231" lon="4.23791">
        <ele>631.24</ele>
        <time>2021-06-13T09:18:11Z</time>
      </trkpt>
      <trkpt lat="45.44238" lon="4.23837">
        <ele>630.28</ele>
        <time>2021-06-13T09:18:31Z</time>
      </trkpt>
      <trkpt lat="45.44252" lon="4.23876">
        <ele>629.8</ele>
        <time>2021-06-13T09:18:52Z</time>
      </trkpt>
      <trkpt lat="45.44274" lon="4.23896">
        <ele>630.28</ele>
        <time>2021-06-13T09:19:09Z</time>
      </trkpt>
      <trkpt lat="45.4429" lon="4.23943">
        <ele>627.88</ele>
        <time>2021-06-13T09:19:30Z</time>
      </trkpt>
      <trkpt lat="45.44313" lon="4.23991">
        <ele>630.76</ele>
        <time>2021-06-13T09:19:54Z</time>
      </trkpt>
      <trkpt lat="45.44337" lon="4.24002">
        <ele>633.17</ele>
        <time>2021-06-13T09:20:08Z</time>
      </trkpt>
      <trkpt lat="45.44365" lon="4.24014">
        <ele>633.17</ele>
        <time>2021-06-13T09:20:27Z</time>
      </trkpt>
      <trkpt lat="45.4439" lon="4.24017">
        <ele>629.8</ele>
        <time>2021-06-13T09:20:42Z</time>
      </trkpt>
      <trkpt lat="45.44418" lon="4.24015">
        <ele>624.99</ele>
        <time>2021-06-13T09:20:59Z</time>
      </trkpt>
      <trkpt lat="45.44453" lon="4.24022">
        <ele>623.07</ele>
        <time>2021-06-13T09:21:19Z</time>
      </trkpt>
      <trkpt lat="45.4449" lon="4.24039">
        <ele>621.15</ele>
        <time>2021-06-13T09:21:43Z</time>
      </trkpt>
      <trkpt lat="45.4453" lon="4.24053">
        <ele>622.11</ele>
        <time>2021-06-13T09:22:07Z</time>
      </trkpt>
      <trkpt lat="45.44559" lon="4.24059">
        <ele>624.03</ele>
        <time>2021-06-13T09:22:24Z</time>
      </trkpt>
      <trkpt lat="45.44593" lon="4.24068">
        <ele>624.51</ele>
        <time>2021-06-13T09:22:43Z</time>
      </trkpt>
      <trkpt lat="45.44627" lon="4.24085">
        <ele>625.47</ele>
        <time>2021-06-13T09:23:03Z</time>
      </trkpt>
      <trkpt lat="45.44654" lon="4.24103">
        <ele>626.92</ele>
        <time>2021-06-13T09:23:21Z</time>
      </trkpt>
      <trkpt lat="45.44689" lon="4.24119">
        <ele>629.8</ele>
        <time>2021-06-13T09:23:41Z</time>
      </trkpt>
      <trkpt lat="45.44721" lon="4.24125">
        <ele>629.8</ele>
        <time>2021-06-13T09:23:59Z</time>
      </trkpt>
      <trkpt lat="45.44751" lon="4.24132">
        <ele>630.76</ele>
        <time>2021-06-13T09:24:18Z</time>
      </trkpt>
      <trkpt lat="45.44777" lon="4.24141">
        <ele>632.2</ele>
        <time>2021-06-13T09:24:34Z</time>
      </trkpt>
      <trkpt lat="45.44801" lon="4.24147">
        <ele>630.28</ele>
        <time>2021-06-13T09:24:49Z</time>
      </trkpt>
      <trkpt lat="45.44829" lon="4.24159">
        <ele>627.88</ele>
        <time>2021-06-13T09:25:09Z</time>
      </trkpt>
      <trkpt lat="45.44833" lon="4.24162">
        <ele>626.44</ele>
        <time>2021-06-13T09:25:22Z</time>
      </trkpt>
      <trkpt lat="45.44832" lon="4.24161">
        <ele>625.47</ele>
        <time>2021-06-13T09:25:40Z</time>
      </trkpt>
      <trkpt lat="45.44835" lon="4.24162">
        <ele>626.44</ele>
        <time>2021-06-13T09:26:05Z</time>
      </trkpt>
      <trkpt lat="45.44853" lon="4.24168">
        <ele>625.96</ele>
        <time>2021-06-13T09:26:17Z</time>
      </trkpt>
      <trkpt lat="45.44878" lon="4.24178">
        <ele>624.51</ele>
        <time>2021-06-13T09:26:33Z</time>
      </trkpt>
      <trkpt lat="45.44903" lon="4.24184">
        <ele>621.63</ele>
        <time>2021-06-13T09:26:52Z</time>
      </trkpt>
      <trkpt lat="45.44927" lon="4.24188">
        <ele>619.23</ele>
        <time>2021-06-13T09:27:08Z</time>
      </trkpt>
      <trkpt lat="45.44952" lon="4.24187">
        <ele>613.94</ele>
        <time>2021-06-13T09:27:24Z</time>
      </trkpt>
      <trkpt lat="45.44976" lon="4.24188">
        <ele>610.09</ele>
        <time>2021-06-13T09:27:39Z</time>
      </trkpt>
      <trkpt lat="45.45001" lon="4.24175">
        <ele>603.36</ele>
        <time>2021-06-13T09:27:57Z</time>
      </trkpt>
      <trkpt lat="45.45029" lon="4.24166">
        <ele>599.04</ele>
        <time>2021-06-13T09:28:14Z</time>
      </trkpt>
      <trkpt lat="45.45061" lon="4.2416">
        <ele>597.12</ele>
        <time>2021-06-13T09:28:32Z</time>
      </trkpt>
      <trkpt lat="45.45083" lon="4.24156">
        <ele>594.23</ele>
        <time>2021-06-13T09:28:47Z</time>
      </trkpt>
      <trkpt lat="45.45104" lon="4.24156">
        <ele>590.87</ele>
        <time>2021-06-13T09:29:00Z</time>
      </trkpt>
      <trkpt lat="45.4513" lon="4.24152">
        <ele>587.02</ele>
        <time>2021-06-13T09:29:15Z</time>
      </trkpt>
      <trkpt lat="45.45156" lon="4.24151">
        <ele>585.1</ele>
        <time>2021-06-13T09:29:31Z</time>
      </trkpt>
      <trkpt lat="45.45178" lon="4.24152">
        <ele>585.1</ele>
        <time>2021-06-13T09:29:44Z</time>
      </trkpt>
      <trkpt lat="45.45197" lon="4.24161">
        <ele>584.14</ele>
        <time>2021-06-13T09:29:57Z</time>
      </trkpt>
      <trkpt lat="45.45227" lon="4.2417">
        <ele>585.1</ele>
        <time>2021-06-13T09:30:13Z</time>
      </trkpt>
      <trkpt lat="45.45258" lon="4.24186">
        <ele>585.58</ele>
        <time>2021-06-13T09:30:32Z</time>
      </trkpt>
      <trkpt lat="45.45286" lon="4.24191">
        <ele>586.06</ele>
        <time>2021-06-13T09:30:49Z</time>
      </trkpt>
      <trkpt lat="45.45314" lon="4.242">
        <ele>584.62</ele>
        <time>2021-06-13T09:31:05Z</time>
      </trkpt>
      <trkpt lat="45.45343" lon="4.24224">
        <ele>586.06</ele>
        <time>2021-06-13T09:31:25Z</time>
      </trkpt>
      <trkpt lat="45.4537" lon="4.24235">
        <ele>587.02</ele>
        <time>2021-06-13T09:31:44Z</time>
      </trkpt>
      <trkpt lat="45.45394" lon="4.24229">
        <ele>587.98</ele>
        <time>2021-06-13T09:32:00Z</time>
      </trkpt>
      <trkpt lat="45.45424" lon="4.24235">
        <ele>587.5</ele>
        <time>2021-06-13T09:32:18Z</time>
      </trkpt>
      <trkpt lat="45.45455" lon="4.24243">
        <ele>583.66</ele>
        <time>2021-06-13T09:32:36Z</time>
      </trkpt>
      <trkpt lat="45.45483" lon="4.24249">
        <ele>580.29</ele>
        <time>2021-06-13T09:32:53Z</time>
      </trkpt>
      <trkpt lat="45.45509" lon="4.24247">
        <ele>578.85</ele>
        <time>2021-06-13T09:33:09Z</time>
      </trkpt>
      <trkpt lat="45.45525" lon="4.24248">
        <ele>578.85</ele>
        <time>2021-06-13T09:33:21Z</time>
      </trkpt>
      <trkpt lat="45.45537" lon="4.24255">
        <ele>576.93</ele>
        <time>2021-06-13T09:33:33Z</time>
      </trkpt>
      <trkpt lat="45.45539" lon="4.24257">
        <ele>576.93</ele>
        <time>2021-06-13T09:33:34Z</time>
      </trkpt>
      <trkpt lat="45.45562" lon="4.24281">
        <ele>576.45</ele>
        <time>2021-06-13T09:33:55Z</time>
      </trkpt>
      <trkpt lat="45.45578" lon="4.24315">
        <ele>572.12</ele>
        <time>2021-06-13T09:34:14Z</time>
      </trkpt>
      <trkpt lat="45.45592" lon="4.24339">
        <ele>569.72</ele>
        <time>2021-06-13T09:34:31Z</time>
      </trkpt>
      <trkpt lat="45.45595" lon="4.24346">
        <ele>565.87</ele>
        <time>2021-06-13T09:34:50Z</time>
      </trkpt>
      <trkpt lat="45.45596" lon="4.2433">
        <ele>563.47</ele>
        <time>2021-06-13T09:35:01Z</time>
      </trkpt>
      <trkpt lat="45.45598" lon="4.24322">
        <ele>562.51</ele>
        <time>2021-06-13T09:35:06Z</time>
      </trkpt>
      <trkpt lat="45.45605" lon="4.24316">
        <ele>562.03</ele>
        <time>2021-06-13T09:35:12Z</time>
      </trkpt>
      <trkpt lat="45.4562" lon="4.24297">
        <ele>559.62</ele>
        <time>2021-06-13T09:35:28Z</time>
      </trkpt>
      <trkpt lat="45.4564" lon="4.24271">
        <ele>559.62</ele>
        <time>2021-06-13T09:35:50Z</time>
      </trkpt>
      <trkpt lat="45.45652" lon="4.24274">
        <ele>557.22</ele>
        <time>2021-06-13T09:36:08Z</time>
      </trkpt>
      <trkpt lat="45.4566" lon="4.24298">
        <ele>554.82</ele>
        <time>2021-06-13T09:36:25Z</time>
      </trkpt>
      <trkpt lat="45.45664" lon="4.243">
        <ele>554.34</ele>
        <time>2021-06-13T09:36:46Z</time>
      </trkpt>
      <trkpt lat="45.45663" lon="4.2428">
        <ele>551.93</ele>
        <time>2021-06-13T09:37:04Z</time>
      </trkpt>
      <trkpt lat="45.45667" lon="4.24271">
        <ele>550.97</ele>
        <time>2021-06-13T09:37:19Z</time>
      </trkpt>
      <trkpt lat="45.45675" lon="4.24243">
        <ele>549.53</ele>
        <time>2021-06-13T09:37:37Z</time>
      </trkpt>
      <trkpt lat="45.45671" lon="4.24228">
        <ele>549.53</ele>
        <time>2021-06-13T09:37:56Z</time>
      </trkpt>
      <trkpt lat="45.4567" lon="4.24217">
        <ele>550.97</ele>
        <time>2021-06-13T09:38:07Z</time>
      </trkpt>
      <trkpt lat="45.45669" lon="4.2419">
        <ele>561.07</ele>
        <time>2021-06-13T09:38:24Z</time>
      </trkpt>
      <trkpt lat="45.45681" lon="4.24175">
        <ele>562.99</ele>
        <time>2021-06-13T09:38:34Z</time>
      </trkpt>
      <trkpt lat="45.45696" lon="4.24173">
        <ele>566.35</ele>
        <time>2021-06-13T09:38:43Z</time>
      </trkpt>
      <trkpt lat="45.457" lon="4.24161">
        <ele>566.83</ele>
        <time>2021-06-13T09:38:51Z</time>
      </trkpt>
      <trkpt lat="45.45711" lon="4.24157">
        <ele>568.76</ele>
        <time>2021-06-13T09:38:58Z</time>
      </trkpt>
      <trkpt lat="45.45717" lon="4.24149">
        <ele>570.2</ele>
        <time>2021-06-13T09:39:05Z</time>
      </trkpt>
      <trkpt lat="45.45724" lon="4.24137">
        <ele>569.72</ele>
        <time>2021-06-13T09:39:15Z</time>
      </trkpt>
      <trkpt lat="45.45737" lon="4.24138">
        <ele>571.64</ele>
        <time>2021-06-13T09:39:29Z</time>
      </trkpt>
      <trkpt lat="45.45741" lon="4.2414">
        <ele>575.49</ele>
        <time>2021-06-13T09:39:53Z</time>
      </trkpt>
      <trkpt lat="45.45744" lon="4.2414">
        <ele>578.85</ele>
        <time>2021-06-13T09:40:21Z</time>
      </trkpt>
      <trkpt lat="45.45742" lon="4.24138">
        <ele>580.77</ele>
        <time>2021-06-13T09:40:48Z</time>
      </trkpt>
      <trkpt lat="45.45742" lon="4.24137">
        <ele>579.81</ele>
        <time>2021-06-13T09:41:12Z</time>
      </trkpt>
      <trkpt lat="45.45735" lon="4.24137">
        <ele>577.89</ele>
        <time>2021-06-13T09:41:41Z</time>
      </trkpt>
      <trkpt lat="45.45741" lon="4.24146">
        <ele>576.93</ele>
        <time>2021-06-13T09:42:02Z</time>
      </trkpt>
      <trkpt lat="45.45749" lon="4.24153">
        <ele>577.41</ele>
        <time>2021-06-13T09:42:06Z</time>
      </trkpt>
      <trkpt lat="45.45768" lon="4.24184">
        <ele>575.97</ele>
        <time>2021-06-13T09:42:24Z</time>
      </trkpt>
      <trkpt lat="45.45786" lon="4.2422">
        <ele>577.89</ele>
        <time>2021-06-13T09:42:45Z</time>
      </trkpt>
      <trkpt lat="45.458" lon="4.24247">
        <ele>576.93</ele>
        <time>2021-06-13T09:43:01Z</time>
      </trkpt>
      <trkpt lat="45.45815" lon="4.24281">
        <ele>574.04</ele>
        <time>2021-06-13T09:43:18Z</time>
      </trkpt>
      <trkpt lat="45.45824" lon="4.24316">
        <ele>573.08</ele>
        <time>2021-06-13T09:43:35Z</time>
      </trkpt>
      <trkpt lat="45.45836" lon="4.24355">
        <ele>572.12</ele>
        <time>2021-06-13T09:43:54Z</time>
      </trkpt>
      <trkpt lat="45.45843" lon="4.24401">
        <ele>574.04</ele>
        <time>2021-06-13T09:44:15Z</time>
      </trkpt>
      <trkpt lat="45.45857" lon="4.24439">
        <ele>574.04</ele>
        <time>2021-06-13T09:44:35Z</time>
      </trkpt>
      <trkpt lat="45.45876" lon="4.2447">
        <ele>574.53</ele>
        <time>2021-06-13T09:44:52Z</time>
      </trkpt>
      <trkpt lat="45.45903" lon="4.24504">
        <ele>573.56</ele>
        <time>2021-06-13T09:45:13Z</time>
      </trkpt>
      <trkpt lat="45.45921" lon="4.2453">
        <ele>574.04</ele>
        <time>2021-06-13T09:45:29Z</time>
      </trkpt>
      <trkpt lat="45.45947" lon="4.24544">
        <ele>573.08</ele>
        <time>2021-06-13T09:45:47Z</time>
      </trkpt>
      <trkpt lat="45.45976" lon="4.2455">
        <ele>570.2</ele>
        <time>2021-06-13T09:46:06Z</time>
      </trkpt>
      <trkpt lat="45.46008" lon="4.2455">
        <ele>570.2</ele>
        <time>2021-06-13T09:46:22Z</time>
      </trkpt>
      <trkpt lat="45.46035" lon="4.24555">
        <ele>569.72</ele>
        <time>2021-06-13T09:46:35Z</time>
      </trkpt>
      <trkpt lat="45.46064" lon="4.24564">
        <ele>570.2</ele>
        <time>2021-06-13T09:46:49Z</time>
      </trkpt>
      <trkpt lat="45.46078" lon="4.24574">
        <ele>569.72</ele>
        <time>2021-06-13T09:46:58Z</time>
      </trkpt>
      <trkpt lat="45.46079" lon="4.24581">
        <ele>570.68</ele>
        <time>2021-06-13T09:47:02Z</time>
      </trkpt>
      <trkpt lat="45.46075" lon="4.24587">
        <ele>569.72</ele>
        <time>2021-06-13T09:47:15Z</time>
      </trkpt>
      <trkpt lat="45.46071" lon="4.24593">
        <ele>569.24</ele>
        <time>2021-06-13T09:47:30Z</time>
      </trkpt>
      <trkpt lat="45.4607" lon="4.24595">
        <ele>569.72</ele>
        <time>2021-06-13T09:47:45Z</time>
      </trkpt>
      <trkpt lat="45.46069" lon="4.24596">
        <ele>569.72</ele>
        <time>2021-06-13T09:48:05Z</time>
      </trkpt>
      <trkpt lat="45.46071" lon="4.24598">
        <ele>570.2</ele>
        <time>2021-06-13T09:48:22Z</time>
      </trkpt>
      <trkpt lat="45.46071" lon="4.24599">
        <ele>569.72</ele>
        <time>2021-06-13T09:48:41Z</time>
      </trkpt>
      <trkpt lat="45.4607" lon="4.24599">
        <ele>569.72</ele>
        <time>2021-06-13T09:48:56Z</time>
      </trkpt>
      <trkpt lat="45.4607" lon="4.24594">
        <ele>569.24</ele>
        <time>2021-06-13T09:49:13Z</time>
      </trkpt>
      <trkpt lat="45.46071" lon="4.24594">
        <ele>568.28</ele>
        <time>2021-06-13T09:49:29Z</time>
      </trkpt>
      <trkpt lat="45.46073" lon="4.24596">
        <ele>571.16</ele>
        <time>2021-06-13T09:49:47Z</time>
      </trkpt>
      <trkpt lat="45.46071" lon="4.24596">
        <ele>570.68</ele>
        <time>2021-06-13T09:50:00Z</time>
      </trkpt>
      <trkpt lat="45.46072" lon="4.24595">
        <ele>570.2</ele>
        <time>2021-06-13T09:50:13Z</time>
      </trkpt>
      <trkpt lat="45.46071" lon="4.24594">
        <ele>570.2</ele>
        <time>2021-06-13T09:50:28Z</time>
      </trkpt>
      <trkpt lat="45.46067" lon="4.24597">
        <ele>569.72</ele>
        <time>2021-06-13T09:50:44Z</time>
      </trkpt>
      <trkpt lat="45.46071" lon="4.24593">
        <ele>568.76</ele>
        <time>2021-06-13T09:51:06Z</time>
      </trkpt>
      <trkpt lat="45.46072" lon="4.24593">
        <ele>569.24</ele>
        <time>2021-06-13T09:51:35Z</time>
      </trkpt>
      <trkpt lat="45.46071" lon="4.24592">
        <ele>572.12</ele>
        <time>2021-06-13T09:52:01Z</time>
      </trkpt>
      <trkpt lat="45.46071" lon="4.24592">
        <ele>571.64</ele>
        <time>2021-06-13T09:52:23Z</time>
      </trkpt>
      <trkpt lat="45.46074" lon="4.24592">
        <ele>572.6</ele>
        <time>2021-06-13T09:52:45Z</time>
      </trkpt>
      <trkpt lat="45.46071" lon="4.24593">
        <ele>572.12</ele>
        <time>2021-06-13T09:52:59Z</time>
      </trkpt>
      <trkpt lat="45.4607" lon="4.24592">
        <ele>571.64</ele>
        <time>2021-06-13T09:53:24Z</time>
      </trkpt>
      <trkpt lat="45.46075" lon="4.24589">
        <ele>570.2</ele>
        <time>2021-06-13T09:53:39Z</time>
      </trkpt>
      <trkpt lat="45.46078" lon="4.24589">
        <ele>570.2</ele>
        <time>2021-06-13T09:54:05Z</time>
      </trkpt>
      <trkpt lat="45.46082" lon="4.2459">
        <ele>570.68</ele>
        <time>2021-06-13T09:54:24Z</time>
      </trkpt>
      <trkpt lat="45.4608" lon="4.24592">
        <ele>570.2</ele>
        <time>2021-06-13T09:54:43Z</time>
      </trkpt>
      <trkpt lat="45.46079" lon="4.24591">
        <ele>570.68</ele>
        <time>2021-06-13T09:55:01Z</time>
      </trkpt>
      <trkpt lat="45.4608" lon="4.24589">
        <ele>571.16</ele>
        <time>2021-06-13T09:55:26Z</time>
      </trkpt>
      <trkpt lat="45.46079" lon="4.24591">
        <ele>570.2</ele>
        <time>2021-06-13T09:55:54Z</time>
      </trkpt>
      <trkpt lat="45.4608" lon="4.24591">
        <ele>570.68</ele>
        <time>2021-06-13T09:56:16Z</time>
      </trkpt>
      <trkpt lat="45.4608" lon="4.24591">
        <ele>571.16</ele>
        <time>2021-06-13T09:56:36Z</time>
      </trkpt>
      <trkpt lat="45.46079" lon="4.24592">
        <ele>571.64</ele>
        <time>2021-06-13T09:56:50Z</time>
      </trkpt>
      <trkpt lat="45.46071" lon="4.24596">
        <ele>571.16</ele>
        <time>2021-06-13T09:57:04Z</time>
      </trkpt>
      <trkpt lat="45.4607" lon="4.24595">
        <ele>569.72</ele>
        <time>2021-06-13T09:57:24Z</time>
      </trkpt>
      <trkpt lat="45.46068" lon="4.24595">
        <ele>568.28</ele>
        <time>2021-06-13T09:57:38Z</time>
      </trkpt>
      <trkpt lat="45.46067" lon="4.24595">
        <ele>568.76</ele>
        <time>2021-06-13T09:57:57Z</time>
      </trkpt>
      <trkpt lat="45.46068" lon="4.24584">
        <ele>569.72</ele>
        <time>2021-06-13T09:58:09Z</time>
      </trkpt>
      <trkpt lat="45.46069" lon="4.24578">
        <ele>569.72</ele>
        <time>2021-06-13T09:58:24Z</time>
      </trkpt>
      <trkpt lat="45.46074" lon="4.24581">
        <ele>569.24</ele>
        <time>2021-06-13T09:58:37Z</time>
      </trkpt>
      <trkpt lat="45.46078" lon="4.24581">
        <ele>569.24</ele>
        <time>2021-06-13T09:58:55Z</time>
      </trkpt>
      <trkpt lat="45.46083" lon="4.24583">
        <ele>570.2</ele>
        <time>2021-06-13T09:59:11Z</time>
      </trkpt>
      <trkpt lat="45.46084" lon="4.24583">
        <ele>572.12</ele>
        <time>2021-06-13T09:59:31Z</time>
      </trkpt>
      <trkpt lat="45.46087" lon="4.24583">
        <ele>573.56</ele>
        <time>2021-06-13T10:00:02Z</time>
      </trkpt>
      <trkpt lat="45.46087" lon="4.24584">
        <ele>571.64</ele>
        <time>2021-06-13T10:00:25Z</time>
      </trkpt>
      <trkpt lat="45.46086" lon="4.24583">
        <ele>570.68</ele>
        <time>2021-06-13T10:00:51Z</time>
      </trkpt>
      <trkpt lat="45.46086" lon="4.24583">
        <ele>569.72</ele>
        <time>2021-06-13T10:01:19Z</time>
      </trkpt>
      <trkpt lat="45.46088" lon="4.24585">
        <ele>570.2</ele>
        <time>2021-06-13T10:01:52Z</time>
      </trkpt>
      <trkpt lat="45.46091" lon="4.24586">
        <ele>569.72</ele>
        <time>2021-06-13T10:02:19Z</time>
      </trkpt>
      <trkpt lat="45.4609" lon="4.24584">
        <ele>569.72</ele>
        <time>2021-06-13T10:02:37Z</time>
      </trkpt>
      <trkpt lat="45.46088" lon="4.24584">
        <ele>570.68</ele>
        <time>2021-06-13T10:02:56Z</time>
      </trkpt>
      <trkpt lat="45.46086" lon="4.24585">
        <ele>570.68</ele>
        <time>2021-06-13T10:03:27Z</time>
      </trkpt>
      <trkpt lat="45.46085" lon="4.24584">
        <ele>569.72</ele>
        <time>2021-06-13T10:03:51Z</time>
      </trkpt>
      <trkpt lat="45.46083" lon="4.24585">
        <ele>570.68</ele>
        <time>2021-06-13T10:04:16Z</time>
      </trkpt>
      <trkpt lat="45.46081" lon="4.24585">
        <ele>570.2</ele>
        <time>2021-06-13T10:04:45Z</time>
      </trkpt>
      <trkpt lat="45.46081" lon="4.24584">
        <ele>571.16</ele>
        <time>2021-06-13T10:05:13Z</time>
      </trkpt>
      <trkpt lat="45.46084" lon="4.24583">
        <ele>570.2</ele>
        <time>2021-06-13T10:05:37Z</time>
      </trkpt>
      <trkpt lat="45.46083" lon="4.24582">
        <ele>571.64</ele>
        <time>2021-06-13T10:06:04Z</time>
      </trkpt>
      <trkpt lat="45.46083" lon="4.24584">
        <ele>572.12</ele>
        <time>2021-06-13T10:06:29Z</time>
      </trkpt>
      <trkpt lat="45.46083" lon="4.24582">
        <ele>571.16</ele>
        <time>2021-06-13T10:06:55Z</time>
      </trkpt>
      <trkpt lat="45.46083" lon="4.24583">
        <ele>571.64</ele>
        <time>2021-06-13T10:07:23Z</time>
      </trkpt>
      <trkpt lat="45.46083" lon="4.24583">
        <ele>571.64</ele>
        <time>2021-06-13T10:07:41Z</time>
      </trkpt>
      <trkpt lat="45.46083" lon="4.24583">
        <ele>570.68</ele>
        <time>2021-06-13T10:08:03Z</time>
      </trkpt>
      <trkpt lat="45.46083" lon="4.24583">
        <ele>570.68</ele>
        <time>2021-06-13T10:08:19Z</time>
      </trkpt>
      <trkpt lat="45.46082" lon="4.24582">
        <ele>571.64</ele>
        <time>2021-06-13T10:08:35Z</time>
      </trkpt>
      <trkpt lat="45.46083" lon="4.24583">
        <ele>570.2</ele>
        <time>2021-06-13T10:09:03Z</time>
      </trkpt>
      <trkpt lat="45.46083" lon="4.24584">
        <ele>570.2</ele>
        <time>2021-06-13T10:09:25Z</time>
      </trkpt>
      <trkpt lat="45.46082" lon="4.24584">
        <ele>570.2</ele>
        <time>2021-06-13T10:09:29Z</time>
      </trkpt>
      <trkpt lat="45.4607" lon="4.24593">
        <ele>569.24</ele>
        <time>2021-06-13T10:09:44Z</time>
      </trkpt>
      <trkpt lat="45.46069" lon="4.24595">
        <ele>569.24</ele>
        <time>2021-06-13T10:09:57Z</time>
      </trkpt>
      <trkpt lat="45.46067" lon="4.24593">
        <ele>570.2</ele>
        <time>2021-06-13T10:10:05Z</time>
      </trkpt>
      <trkpt lat="45.4607" lon="4.24589">
        <ele>569.72</ele>
        <time>2021-06-13T10:10:14Z</time>
      </trkpt>
      <trkpt lat="45.46084" lon="4.24582">
        <ele>569.72</ele>
        <time>2021-06-13T10:10:27Z</time>
      </trkpt>
      <trkpt lat="45.46089" lon="4.24578">
        <ele>569.24</ele>
        <time>2021-06-13T10:10:42Z</time>
      </trkpt>
      <trkpt lat="45.46096" lon="4.24579">
        <ele>569.72</ele>
        <time>2021-06-13T10:10:56Z</time>
      </trkpt>
      <trkpt lat="45.46096" lon="4.24581">
        <ele>569.24</ele>
        <time>2021-06-13T10:11:17Z</time>
      </trkpt>
      <trkpt lat="45.46092" lon="4.24584">
        <ele>569.72</ele>
        <time>2021-06-13T10:11:24Z</time>
      </trkpt>
      <trkpt lat="45.46085" lon="4.24586">
        <ele>570.2</ele>
        <time>2021-06-13T10:11:38Z</time>
      </trkpt>
      <trkpt lat="45.46085" lon="4.24587">
        <ele>571.64</ele>
        <time>2021-06-13T10:11:56Z</time>
      </trkpt>
      <trkpt lat="45.46084" lon="4.24586">
        <ele>572.12</ele>
        <time>2021-06-13T10:12:34Z</time>
      </trkpt>
      <trkpt lat="45.46084" lon="4.24585">
        <ele>572.6</ele>
        <time>2021-06-13T10:12:47Z</time>
      </trkpt>
      <trkpt lat="45.46292" lon="4.23426">
        <ele>545.69</ele>
        <time>2021-06-13T12:14:46Z</time>
      </trkpt>
      <trkpt lat="45.46298" lon="4.23422">
        <ele>534.15</ele>
        <time>2021-06-13T12:14:51Z</time>
      </trkpt>
      <trkpt lat="45.46299" lon="4.23418">
        <ele>529.34</ele>
        <time>2021-06-13T12:14:54Z</time>
      </trkpt>
      <trkpt lat="45.46293" lon="4.23416">
        <ele>514.44</ele>
        <time>2021-06-13T12:15:03Z</time>
      </trkpt>
      <trkpt lat="45.46275" lon="4.23423">
        <ele>513.48</ele>
        <time>2021-06-13T12:15:16Z</time>
      </trkpt>
      <trkpt lat="45.46259" lon="4.23426">
        <ele>513.48</ele>
        <time>2021-06-13T12:15:27Z</time>
      </trkpt>
      <trkpt lat="45.46233" lon="4.23424">
        <ele>514.44</ele>
        <time>2021-06-13T12:15:44Z</time>
      </trkpt>
      <trkpt lat="45.46213" lon="4.23428">
        <ele>516.85</ele>
        <time>2021-06-13T12:15:57Z</time>
      </trkpt>
      <trkpt lat="45.46212" lon="4.23427">
        <ele>516.85</ele>
        <time>2021-06-13T12:15:58Z</time>
      </trkpt>
      <trkpt lat="45.46206" lon="4.2343">
        <ele>517.81</ele>
        <time>2021-06-13T12:16:02Z</time>
      </trkpt>
      <trkpt lat="45.4618" lon="4.23444">
        <ele>519.73</ele>
        <time>2021-06-13T12:16:17Z</time>
      </trkpt>
      <trkpt lat="45.46163" lon="4.23438">
        <ele>521.17</ele>
        <time>2021-06-13T12:16:30Z</time>
      </trkpt>
      <trkpt lat="45.46162" lon="4.23437">
        <ele>521.17</ele>
        <time>2021-06-13T12:16:31Z</time>
      </trkpt>
      <trkpt lat="45.46144" lon="4.2343">
        <ele>522.61</ele>
        <time>2021-06-13T12:16:43Z</time>
      </trkpt>
      <trkpt lat="45.46118" lon="4.23418">
        <ele>523.58</ele>
        <time>2021-06-13T12:16:59Z</time>
      </trkpt>
      <trkpt lat="45.46114" lon="4.23416">
        <ele>523.09</ele>
        <time>2021-06-13T12:17:01Z</time>
      </trkpt>
      <trkpt lat="45.46101" lon="4.23395">
        <ele>522.61</ele>
        <time>2021-06-13T12:17:14Z</time>
      </trkpt>
      <trkpt lat="45.46082" lon="4.2337">
        <ele>524.06</ele>
        <time>2021-06-13T12:17:27Z</time>
      </trkpt>
      <trkpt lat="45.46074" lon="4.23351">
        <ele>524.06</ele>
        <time>2021-06-13T12:17:36Z</time>
      </trkpt>
      <trkpt lat="45.46073" lon="4.23347">
        <ele>524.06</ele>
        <time>2021-06-13T12:17:38Z</time>
      </trkpt>
      <trkpt lat="45.46072" lon="4.23345">
        <ele>524.06</ele>
        <time>2021-06-13T12:17:39Z</time>
      </trkpt>
      <trkpt lat="45.46071" lon="4.23344">
        <ele>524.54</ele>
        <time>2021-06-13T12:17:40Z</time>
      </trkpt>
      <trkpt lat="45.46062" lon="4.23327">
        <ele>525.98</ele>
        <time>2021-06-13T12:17:51Z</time>
      </trkpt>
      <trkpt lat="45.46061" lon="4.23326">
        <ele>525.98</ele>
        <time>2021-06-13T12:17:52Z</time>
      </trkpt>
      <trkpt lat="45.4606" lon="4.23325">
        <ele>526.46</ele>
        <time>2021-06-13T12:17:53Z</time>
      </trkpt>
      <trkpt lat="45.46055" lon="4.23321">
        <ele>526.46</ele>
        <time>2021-06-13T12:17:57Z</time>
      </trkpt>
      <trkpt lat="45.46052" lon="4.23316">
        <ele>527.42</ele>
        <time>2021-06-13T12:18:01Z</time>
      </trkpt>
      <trkpt lat="45.46051" lon="4.23314">
        <ele>527.9</ele>
        <time>2021-06-13T12:18:02Z</time>
      </trkpt>
      <trkpt lat="45.4605" lon="4.23313">
        <ele>527.9</ele>
        <time>2021-06-13T12:18:03Z</time>
      </trkpt>
      <trkpt lat="45.46048" lon="4.23311">
        <ele>527.9</ele>
        <time>2021-06-13T12:18:04Z</time>
      </trkpt>
      <trkpt lat="45.46034" lon="4.2329">
        <ele>527.9</ele>
        <time>2021-06-13T12:18:17Z</time>
      </trkpt>
      <trkpt lat="45.46028" lon="4.23284">
        <ele>527.9</ele>
        <time>2021-06-13T12:18:21Z</time>
      </trkpt>
      <trkpt lat="45.46017" lon="4.23282">
        <ele>530.3</ele>
        <time>2021-06-13T12:18:29Z</time>
      </trkpt>
      <trkpt lat="45.46016" lon="4.23281">
        <ele>530.3</ele>
        <time>2021-06-13T12:18:30Z</time>
      </trkpt>
      <trkpt lat="45.46014" lon="4.2328">
        <ele>530.79</ele>
        <time>2021-06-13T12:18:31Z</time>
      </trkpt>
      <trkpt lat="45.46013" lon="4.23279">
        <ele>531.27</ele>
        <time>2021-06-13T12:18:32Z</time>
      </trkpt>
      <trkpt lat="45.46012" lon="4.23277">
        <ele>531.75</ele>
        <time>2021-06-13T12:18:33Z</time>
      </trkpt>
      <trkpt lat="45.46011" lon="4.23276">
        <ele>531.75</ele>
        <time>2021-06-13T12:18:34Z</time>
      </trkpt>
      <trkpt lat="45.4601" lon="4.23275">
        <ele>532.23</ele>
        <time>2021-06-13T12:18:35Z</time>
      </trkpt>
      <trkpt lat="45.46008" lon="4.23274">
        <ele>532.71</ele>
        <time>2021-06-13T12:18:36Z</time>
      </trkpt>
      <trkpt lat="45.46007" lon="4.23273">
        <ele>533.19</ele>
        <time>2021-06-13T12:18:37Z</time>
      </trkpt>
      <trkpt lat="45.46004" lon="4.23271">
        <ele>533.67</ele>
        <time>2021-06-13T12:18:39Z</time>
      </trkpt>
      <trkpt lat="45.46003" lon="4.23269">
        <ele>534.15</ele>
        <time>2021-06-13T12:18:40Z</time>
      </trkpt>
      <trkpt lat="45.45983" lon="4.23246">
        <ele>536.07</ele>
        <time>2021-06-13T12:18:56Z</time>
      </trkpt>
      <trkpt lat="45.45965" lon="4.23224">
        <ele>536.55</ele>
        <time>2021-06-13T12:19:08Z</time>
      </trkpt>
      <trkpt lat="45.45964" lon="4.23222">
        <ele>536.07</ele>
        <time>2021-06-13T12:19:09Z</time>
      </trkpt>
      <trkpt lat="45.45951" lon="4.23204">
        <ele>536.55</ele>
        <time>2021-06-13T12:19:22Z</time>
      </trkpt>
      <trkpt lat="45.45945" lon="4.23195">
        <ele>536.55</ele>
        <time>2021-06-13T12:19:28Z</time>
      </trkpt>
      <trkpt lat="45.45943" lon="4.23193">
        <ele>536.07</ele>
        <time>2021-06-13T12:19:29Z</time>
      </trkpt>
      <trkpt lat="45.45921" lon="4.2317">
        <ele>536.55</ele>
        <time>2021-06-13T12:19:43Z</time>
      </trkpt>
      <trkpt lat="45.45904" lon="4.23131">
        <ele>540.88</ele>
        <time>2021-06-13T12:19:58Z</time>
      </trkpt>
      <trkpt lat="45.4589" lon="4.23111">
        <ele>542.8</ele>
        <time>2021-06-13T12:20:09Z</time>
      </trkpt>
      <trkpt lat="45.45889" lon="4.23109">
        <ele>542.8</ele>
        <time>2021-06-13T12:20:10Z</time>
      </trkpt>
      <trkpt lat="45.45888" lon="4.23107">
        <ele>542.8</ele>
        <time>2021-06-13T12:20:11Z</time>
      </trkpt>
      <trkpt lat="45.45867" lon="4.23076">
        <ele>543.28</ele>
        <time>2021-06-13T12:20:25Z</time>
      </trkpt>
      <trkpt lat="45.45866" lon="4.23072">
        <ele>543.76</ele>
        <time>2021-06-13T12:20:26Z</time>
      </trkpt>
      <trkpt lat="45.45847" lon="4.23042">
        <ele>545.69</ele>
        <time>2021-06-13T12:20:39Z</time>
      </trkpt>
      <trkpt lat="45.4583" lon="4.2302">
        <ele>547.61</ele>
        <time>2021-06-13T12:20:52Z</time>
      </trkpt>
      <trkpt lat="45.45814" lon="4.23005">
        <ele>550.01</ele>
        <time>2021-06-13T12:21:04Z</time>
      </trkpt>
      <trkpt lat="45.45798" lon="4.2299">
        <ele>552.41</ele>
        <time>2021-06-13T12:21:18Z</time>
      </trkpt>
      <trkpt lat="45.45791" lon="4.22984">
        <ele>552.9</ele>
        <time>2021-06-13T12:21:23Z</time>
      </trkpt>
      <trkpt lat="45.45789" lon="4.22983">
        <ele>552.9</ele>
        <time>2021-06-13T12:21:24Z</time>
      </trkpt>
      <trkpt lat="45.45786" lon="4.22981">
        <ele>553.38</ele>
        <time>2021-06-13T12:21:26Z</time>
      </trkpt>
      <trkpt lat="45.45774" lon="4.22973">
        <ele>555.3</ele>
        <time>2021-06-13T12:21:39Z</time>
      </trkpt>
      <trkpt lat="45.45756" lon="4.22973">
        <ele>559.62</ele>
        <time>2021-06-13T12:21:50Z</time>
      </trkpt>
      <trkpt lat="45.4573" lon="4.22971">
        <ele>562.03</ele>
        <time>2021-06-13T12:22:02Z</time>
      </trkpt>
      <trkpt lat="45.45728" lon="4.22971">
        <ele>561.55</ele>
        <time>2021-06-13T12:22:03Z</time>
      </trkpt>
      <trkpt lat="45.45726" lon="4.2297">
        <ele>560.59</ele>
        <time>2021-06-13T12:22:04Z</time>
      </trkpt>
      <trkpt lat="45.45699" lon="4.22954">
        <ele>554.82</ele>
        <time>2021-06-13T12:22:20Z</time>
      </trkpt>
      <trkpt lat="45.45675" lon="4.22944">
        <ele>550.49</ele>
        <time>2021-06-13T12:22:34Z</time>
      </trkpt>
      <trkpt lat="45.45645" lon="4.22934">
        <ele>547.13</ele>
        <time>2021-06-13T12:22:52Z</time>
      </trkpt>
      <trkpt lat="45.45619" lon="4.22927">
        <ele>548.57</ele>
        <time>2021-06-13T12:23:09Z</time>
      </trkpt>
      <trkpt lat="45.45598" lon="4.22919">
        <ele>551.93</ele>
        <time>2021-06-13T12:23:22Z</time>
      </trkpt>
      <trkpt lat="45.45575" lon="4.22911">
        <ele>559.14</ele>
        <time>2021-06-13T12:23:37Z</time>
      </trkpt>
      <trkpt lat="45.45556" lon="4.22908">
        <ele>559.62</ele>
        <time>2021-06-13T12:23:47Z</time>
      </trkpt>
      <trkpt lat="45.45532" lon="4.22903">
        <ele>563.95</ele>
        <time>2021-06-13T12:24:02Z</time>
      </trkpt>
      <trkpt lat="45.45509" lon="4.229">
        <ele>568.76</ele>
        <time>2021-06-13T12:24:18Z</time>
      </trkpt>
      <trkpt lat="45.45491" lon="4.22902">
        <ele>573.08</ele>
        <time>2021-06-13T12:24:30Z</time>
      </trkpt>
      <trkpt lat="45.45472" lon="4.22903">
        <ele>576.93</ele>
        <time>2021-06-13T12:24:42Z</time>
      </trkpt>
      <trkpt lat="45.45446" lon="4.22902">
        <ele>581.73</ele>
        <time>2021-06-13T12:24:58Z</time>
      </trkpt>
      <trkpt lat="45.45445" lon="4.22903">
        <ele>581.73</ele>
        <time>2021-06-13T12:24:59Z</time>
      </trkpt>
      <trkpt lat="45.45422" lon="4.22912">
        <ele>584.62</ele>
        <time>2021-06-13T12:25:16Z</time>
      </trkpt>
      <trkpt lat="45.45402" lon="4.22922">
        <ele>587.02</ele>
        <time>2021-06-13T12:25:31Z</time>
      </trkpt>
      <trkpt lat="45.45378" lon="4.22934">
        <ele>587.5</ele>
        <time>2021-06-13T12:25:47Z</time>
      </trkpt>
      <trkpt lat="45.45349" lon="4.22944">
        <ele>588.95</ele>
        <time>2021-06-13T12:26:06Z</time>
      </trkpt>
      <trkpt lat="45.4533" lon="4.22953">
        <ele>591.83</ele>
        <time>2021-06-13T12:26:21Z</time>
      </trkpt>
      <trkpt lat="45.45329" lon="4.22952">
        <ele>591.83</ele>
        <time>2021-06-13T12:26:22Z</time>
      </trkpt>
      <trkpt lat="45.45328" lon="4.22951">
        <ele>591.83</ele>
        <time>2021-06-13T12:26:23Z</time>
      </trkpt>
      <trkpt lat="45.45327" lon="4.2295">
        <ele>591.83</ele>
        <time>2021-06-13T12:26:24Z</time>
      </trkpt>
      <trkpt lat="45.45327" lon="4.22949">
        <ele>591.83</ele>
        <time>2021-06-13T12:26:25Z</time>
      </trkpt>
      <trkpt lat="45.45326" lon="4.22947">
        <ele>592.31</ele>
        <time>2021-06-13T12:26:26Z</time>
      </trkpt>
      <trkpt lat="45.45326" lon="4.22945">
        <ele>592.31</ele>
        <time>2021-06-13T12:26:27Z</time>
      </trkpt>
      <trkpt lat="45.45326" lon="4.22942">
        <ele>592.31</ele>
        <time>2021-06-13T12:26:28Z</time>
      </trkpt>
      <trkpt lat="45.45326" lon="4.2294">
        <ele>592.31</ele>
        <time>2021-06-13T12:26:29Z</time>
      </trkpt>
      <trkpt lat="45.45335" lon="4.22907">
        <ele>593.27</ele>
        <time>2021-06-13T12:26:45Z</time>
      </trkpt>
      <trkpt lat="45.45333" lon="4.22883">
        <ele>593.75</ele>
        <time>2021-06-13T12:27:01Z</time>
      </trkpt>
      <trkpt lat="45.45333" lon="4.22856">
        <ele>592.79</ele>
        <time>2021-06-13T12:27:15Z</time>
      </trkpt>
      <trkpt lat="45.4534" lon="4.22822">
        <ele>592.31</ele>
        <time>2021-06-13T12:27:32Z</time>
      </trkpt>
      <trkpt lat="45.45329" lon="4.22794">
        <ele>592.31</ele>
        <time>2021-06-13T12:27:48Z</time>
      </trkpt>
      <trkpt lat="45.45318" lon="4.22758">
        <ele>591.83</ele>
        <time>2021-06-13T12:28:06Z</time>
      </trkpt>
      <trkpt lat="45.4531" lon="4.22729">
        <ele>589.91</ele>
        <time>2021-06-13T12:28:21Z</time>
      </trkpt>
      <trkpt lat="45.45308" lon="4.22697">
        <ele>589.91</ele>
        <time>2021-06-13T12:28:33Z</time>
      </trkpt>
      <trkpt lat="45.45306" lon="4.2267">
        <ele>587.5</ele>
        <time>2021-06-13T12:28:46Z</time>
      </trkpt>
      <trkpt lat="45.45309" lon="4.22638">
        <ele>586.06</ele>
        <time>2021-06-13T12:29:01Z</time>
      </trkpt>
      <trkpt lat="45.4532" lon="4.22603">
        <ele>587.5</ele>
        <time>2021-06-13T12:29:16Z</time>
      </trkpt>
      <trkpt lat="45.45323" lon="4.22596">
        <ele>587.5</ele>
        <time>2021-06-13T12:29:20Z</time>
      </trkpt>
      <trkpt lat="45.45324" lon="4.22594">
        <ele>587.98</ele>
        <time>2021-06-13T12:29:21Z</time>
      </trkpt>
      <trkpt lat="45.45325" lon="4.22591">
        <ele>587.98</ele>
        <time>2021-06-13T12:29:22Z</time>
      </trkpt>
      <trkpt lat="45.45325" lon="4.22589">
        <ele>587.98</ele>
        <time>2021-06-13T12:29:23Z</time>
      </trkpt>
      <trkpt lat="45.45325" lon="4.22587">
        <ele>588.46</ele>
        <time>2021-06-13T12:29:24Z</time>
      </trkpt>
      <trkpt lat="45.45326" lon="4.22585">
        <ele>588.46</ele>
        <time>2021-06-13T12:29:25Z</time>
      </trkpt>
      <trkpt lat="45.45327" lon="4.22583">
        <ele>588.46</ele>
        <time>2021-06-13T12:29:26Z</time>
      </trkpt>
      <trkpt lat="45.45327" lon="4.22581">
        <ele>588.95</ele>
        <time>2021-06-13T12:29:27Z</time>
      </trkpt>
      <trkpt lat="45.45332" lon="4.22568">
        <ele>592.31</ele>
        <time>2021-06-13T12:29:35Z</time>
      </trkpt>
      <trkpt lat="45.45332" lon="4.22566">
        <ele>593.27</ele>
        <time>2021-06-13T12:29:36Z</time>
      </trkpt>
      <trkpt lat="45.45333" lon="4.22565">
        <ele>593.75</ele>
        <time>2021-06-13T12:29:37Z</time>
      </trkpt>
      <trkpt lat="45.45334" lon="4.22562">
        <ele>593.75</ele>
        <time>2021-06-13T12:29:38Z</time>
      </trkpt>
      <trkpt lat="45.45335" lon="4.2256">
        <ele>593.75</ele>
        <time>2021-06-13T12:29:39Z</time>
      </trkpt>
      <trkpt lat="45.45336" lon="4.22558">
        <ele>593.75</ele>
        <time>2021-06-13T12:29:40Z</time>
      </trkpt>
      <trkpt lat="45.45337" lon="4.22556">
        <ele>594.23</ele>
        <time>2021-06-13T12:29:41Z</time>
      </trkpt>
      <trkpt lat="45.45351" lon="4.22529">
        <ele>595.67</ele>
        <time>2021-06-13T12:29:53Z</time>
      </trkpt>
      <trkpt lat="45.45362" lon="4.22509">
        <ele>600</ele>
        <time>2021-06-13T12:30:06Z</time>
      </trkpt>
      <trkpt lat="45.45371" lon="4.22481">
        <ele>597.6</ele>
        <time>2021-06-13T12:30:20Z</time>
      </trkpt>
      <trkpt lat="45.45381" lon="4.22455">
        <ele>594.23</ele>
        <time>2021-06-13T12:30:33Z</time>
      </trkpt>
      <trkpt lat="45.45402" lon="4.2242">
        <ele>591.83</ele>
        <time>2021-06-13T12:30:51Z</time>
      </trkpt>
      <trkpt lat="45.45424" lon="4.224">
        <ele>588.95</ele>
        <time>2021-06-13T12:31:05Z</time>
      </trkpt>
      <trkpt lat="45.45435" lon="4.22391">
        <ele>587.02</ele>
        <time>2021-06-13T12:31:13Z</time>
      </trkpt>
      <trkpt lat="45.45436" lon="4.22391">
        <ele>587.02</ele>
        <time>2021-06-13T12:31:14Z</time>
      </trkpt>
      <trkpt lat="45.45437" lon="4.2239">
        <ele>586.54</ele>
        <time>2021-06-13T12:31:15Z</time>
      </trkpt>
      <trkpt lat="45.45457" lon="4.22378">
        <ele>582.7</ele>
        <time>2021-06-13T12:31:28Z</time>
      </trkpt>
      <trkpt lat="45.45473" lon="4.22366">
        <ele>580.29</ele>
        <time>2021-06-13T12:31:40Z</time>
      </trkpt>
      <trkpt lat="45.45487" lon="4.22342">
        <ele>581.73</ele>
        <time>2021-06-13T12:31:56Z</time>
      </trkpt>
      <trkpt lat="45.45487" lon="4.22326">
        <ele>580.77</ele>
        <time>2021-06-13T12:32:05Z</time>
      </trkpt>
      <trkpt lat="45.45484" lon="4.2229">
        <ele>575.49</ele>
        <time>2021-06-13T12:32:22Z</time>
      </trkpt>
      <trkpt lat="45.45485" lon="4.22284">
        <ele>574.53</ele>
        <time>2021-06-13T12:32:25Z</time>
      </trkpt>
      <trkpt lat="45.45492" lon="4.2226">
        <ele>573.56</ele>
        <time>2021-06-13T12:32:37Z</time>
      </trkpt>
      <trkpt lat="45.45495" lon="4.22246">
        <ele>574.04</ele>
        <time>2021-06-13T12:32:45Z</time>
      </trkpt>
      <trkpt lat="45.45495" lon="4.22244">
        <ele>574.04</ele>
        <time>2021-06-13T12:32:46Z</time>
      </trkpt>
      <trkpt lat="45.45491" lon="4.2224">
        <ele>574.53</ele>
        <time>2021-06-13T12:32:49Z</time>
      </trkpt>
      <trkpt lat="45.4549" lon="4.2224">
        <ele>575.01</ele>
        <time>2021-06-13T12:32:50Z</time>
      </trkpt>
      <trkpt lat="45.45488" lon="4.2224">
        <ele>575.49</ele>
        <time>2021-06-13T12:32:51Z</time>
      </trkpt>
      <trkpt lat="45.45464" lon="4.22241">
        <ele>582.7</ele>
        <time>2021-06-13T12:33:04Z</time>
      </trkpt>
      <trkpt lat="45.45437" lon="4.22246">
        <ele>586.54</ele>
        <time>2021-06-13T12:33:23Z</time>
      </trkpt>
      <trkpt lat="45.45418" lon="4.2225">
        <ele>590.87</ele>
        <time>2021-06-13T12:33:36Z</time>
      </trkpt>
      <trkpt lat="45.45395" lon="4.22253">
        <ele>594.71</ele>
        <time>2021-06-13T12:33:51Z</time>
      </trkpt>
      <trkpt lat="45.45368" lon="4.2226">
        <ele>597.6</ele>
        <time>2021-06-13T12:34:10Z</time>
      </trkpt>
      <trkpt lat="45.45346" lon="4.22266">
        <ele>598.56</ele>
        <time>2021-06-13T12:34:25Z</time>
      </trkpt>
      <trkpt lat="45.4532" lon="4.2227">
        <ele>600.48</ele>
        <time>2021-06-13T12:34:42Z</time>
      </trkpt>
      <trkpt lat="45.45291" lon="4.22269">
        <ele>600</ele>
        <time>2021-06-13T12:35:00Z</time>
      </trkpt>
      <trkpt lat="45.45288" lon="4.22269">
        <ele>600</ele>
        <time>2021-06-13T12:35:02Z</time>
      </trkpt>
      <trkpt lat="45.45287" lon="4.22269">
        <ele>600</ele>
        <time>2021-06-13T12:35:03Z</time>
      </trkpt>
      <trkpt lat="45.45285" lon="4.22269">
        <ele>600</ele>
        <time>2021-06-13T12:35:04Z</time>
      </trkpt>
      <trkpt lat="45.45284" lon="4.22269">
        <ele>600</ele>
        <time>2021-06-13T12:35:05Z</time>
      </trkpt>
      <trkpt lat="45.45282" lon="4.22268">
        <ele>600</ele>
        <time>2021-06-13T12:35:06Z</time>
      </trkpt>
      <trkpt lat="45.4528" lon="4.22268">
        <ele>599.52</ele>
        <time>2021-06-13T12:35:07Z</time>
      </trkpt>
      <trkpt lat="45.45279" lon="4.22269">
        <ele>600</ele>
        <time>2021-06-13T12:35:08Z</time>
      </trkpt>
      <trkpt lat="45.45278" lon="4.22269">
        <ele>600.48</ele>
        <time>2021-06-13T12:35:09Z</time>
      </trkpt>
      <trkpt lat="45.45257" lon="4.2227">
        <ele>601.92</ele>
        <time>2021-06-13T12:35:23Z</time>
      </trkpt>
      <trkpt lat="45.4524" lon="4.22271">
        <ele>603.85</ele>
        <time>2021-06-13T12:35:33Z</time>
      </trkpt>
      <trkpt lat="45.45239" lon="4.2227">
        <ele>603.36</ele>
        <time>2021-06-13T12:35:34Z</time>
      </trkpt>
      <trkpt lat="45.45237" lon="4.2227">
        <ele>603.36</ele>
        <time>2021-06-13T12:35:35Z</time>
      </trkpt>
      <trkpt lat="45.45216" lon="4.22275">
        <ele>606.73</ele>
        <time>2021-06-13T12:35:48Z</time>
      </trkpt>
      <trkpt lat="45.45208" lon="4.22277">
        <ele>608.65</ele>
        <time>2021-06-13T12:35:54Z</time>
      </trkpt>
      <trkpt lat="45.452" lon="4.22281">
        <ele>612.98</ele>
        <time>2021-06-13T12:36:01Z</time>
      </trkpt>
      <trkpt lat="45.45185" lon="4.2228">
        <ele>612.5</ele>
        <time>2021-06-13T12:36:10Z</time>
      </trkpt>
      <trkpt lat="45.45184" lon="4.2228">
        <ele>612.98</ele>
        <time>2021-06-13T12:36:11Z</time>
      </trkpt>
      <trkpt lat="45.45182" lon="4.22279">
        <ele>613.46</ele>
        <time>2021-06-13T12:36:12Z</time>
      </trkpt>
      <trkpt lat="45.45179" lon="4.22278">
        <ele>613.46</ele>
        <time>2021-06-13T12:36:14Z</time>
      </trkpt>
      <trkpt lat="45.45175" lon="4.22275">
        <ele>614.42</ele>
        <time>2021-06-13T12:36:17Z</time>
      </trkpt>
      <trkpt lat="45.45174" lon="4.22274">
        <ele>614.42</ele>
        <time>2021-06-13T12:36:18Z</time>
      </trkpt>
      <trkpt lat="45.45165" lon="4.22268">
        <ele>615.38</ele>
        <time>2021-06-13T12:36:24Z</time>
      </trkpt>
      <trkpt lat="45.45164" lon="4.22267">
        <ele>615.86</ele>
        <time>2021-06-13T12:36:25Z</time>
      </trkpt>
      <trkpt lat="45.4516" lon="4.22263">
        <ele>616.34</ele>
        <time>2021-06-13T12:36:28Z</time>
      </trkpt>
      <trkpt lat="45.45159" lon="4.22261">
        <ele>616.34</ele>
        <time>2021-06-13T12:36:29Z</time>
      </trkpt>
      <trkpt lat="45.45157" lon="4.22259">
        <ele>616.82</ele>
        <time>2021-06-13T12:36:30Z</time>
      </trkpt>
      <trkpt lat="45.45137" lon="4.22253">
        <ele>620.67</ele>
        <time>2021-06-13T12:36:44Z</time>
      </trkpt>
      <trkpt lat="45.45136" lon="4.22252">
        <ele>621.15</ele>
        <time>2021-06-13T12:36:45Z</time>
      </trkpt>
      <trkpt lat="45.45134" lon="4.2225">
        <ele>621.63</ele>
        <time>2021-06-13T12:36:47Z</time>
      </trkpt>
      <trkpt lat="45.45129" lon="4.22246">
        <ele>622.59</ele>
        <time>2021-06-13T12:36:51Z</time>
      </trkpt>
      <trkpt lat="45.45127" lon="4.22245">
        <ele>622.59</ele>
        <time>2021-06-13T12:36:52Z</time>
      </trkpt>
      <trkpt lat="45.45106" lon="4.22231">
        <ele>624.51</ele>
        <time>2021-06-13T12:37:07Z</time>
      </trkpt>
      <trkpt lat="45.45087" lon="4.22216">
        <ele>627.4</ele>
        <time>2021-06-13T12:37:22Z</time>
      </trkpt>
      <trkpt lat="45.45084" lon="4.22212">
        <ele>627.88</ele>
        <time>2021-06-13T12:37:25Z</time>
      </trkpt>
      <trkpt lat="45.45084" lon="4.2221">
        <ele>628.36</ele>
        <time>2021-06-13T12:37:26Z</time>
      </trkpt>
      <trkpt lat="45.45083" lon="4.22208">
        <ele>628.36</ele>
        <time>2021-06-13T12:37:27Z</time>
      </trkpt>
      <trkpt lat="45.45062" lon="4.22189">
        <ele>628.84</ele>
        <time>2021-06-13T12:37:42Z</time>
      </trkpt>
      <trkpt lat="45.45057" lon="4.22182">
        <ele>629.8</ele>
        <time>2021-06-13T12:37:46Z</time>
      </trkpt>
      <trkpt lat="45.45044" lon="4.22167">
        <ele>634.61</ele>
        <time>2021-06-13T12:37:59Z</time>
      </trkpt>
      <trkpt lat="45.45041" lon="4.22163">
        <ele>635.57</ele>
        <time>2021-06-13T12:38:03Z</time>
      </trkpt>
      <trkpt lat="45.45026" lon="4.22151">
        <ele>640.86</ele>
        <time>2021-06-13T12:38:17Z</time>
      </trkpt>
      <trkpt lat="45.45013" lon="4.22141">
        <ele>644.7</ele>
        <time>2021-06-13T12:38:27Z</time>
      </trkpt>
      <trkpt lat="45.4501" lon="4.2214">
        <ele>645.66</ele>
        <time>2021-06-13T12:38:30Z</time>
      </trkpt>
      <trkpt lat="45.44999" lon="4.22139">
        <ele>649.51</ele>
        <time>2021-06-13T12:38:43Z</time>
      </trkpt>
      <trkpt lat="45.44984" lon="4.22148">
        <ele>653.35</ele>
        <time>2021-06-13T12:38:55Z</time>
      </trkpt>
      <trkpt lat="45.44962" lon="4.22146">
        <ele>651.91</ele>
        <time>2021-06-13T12:39:10Z</time>
      </trkpt>
      <trkpt lat="45.44954" lon="4.22144">
        <ele>650.47</ele>
        <time>2021-06-13T12:39:14Z</time>
      </trkpt>
      <trkpt lat="45.44931" lon="4.22148">
        <ele>652.39</ele>
        <time>2021-06-13T12:39:29Z</time>
      </trkpt>
      <trkpt lat="45.44917" lon="4.22148">
        <ele>654.31</ele>
        <time>2021-06-13T12:39:40Z</time>
      </trkpt>
      <trkpt lat="45.44905" lon="4.22145">
        <ele>656.72</ele>
        <time>2021-06-13T12:39:50Z</time>
      </trkpt>
      <trkpt lat="45.44895" lon="4.22148">
        <ele>661.04</ele>
        <time>2021-06-13T12:40:00Z</time>
      </trkpt>
      <trkpt lat="45.44887" lon="4.22148">
        <ele>662.97</ele>
        <time>2021-06-13T12:40:05Z</time>
      </trkpt>
      <trkpt lat="45.44868" lon="4.22151">
        <ele>662.49</ele>
        <time>2021-06-13T12:40:15Z</time>
      </trkpt>
      <trkpt lat="45.44853" lon="4.22146">
        <ele>665.37</ele>
        <time>2021-06-13T12:40:26Z</time>
      </trkpt>
      <trkpt lat="45.44837" lon="4.22136">
        <ele>666.81</ele>
        <time>2021-06-13T12:40:37Z</time>
      </trkpt>
      <trkpt lat="45.44818" lon="4.22128">
        <ele>669.22</ele>
        <time>2021-06-13T12:40:50Z</time>
      </trkpt>
      <trkpt lat="45.44811" lon="4.22127">
        <ele>670.66</ele>
        <time>2021-06-13T12:40:55Z</time>
      </trkpt>
      <trkpt lat="45.44797" lon="4.22117">
        <ele>674.02</ele>
        <time>2021-06-13T12:41:03Z</time>
      </trkpt>
      <trkpt lat="45.44796" lon="4.22115">
        <ele>674.02</ele>
        <time>2021-06-13T12:41:04Z</time>
      </trkpt>
      <trkpt lat="45.44795" lon="4.22114">
        <ele>674.02</ele>
        <time>2021-06-13T12:41:05Z</time>
      </trkpt>
      <trkpt lat="45.44779" lon="4.22104">
        <ele>674.02</ele>
        <time>2021-06-13T12:41:16Z</time>
      </trkpt>
      <trkpt lat="45.44774" lon="4.221">
        <ele>672.58</ele>
        <time>2021-06-13T12:41:20Z</time>
      </trkpt>
      <trkpt lat="45.44773" lon="4.22098">
        <ele>672.1</ele>
        <time>2021-06-13T12:41:21Z</time>
      </trkpt>
      <trkpt lat="45.44771" lon="4.22097">
        <ele>672.1</ele>
        <time>2021-06-13T12:41:22Z</time>
      </trkpt>
      <trkpt lat="45.4477" lon="4.22095">
        <ele>672.1</ele>
        <time>2021-06-13T12:41:23Z</time>
      </trkpt>
      <trkpt lat="45.44768" lon="4.22095">
        <ele>672.1</ele>
        <time>2021-06-13T12:41:24Z</time>
      </trkpt>
      <trkpt lat="45.44767" lon="4.22095">
        <ele>672.1</ele>
        <time>2021-06-13T12:41:25Z</time>
      </trkpt>
      <trkpt lat="45.44765" lon="4.22095">
        <ele>672.1</ele>
        <time>2021-06-13T12:41:26Z</time>
      </trkpt>
      <trkpt lat="45.44753" lon="4.22075">
        <ele>674.02</ele>
        <time>2021-06-13T12:41:39Z</time>
      </trkpt>
      <trkpt lat="45.44743" lon="4.22063">
        <ele>675.94</ele>
        <time>2021-06-13T12:41:47Z</time>
      </trkpt>
      <trkpt lat="45.44742" lon="4.22061">
        <ele>676.42</ele>
        <time>2021-06-13T12:41:48Z</time>
      </trkpt>
      <trkpt lat="45.44741" lon="4.2206">
        <ele>676.42</ele>
        <time>2021-06-13T12:41:49Z</time>
      </trkpt>
      <trkpt lat="45.44739" lon="4.22059">
        <ele>676.91</ele>
        <time>2021-06-13T12:41:50Z</time>
      </trkpt>
      <trkpt lat="45.44737" lon="4.22058">
        <ele>676.91</ele>
        <time>2021-06-13T12:41:51Z</time>
      </trkpt>
      <trkpt lat="45.44736" lon="4.22057">
        <ele>677.39</ele>
        <time>2021-06-13T12:41:52Z</time>
      </trkpt>
      <trkpt lat="45.44735" lon="4.22055">
        <ele>677.39</ele>
        <time>2021-06-13T12:41:53Z</time>
      </trkpt>
      <trkpt lat="45.44734" lon="4.22054">
        <ele>677.87</ele>
        <time>2021-06-13T12:41:54Z</time>
      </trkpt>
      <trkpt lat="45.44732" lon="4.22053">
        <ele>677.87</ele>
        <time>2021-06-13T12:41:55Z</time>
      </trkpt>
      <trkpt lat="45.44731" lon="4.22052">
        <ele>677.87</ele>
        <time>2021-06-13T12:41:56Z</time>
      </trkpt>
      <trkpt lat="45.44714" lon="4.22045">
        <ele>679.79</ele>
        <time>2021-06-13T12:42:08Z</time>
      </trkpt>
      <trkpt lat="45.44695" lon="4.22034">
        <ele>678.35</ele>
        <time>2021-06-13T12:42:21Z</time>
      </trkpt>
      <trkpt lat="45.4469" lon="4.22032">
        <ele>677.39</ele>
        <time>2021-06-13T12:42:25Z</time>
      </trkpt>
      <trkpt lat="45.44686" lon="4.22027">
        <ele>677.87</ele>
        <time>2021-06-13T12:42:30Z</time>
      </trkpt>
      <trkpt lat="45.44685" lon="4.22027">
        <ele>678.35</ele>
        <time>2021-06-13T12:42:31Z</time>
      </trkpt>
      <trkpt lat="45.44684" lon="4.22027">
        <ele>678.83</ele>
        <time>2021-06-13T12:42:32Z</time>
      </trkpt>
      <trkpt lat="45.44683" lon="4.22026">
        <ele>678.83</ele>
        <time>2021-06-13T12:42:33Z</time>
      </trkpt>
      <trkpt lat="45.44682" lon="4.22025">
        <ele>679.31</ele>
        <time>2021-06-13T12:42:34Z</time>
      </trkpt>
      <trkpt lat="45.4467" lon="4.22018">
        <ele>681.23</ele>
        <time>2021-06-13T12:42:47Z</time>
      </trkpt>
      <trkpt lat="45.44664" lon="4.22016">
        <ele>682.67</ele>
        <time>2021-06-13T12:42:53Z</time>
      </trkpt>
      <trkpt lat="45.4465" lon="4.22015">
        <ele>681.71</ele>
        <time>2021-06-13T12:43:01Z</time>
      </trkpt>
      <trkpt lat="45.44649" lon="4.22014">
        <ele>681.71</ele>
        <time>2021-06-13T12:43:02Z</time>
      </trkpt>
      <trkpt lat="45.44626" lon="4.22001">
        <ele>680.27</ele>
        <time>2021-06-13T12:43:17Z</time>
      </trkpt>
      <trkpt lat="45.44605" lon="4.21993">
        <ele>680.27</ele>
        <time>2021-06-13T12:43:30Z</time>
      </trkpt>
      <trkpt lat="45.44579" lon="4.21992">
        <ele>678.83</ele>
        <time>2021-06-13T12:43:41Z</time>
      </trkpt>
      <trkpt lat="45.44567" lon="4.21987">
        <ele>680.27</ele>
        <time>2021-06-13T12:43:49Z</time>
      </trkpt>
      <trkpt lat="45.44566" lon="4.21986">
        <ele>680.27</ele>
        <time>2021-06-13T12:43:50Z</time>
      </trkpt>
      <trkpt lat="45.44565" lon="4.21986">
        <ele>680.27</ele>
        <time>2021-06-13T12:43:51Z</time>
      </trkpt>
      <trkpt lat="45.44563" lon="4.21984">
        <ele>680.27</ele>
        <time>2021-06-13T12:43:52Z</time>
      </trkpt>
      <trkpt lat="45.44561" lon="4.21983">
        <ele>680.27</ele>
        <time>2021-06-13T12:43:53Z</time>
      </trkpt>
      <trkpt lat="45.44558" lon="4.21982">
        <ele>680.27</ele>
        <time>2021-06-13T12:43:54Z</time>
      </trkpt>
      <trkpt lat="45.44539" lon="4.21974">
        <ele>680.27</ele>
        <time>2021-06-13T12:44:06Z</time>
      </trkpt>
      <trkpt lat="45.44538" lon="4.21973">
        <ele>680.27</ele>
        <time>2021-06-13T12:44:07Z</time>
      </trkpt>
      <trkpt lat="45.44518" lon="4.2196">
        <ele>681.71</ele>
        <time>2021-06-13T12:44:23Z</time>
      </trkpt>
      <trkpt lat="45.44513" lon="4.21956">
        <ele>683.15</ele>
        <time>2021-06-13T12:44:27Z</time>
      </trkpt>
      <trkpt lat="45.44496" lon="4.21941">
        <ele>687.48</ele>
        <time>2021-06-13T12:44:39Z</time>
      </trkpt>
      <trkpt lat="45.44493" lon="4.2194">
        <ele>688.44</ele>
        <time>2021-06-13T12:44:42Z</time>
      </trkpt>
      <trkpt lat="45.44492" lon="4.2194">
        <ele>688.44</ele>
        <time>2021-06-13T12:44:43Z</time>
      </trkpt>
      <trkpt lat="45.44487" lon="4.21941">
        <ele>689.88</ele>
        <time>2021-06-13T12:44:49Z</time>
      </trkpt>
      <trkpt lat="45.44486" lon="4.21943">
        <ele>690.36</ele>
        <time>2021-06-13T12:44:50Z</time>
      </trkpt>
      <trkpt lat="45.44485" lon="4.21944">
        <ele>690.36</ele>
        <time>2021-06-13T12:44:51Z</time>
      </trkpt>
      <trkpt lat="45.44484" lon="4.21944">
        <ele>690.36</ele>
        <time>2021-06-13T12:44:52Z</time>
      </trkpt>
      <trkpt lat="45.44484" lon="4.21944">
        <ele>689.88</ele>
        <time>2021-06-13T12:44:53Z</time>
      </trkpt>
      <trkpt lat="45.44472" lon="4.21953">
        <ele>690.36</ele>
        <time>2021-06-13T12:45:04Z</time>
      </trkpt>
      <trkpt lat="45.44471" lon="4.21953">
        <ele>690.36</ele>
        <time>2021-06-13T12:45:05Z</time>
      </trkpt>
      <trkpt lat="45.44462" lon="4.21953">
        <ele>691.81</ele>
        <time>2021-06-13T12:45:11Z</time>
      </trkpt>
      <trkpt lat="45.4446" lon="4.21953">
        <ele>691.81</ele>
        <time>2021-06-13T12:45:12Z</time>
      </trkpt>
      <trkpt lat="45.44459" lon="4.21952">
        <ele>691.81</ele>
        <time>2021-06-13T12:45:13Z</time>
      </trkpt>
      <trkpt lat="45.44458" lon="4.21952">
        <ele>692.29</ele>
        <time>2021-06-13T12:45:14Z</time>
      </trkpt>
      <trkpt lat="45.44456" lon="4.21951">
        <ele>692.29</ele>
        <time>2021-06-13T12:45:15Z</time>
      </trkpt>
      <trkpt lat="45.44454" lon="4.2195">
        <ele>691.81</ele>
        <time>2021-06-13T12:45:16Z</time>
      </trkpt>
      <trkpt lat="45.44452" lon="4.2195">
        <ele>691.33</ele>
        <time>2021-06-13T12:45:17Z</time>
      </trkpt>
      <trkpt lat="45.44441" lon="4.21946">
        <ele>691.33</ele>
        <time>2021-06-13T12:45:25Z</time>
      </trkpt>
      <trkpt lat="45.4444" lon="4.21944">
        <ele>691.33</ele>
        <time>2021-06-13T12:45:26Z</time>
      </trkpt>
      <trkpt lat="45.44438" lon="4.21944">
        <ele>690.84</ele>
        <time>2021-06-13T12:45:27Z</time>
      </trkpt>
      <trkpt lat="45.44417" lon="4.21935">
        <ele>689.4</ele>
        <time>2021-06-13T12:45:41Z</time>
      </trkpt>
      <trkpt lat="45.44416" lon="4.21933">
        <ele>688.92</ele>
        <time>2021-06-13T12:45:42Z</time>
      </trkpt>
      <trkpt lat="45.44415" lon="4.21931">
        <ele>688.44</ele>
        <time>2021-06-13T12:45:43Z</time>
      </trkpt>
      <trkpt lat="45.44395" lon="4.21918">
        <ele>685.08</ele>
        <time>2021-06-13T12:45:57Z</time>
      </trkpt>
      <trkpt lat="45.44392" lon="4.21918">
        <ele>685.08</ele>
        <time>2021-06-13T12:45:59Z</time>
      </trkpt>
      <trkpt lat="45.4439" lon="4.21919">
        <ele>685.08</ele>
        <time>2021-06-13T12:46:00Z</time>
      </trkpt>
      <trkpt lat="45.44389" lon="4.21919">
        <ele>685.08</ele>
        <time>2021-06-13T12:46:01Z</time>
      </trkpt>
      <trkpt lat="45.44387" lon="4.21919">
        <ele>685.56</ele>
        <time>2021-06-13T12:46:02Z</time>
      </trkpt>
      <trkpt lat="45.44386" lon="4.21919">
        <ele>686.04</ele>
        <time>2021-06-13T12:46:03Z</time>
      </trkpt>
      <trkpt lat="45.44384" lon="4.21919">
        <ele>686.04</ele>
        <time>2021-06-13T12:46:04Z</time>
      </trkpt>
      <trkpt lat="45.44383" lon="4.21919">
        <ele>686.52</ele>
        <time>2021-06-13T12:46:05Z</time>
      </trkpt>
      <trkpt lat="45.44381" lon="4.21917">
        <ele>686.52</ele>
        <time>2021-06-13T12:46:06Z</time>
      </trkpt>
      <trkpt lat="45.44379" lon="4.21917">
        <ele>686.52</ele>
        <time>2021-06-13T12:46:07Z</time>
      </trkpt>
      <trkpt lat="45.44377" lon="4.21916">
        <ele>686.04</ele>
        <time>2021-06-13T12:46:08Z</time>
      </trkpt>
      <trkpt lat="45.44376" lon="4.21915">
        <ele>686.04</ele>
        <time>2021-06-13T12:46:09Z</time>
      </trkpt>
      <trkpt lat="45.44375" lon="4.21913">
        <ele>685.56</ele>
        <time>2021-06-13T12:46:10Z</time>
      </trkpt>
      <trkpt lat="45.44373" lon="4.21912">
        <ele>685.56</ele>
        <time>2021-06-13T12:46:11Z</time>
      </trkpt>
      <trkpt lat="45.44372" lon="4.21911">
        <ele>686.04</ele>
        <time>2021-06-13T12:46:12Z</time>
      </trkpt>
      <trkpt lat="45.44371" lon="4.2191">
        <ele>686.04</ele>
        <time>2021-06-13T12:46:13Z</time>
      </trkpt>
      <trkpt lat="45.44354" lon="4.2189">
        <ele>687</ele>
        <time>2021-06-13T12:46:25Z</time>
      </trkpt>
      <trkpt lat="45.44348" lon="4.21882">
        <ele>687.96</ele>
        <time>2021-06-13T12:46:31Z</time>
      </trkpt>
      <trkpt lat="45.44344" lon="4.21871">
        <ele>687.48</ele>
        <time>2021-06-13T12:46:37Z</time>
      </trkpt>
      <trkpt lat="45.44334" lon="4.21856">
        <ele>688.92</ele>
        <time>2021-06-13T12:46:48Z</time>
      </trkpt>
      <trkpt lat="45.44333" lon="4.21853">
        <ele>688.92</ele>
        <time>2021-06-13T12:46:49Z</time>
      </trkpt>
      <trkpt lat="45.44332" lon="4.21852">
        <ele>688.92</ele>
        <time>2021-06-13T12:46:50Z</time>
      </trkpt>
      <trkpt lat="45.44331" lon="4.2185">
        <ele>688.92</ele>
        <time>2021-06-13T12:46:51Z</time>
      </trkpt>
      <trkpt lat="45.4433" lon="4.21849">
        <ele>689.4</ele>
        <time>2021-06-13T12:46:52Z</time>
      </trkpt>
      <trkpt lat="45.44329" lon="4.21847">
        <ele>690.36</ele>
        <time>2021-06-13T12:46:53Z</time>
      </trkpt>
      <trkpt lat="45.44328" lon="4.21846">
        <ele>690.84</ele>
        <time>2021-06-13T12:46:54Z</time>
      </trkpt>
      <trkpt lat="45.44328" lon="4.21844">
        <ele>691.33</ele>
        <time>2021-06-13T12:46:55Z</time>
      </trkpt>
      <trkpt lat="45.44326" lon="4.21841">
        <ele>692.29</ele>
        <time>2021-06-13T12:46:57Z</time>
      </trkpt>
      <trkpt lat="45.44325" lon="4.2184">
        <ele>692.77</ele>
        <time>2021-06-13T12:46:58Z</time>
      </trkpt>
      <trkpt lat="45.44324" lon="4.21839">
        <ele>693.25</ele>
        <time>2021-06-13T12:46:59Z</time>
      </trkpt>
      <trkpt lat="45.44321" lon="4.21836">
        <ele>693.73</ele>
        <time>2021-06-13T12:47:01Z</time>
      </trkpt>
      <trkpt lat="45.4431" lon="4.21809">
        <ele>693.25</ele>
        <time>2021-06-13T12:47:14Z</time>
      </trkpt>
      <trkpt lat="45.44301" lon="4.21782">
        <ele>692.77</ele>
        <time>2021-06-13T12:47:28Z</time>
      </trkpt>
      <trkpt lat="45.44298" lon="4.21763">
        <ele>694.21</ele>
        <time>2021-06-13T12:47:39Z</time>
      </trkpt>
      <trkpt lat="45.44298" lon="4.21761">
        <ele>694.21</ele>
        <time>2021-06-13T12:47:40Z</time>
      </trkpt>
      <trkpt lat="45.44295" lon="4.21754">
        <ele>696.13</ele>
        <time>2021-06-13T12:47:45Z</time>
      </trkpt>
      <trkpt lat="45.44291" lon="4.21732">
        <ele>698.53</ele>
        <time>2021-06-13T12:47:56Z</time>
      </trkpt>
      <trkpt lat="45.44289" lon="4.2173">
        <ele>699.02</ele>
        <time>2021-06-13T12:47:57Z</time>
      </trkpt>
      <trkpt lat="45.44284" lon="4.21722">
        <ele>699.98</ele>
        <time>2021-06-13T12:48:03Z</time>
      </trkpt>
      <trkpt lat="45.44283" lon="4.2172">
        <ele>700.46</ele>
        <time>2021-06-13T12:48:04Z</time>
      </trkpt>
      <trkpt lat="45.44269" lon="4.21697">
        <ele>702.86</ele>
        <time>2021-06-13T12:48:18Z</time>
      </trkpt>
      <trkpt lat="45.44259" lon="4.21678">
        <ele>702.38</ele>
        <time>2021-06-13T12:48:30Z</time>
      </trkpt>
      <trkpt lat="45.44249" lon="4.21656">
        <ele>702.86</ele>
        <time>2021-06-13T12:48:45Z</time>
      </trkpt>
      <trkpt lat="45.44247" lon="4.2165">
        <ele>703.34</ele>
        <time>2021-06-13T12:48:48Z</time>
      </trkpt>
      <trkpt lat="45.44243" lon="4.21644">
        <ele>704.3</ele>
        <time>2021-06-13T12:48:52Z</time>
      </trkpt>
      <trkpt lat="45.44243" lon="4.2164">
        <ele>704.3</ele>
        <time>2021-06-13T12:48:54Z</time>
      </trkpt>
      <trkpt lat="45.44234" lon="4.2163">
        <ele>704.78</ele>
        <time>2021-06-13T12:49:02Z</time>
      </trkpt>
      <trkpt lat="45.44233" lon="4.21629">
        <ele>704.78</ele>
        <time>2021-06-13T12:49:03Z</time>
      </trkpt>
      <trkpt lat="45.4422" lon="4.21614">
        <ele>704.78</ele>
        <time>2021-06-13T12:49:12Z</time>
      </trkpt>
      <trkpt lat="45.44219" lon="4.21613">
        <ele>704.3</ele>
        <time>2021-06-13T12:49:13Z</time>
      </trkpt>
      <trkpt lat="45.44213" lon="4.216">
        <ele>704.3</ele>
        <time>2021-06-13T12:49:21Z</time>
      </trkpt>
      <trkpt lat="45.442" lon="4.2158">
        <ele>703.82</ele>
        <time>2021-06-13T12:49:34Z</time>
      </trkpt>
      <trkpt lat="45.4418" lon="4.21559">
        <ele>702.86</ele>
        <time>2021-06-13T12:49:49Z</time>
      </trkpt>
      <trkpt lat="45.44172" lon="4.21526">
        <ele>699.5</ele>
        <time>2021-06-13T12:50:03Z</time>
      </trkpt>
      <trkpt lat="45.44162" lon="4.21491">
        <ele>697.09</ele>
        <time>2021-06-13T12:50:19Z</time>
      </trkpt>
      <trkpt lat="45.44154" lon="4.21466">
        <ele>697.09</ele>
        <time>2021-06-13T12:50:32Z</time>
      </trkpt>
      <trkpt lat="45.44142" lon="4.21443">
        <ele>696.13</ele>
        <time>2021-06-13T12:50:44Z</time>
      </trkpt>
      <trkpt lat="45.44141" lon="4.2144">
        <ele>696.13</ele>
        <time>2021-06-13T12:50:45Z</time>
      </trkpt>
      <trkpt lat="45.44124" lon="4.21409">
        <ele>694.69</ele>
        <time>2021-06-13T12:51:02Z</time>
      </trkpt>
      <trkpt lat="45.44109" lon="4.21387">
        <ele>694.21</ele>
        <time>2021-06-13T12:51:16Z</time>
      </trkpt>
      <trkpt lat="45.44097" lon="4.21364">
        <ele>694.21</ele>
        <time>2021-06-13T12:51:29Z</time>
      </trkpt>
      <trkpt lat="45.44086" lon="4.2134">
        <ele>693.25</ele>
        <time>2021-06-13T12:51:44Z</time>
      </trkpt>
      <trkpt lat="45.44085" lon="4.21339">
        <ele>692.77</ele>
        <time>2021-06-13T12:51:45Z</time>
      </trkpt>
      <trkpt lat="45.44056" lon="4.21326">
        <ele>690.36</ele>
        <time>2021-06-13T12:52:03Z</time>
      </trkpt>
      <trkpt lat="45.44055" lon="4.21324">
        <ele>689.88</ele>
        <time>2021-06-13T12:52:04Z</time>
      </trkpt>
      <trkpt lat="45.44054" lon="4.21322">
        <ele>689.88</ele>
        <time>2021-06-13T12:52:05Z</time>
      </trkpt>
      <trkpt lat="45.44041" lon="4.21312">
        <ele>689.88</ele>
        <time>2021-06-13T12:52:16Z</time>
      </trkpt>
      <trkpt lat="45.4404" lon="4.21311">
        <ele>689.4</ele>
        <time>2021-06-13T12:52:17Z</time>
      </trkpt>
      <trkpt lat="45.44039" lon="4.21309">
        <ele>689.4</ele>
        <time>2021-06-13T12:52:18Z</time>
      </trkpt>
      <trkpt lat="45.44039" lon="4.21308">
        <ele>688.92</ele>
        <time>2021-06-13T12:52:19Z</time>
      </trkpt>
      <trkpt lat="45.44038" lon="4.21306">
        <ele>688.92</ele>
        <time>2021-06-13T12:52:20Z</time>
      </trkpt>
      <trkpt lat="45.4401" lon="4.21276">
        <ele>689.88</ele>
        <time>2021-06-13T12:52:39Z</time>
      </trkpt>
      <trkpt lat="45.43993" lon="4.21243">
        <ele>692.29</ele>
        <time>2021-06-13T12:52:57Z</time>
      </trkpt>
      <trkpt lat="45.43983" lon="4.21229">
        <ele>692.77</ele>
        <time>2021-06-13T12:53:08Z</time>
      </trkpt>
      <trkpt lat="45.43966" lon="4.21217">
        <ele>693.25</ele>
        <time>2021-06-13T12:53:24Z</time>
      </trkpt>
      <trkpt lat="45.43951" lon="4.21206">
        <ele>690.84</ele>
        <time>2021-06-13T12:53:38Z</time>
      </trkpt>
      <trkpt lat="45.4393" lon="4.21191">
        <ele>687</ele>
        <time>2021-06-13T12:53:52Z</time>
      </trkpt>
      <trkpt lat="45.43909" lon="4.21188">
        <ele>679.31</ele>
        <time>2021-06-13T12:54:08Z</time>
      </trkpt>
      <trkpt lat="45.43897" lon="4.21168">
        <ele>673.06</ele>
        <time>2021-06-13T12:54:22Z</time>
      </trkpt>
      <trkpt lat="45.43887" lon="4.2117">
        <ele>669.7</ele>
        <time>2021-06-13T12:54:38Z</time>
      </trkpt>
      <trkpt lat="45.43889" lon="4.21172">
        <ele>672.1</ele>
        <time>2021-06-13T12:55:03Z</time>
      </trkpt>
      <trkpt lat="45.43894" lon="4.21174">
        <ele>681.23</ele>
        <time>2021-06-13T12:55:28Z</time>
      </trkpt>
      <trkpt lat="45.4389" lon="4.21175">
        <ele>680.27</ele>
        <time>2021-06-13T12:55:46Z</time>
      </trkpt>
      <trkpt lat="45.43883" lon="4.21177">
        <ele>677.39</ele>
        <time>2021-06-13T12:56:01Z</time>
      </trkpt>
      <trkpt lat="45.43883" lon="4.21184">
        <ele>679.79</ele>
        <time>2021-06-13T12:56:25Z</time>
      </trkpt>
      <trkpt lat="45.43882" lon="4.21176">
        <ele>684.6</ele>
        <time>2021-06-13T12:56:51Z</time>
      </trkpt>
      <trkpt lat="45.43886" lon="4.21157">
        <ele>679.79</ele>
        <time>2021-06-13T12:57:14Z</time>
      </trkpt>
      <trkpt lat="45.43888" lon="4.2116">
        <ele>679.79</ele>
        <time>2021-06-13T12:57:32Z</time>
      </trkpt>
      <trkpt lat="45.43886" lon="4.21151">
        <ele>678.83</ele>
        <time>2021-06-13T12:57:48Z</time>
      </trkpt>
      <trkpt lat="45.43885" lon="4.21149">
        <ele>676.42</ele>
        <time>2021-06-13T12:58:05Z</time>
      </trkpt>
      <trkpt lat="45.43885" lon="4.21147">
        <ele>676.42</ele>
        <time>2021-06-13T12:58:06Z</time>
      </trkpt>
      <trkpt lat="45.43879" lon="4.21105">
        <ele>673.06</ele>
        <time>2021-06-13T12:58:22Z</time>
      </trkpt>
      <trkpt lat="45.43872" lon="4.21066">
        <ele>674.02</ele>
        <time>2021-06-13T12:58:38Z</time>
      </trkpt>
      <trkpt lat="45.43873" lon="4.21018">
        <ele>676.91</ele>
        <time>2021-06-13T12:58:57Z</time>
      </trkpt>
      <trkpt lat="45.4387" lon="4.20979">
        <ele>679.79</ele>
        <time>2021-06-13T12:59:16Z</time>
      </trkpt>
      <trkpt lat="45.43872" lon="4.2093">
        <ele>683.15</ele>
        <time>2021-06-13T12:59:36Z</time>
      </trkpt>
      <trkpt lat="45.43865" lon="4.20911">
        <ele>679.79</ele>
        <time>2021-06-13T12:59:52Z</time>
      </trkpt>
      <trkpt lat="45.43862" lon="4.20869">
        <ele>682.67</ele>
        <time>2021-06-13T13:00:09Z</time>
      </trkpt>
      <trkpt lat="45.4385" lon="4.20818">
        <ele>682.67</ele>
        <time>2021-06-13T13:00:24Z</time>
      </trkpt>
      <trkpt lat="45.43845" lon="4.20806">
        <ele>683.15</ele>
        <time>2021-06-13T13:00:26Z</time>
      </trkpt>
      <trkpt lat="45.43833" lon="4.20758">
        <ele>686.04</ele>
        <time>2021-06-13T13:00:33Z</time>
      </trkpt>
      <trkpt lat="45.43831" lon="4.20752">
        <ele>686.52</ele>
        <time>2021-06-13T13:00:34Z</time>
      </trkpt>
      <trkpt lat="45.43827" lon="4.20747">
        <ele>687</ele>
        <time>2021-06-13T13:00:35Z</time>
      </trkpt>
      <trkpt lat="45.43823" lon="4.20744">
        <ele>687.48</ele>
        <time>2021-06-13T13:00:36Z</time>
      </trkpt>
      <trkpt lat="45.43818" lon="4.20742">
        <ele>687.96</ele>
        <time>2021-06-13T13:00:37Z</time>
      </trkpt>
      <trkpt lat="45.43815" lon="4.20742">
        <ele>687.96</ele>
        <time>2021-06-13T13:00:38Z</time>
      </trkpt>
      <trkpt lat="45.4381" lon="4.20743">
        <ele>688.44</ele>
        <time>2021-06-13T13:00:39Z</time>
      </trkpt>
      <trkpt lat="45.43781" lon="4.20744">
        <ele>696.61</ele>
        <time>2021-06-13T13:00:52Z</time>
      </trkpt>
      <trkpt lat="45.43779" lon="4.20743">
        <ele>697.09</ele>
        <time>2021-06-13T13:00:53Z</time>
      </trkpt>
      <trkpt lat="45.4375" lon="4.20718">
        <ele>702.86</ele>
        <time>2021-06-13T13:01:14Z</time>
      </trkpt>
      <trkpt lat="45.43728" lon="4.20675">
        <ele>705.26</ele>
        <time>2021-06-13T13:01:34Z</time>
      </trkpt>
      <trkpt lat="45.43698" lon="4.20651">
        <ele>707.19</ele>
        <time>2021-06-13T13:01:43Z</time>
      </trkpt>
      <trkpt lat="45.43695" lon="4.20647">
        <ele>707.19</ele>
        <time>2021-06-13T13:01:44Z</time>
      </trkpt>
      <trkpt lat="45.43658" lon="4.20596">
        <ele>711.99</ele>
        <time>2021-06-13T13:01:54Z</time>
      </trkpt>
      <trkpt lat="45.43618" lon="4.20541">
        <ele>719.68</ele>
        <time>2021-06-13T13:02:06Z</time>
      </trkpt>
      <trkpt lat="45.43593" lon="4.20507">
        <ele>728.82</ele>
        <time>2021-06-13T13:02:19Z</time>
      </trkpt>
      <trkpt lat="45.43552" lon="4.20461">
        <ele>735.07</ele>
        <time>2021-06-13T13:02:32Z</time>
      </trkpt>
      <trkpt lat="45.43544" lon="4.20451">
        <ele>736.51</ele>
        <time>2021-06-13T13:02:34Z</time>
      </trkpt>
      <trkpt lat="45.43541" lon="4.20443">
        <ele>736.51</ele>
        <time>2021-06-13T13:02:35Z</time>
      </trkpt>
      <trkpt lat="45.43539" lon="4.20433">
        <ele>736.51</ele>
        <time>2021-06-13T13:02:36Z</time>
      </trkpt>
      <trkpt lat="45.43539" lon="4.20365">
        <ele>731.7</ele>
        <time>2021-06-13T13:02:47Z</time>
      </trkpt>
      <trkpt lat="45.43551" lon="4.20326">
        <ele>730.74</ele>
        <time>2021-06-13T13:03:04Z</time>
      </trkpt>
      <trkpt lat="45.43555" lon="4.20297">
        <ele>728.34</ele>
        <time>2021-06-13T13:03:20Z</time>
      </trkpt>
      <trkpt lat="45.43551" lon="4.2026">
        <ele>721.61</ele>
        <time>2021-06-13T13:03:39Z</time>
      </trkpt>
      <trkpt lat="45.43553" lon="4.20224">
        <ele>716.32</ele>
        <time>2021-06-13T13:03:56Z</time>
      </trkpt>
      <trkpt lat="45.43551" lon="4.20195">
        <ele>708.63</ele>
        <time>2021-06-13T13:04:14Z</time>
      </trkpt>
      <trkpt lat="45.43552" lon="4.20154">
        <ele>707.67</ele>
        <time>2021-06-13T13:04:30Z</time>
      </trkpt>
      <trkpt lat="45.4355" lon="4.20109">
        <ele>711.03</ele>
        <time>2021-06-13T13:04:49Z</time>
      </trkpt>
      <trkpt lat="45.4355" lon="4.20091">
        <ele>713.92</ele>
        <time>2021-06-13T13:04:57Z</time>
      </trkpt>
      <trkpt lat="45.43558" lon="4.2005">
        <ele>712.47</ele>
        <time>2021-06-13T13:05:11Z</time>
      </trkpt>
      <trkpt lat="45.43555" lon="4.20025">
        <ele>709.11</ele>
        <time>2021-06-13T13:05:23Z</time>
      </trkpt>
      <trkpt lat="45.43555" lon="4.20022">
        <ele>709.11</ele>
        <time>2021-06-13T13:05:24Z</time>
      </trkpt>
      <trkpt lat="45.4357" lon="4.19977">
        <ele>707.67</ele>
        <time>2021-06-13T13:05:43Z</time>
      </trkpt>
      <trkpt lat="45.43579" lon="4.19938">
        <ele>703.34</ele>
        <time>2021-06-13T13:06:04Z</time>
      </trkpt>
      <trkpt lat="45.43579" lon="4.1991">
        <ele>707.67</ele>
        <time>2021-06-13T13:06:18Z</time>
      </trkpt>
      <trkpt lat="45.43587" lon="4.19878">
        <ele>703.82</ele>
        <time>2021-06-13T13:06:34Z</time>
      </trkpt>
      <trkpt lat="45.43593" lon="4.19838">
        <ele>704.3</ele>
        <time>2021-06-13T13:06:52Z</time>
      </trkpt>
      <trkpt lat="45.43587" lon="4.1981">
        <ele>707.19</ele>
        <time>2021-06-13T13:07:03Z</time>
      </trkpt>
      <trkpt lat="45.4357" lon="4.19787">
        <ele>709.59</ele>
        <time>2021-06-13T13:07:18Z</time>
      </trkpt>
      <trkpt lat="45.43544" lon="4.19765">
        <ele>712.47</ele>
        <time>2021-06-13T13:07:35Z</time>
      </trkpt>
      <trkpt lat="45.43539" lon="4.19752">
        <ele>712.47</ele>
        <time>2021-06-13T13:07:41Z</time>
      </trkpt>
      <trkpt lat="45.43534" lon="4.19713">
        <ele>710.55</ele>
        <time>2021-06-13T13:07:55Z</time>
      </trkpt>
      <trkpt lat="45.43533" lon="4.19685">
        <ele>709.59</ele>
        <time>2021-06-13T13:08:07Z</time>
      </trkpt>
      <trkpt lat="45.43534" lon="4.19683">
        <ele>710.07</ele>
        <time>2021-06-13T13:08:08Z</time>
      </trkpt>
      <trkpt lat="45.43543" lon="4.19639">
        <ele>708.63</ele>
        <time>2021-06-13T13:08:26Z</time>
      </trkpt>
      <trkpt lat="45.43557" lon="4.19603">
        <ele>706.71</ele>
        <time>2021-06-13T13:08:44Z</time>
      </trkpt>
      <trkpt lat="45.43575" lon="4.19575">
        <ele>711.99</ele>
        <time>2021-06-13T13:09:00Z</time>
      </trkpt>
      <trkpt lat="45.43579" lon="4.1957">
        <ele>713.44</ele>
        <time>2021-06-13T13:09:04Z</time>
      </trkpt>
      <trkpt lat="45.4358" lon="4.19568">
        <ele>713.44</ele>
        <time>2021-06-13T13:09:05Z</time>
      </trkpt>
      <trkpt lat="45.43582" lon="4.19566">
        <ele>713.92</ele>
        <time>2021-06-13T13:09:06Z</time>
      </trkpt>
      <trkpt lat="45.43593" lon="4.19541">
        <ele>711.99</ele>
        <time>2021-06-13T13:09:21Z</time>
      </trkpt>
      <trkpt lat="45.43609" lon="4.19523">
        <ele>711.03</ele>
        <time>2021-06-13T13:09:37Z</time>
      </trkpt>
      <trkpt lat="45.4361" lon="4.19503">
        <ele>710.55</ele>
        <time>2021-06-13T13:09:46Z</time>
      </trkpt>
      <trkpt lat="45.4361" lon="4.195">
        <ele>710.55</ele>
        <time>2021-06-13T13:09:47Z</time>
      </trkpt>
      <trkpt lat="45.43608" lon="4.19475">
        <ele>705.26</ele>
        <time>2021-06-13T13:10:01Z</time>
      </trkpt>
      <trkpt lat="45.43608" lon="4.19454">
        <ele>699.02</ele>
        <time>2021-06-13T13:10:18Z</time>
      </trkpt>
      <trkpt lat="45.43607" lon="4.19424">
        <ele>693.25</ele>
        <time>2021-06-13T13:10:34Z</time>
      </trkpt>
      <trkpt lat="45.43607" lon="4.19403">
        <ele>690.84</ele>
        <time>2021-06-13T13:10:50Z</time>
      </trkpt>
      <trkpt lat="45.43613" lon="4.19365">
        <ele>687.96</ele>
        <time>2021-06-13T13:11:09Z</time>
      </trkpt>
      <trkpt lat="45.43614" lon="4.19351">
        <ele>685.56</ele>
        <time>2021-06-13T13:11:28Z</time>
      </trkpt>
      <trkpt lat="45.43612" lon="4.19333">
        <ele>685.56</ele>
        <time>2021-06-13T13:11:44Z</time>
      </trkpt>
      <trkpt lat="45.43608" lon="4.19314">
        <ele>683.63</ele>
        <time>2021-06-13T13:11:58Z</time>
      </trkpt>
      <trkpt lat="45.43597" lon="4.19294">
        <ele>680.75</ele>
        <time>2021-06-13T13:12:15Z</time>
      </trkpt>
      <trkpt lat="45.43588" lon="4.19263">
        <ele>678.35</ele>
        <time>2021-06-13T13:12:30Z</time>
      </trkpt>
      <trkpt lat="45.43575" lon="4.1924">
        <ele>674.02</ele>
        <time>2021-06-13T13:12:46Z</time>
      </trkpt>
      <trkpt lat="45.43556" lon="4.19249">
        <ele>672.1</ele>
        <time>2021-06-13T13:13:04Z</time>
      </trkpt>
      <trkpt lat="45.43552" lon="4.19254">
        <ele>672.1</ele>
        <time>2021-06-13T13:13:34Z</time>
      </trkpt>
      <trkpt lat="45.43541" lon="4.19242">
        <ele>676.42</ele>
        <time>2021-06-13T13:13:50Z</time>
      </trkpt>
      <trkpt lat="45.43531" lon="4.1922">
        <ele>675.94</ele>
        <time>2021-06-13T13:14:05Z</time>
      </trkpt>
      <trkpt lat="45.43525" lon="4.19198">
        <ele>675.46</ele>
        <time>2021-06-13T13:14:26Z</time>
      </trkpt>
      <trkpt lat="45.43524" lon="4.19184">
        <ele>674.5</ele>
        <time>2021-06-13T13:14:45Z</time>
      </trkpt>
      <trkpt lat="45.43528" lon="4.19151">
        <ele>669.22</ele>
        <time>2021-06-13T13:14:59Z</time>
      </trkpt>
      <trkpt lat="45.43534" lon="4.19114">
        <ele>668.25</ele>
        <time>2021-06-13T13:15:16Z</time>
      </trkpt>
      <trkpt lat="45.43544" lon="4.19081">
        <ele>665.85</ele>
        <time>2021-06-13T13:15:29Z</time>
      </trkpt>
      <trkpt lat="45.43547" lon="4.19048">
        <ele>664.41</ele>
        <time>2021-06-13T13:15:45Z</time>
      </trkpt>
      <trkpt lat="45.4354" lon="4.19029">
        <ele>667.29</ele>
        <time>2021-06-13T13:16:00Z</time>
      </trkpt>
      <trkpt lat="45.43531" lon="4.19021">
        <ele>665.37</ele>
        <time>2021-06-13T13:16:19Z</time>
      </trkpt>
      <trkpt lat="45.43528" lon="4.19005">
        <ele>660.56</ele>
        <time>2021-06-13T13:16:47Z</time>
      </trkpt>
      <trkpt lat="45.43506" lon="4.19006">
        <ele>664.41</ele>
        <time>2021-06-13T13:17:03Z</time>
      </trkpt>
      <trkpt lat="45.43491" lon="4.18989">
        <ele>662.97</ele>
        <time>2021-06-13T13:17:19Z</time>
      </trkpt>
      <trkpt lat="45.43493" lon="4.18964">
        <ele>659.6</ele>
        <time>2021-06-13T13:17:26Z</time>
      </trkpt>
      <trkpt lat="45.43487" lon="4.18936">
        <ele>657.2</ele>
        <time>2021-06-13T13:17:41Z</time>
      </trkpt>
      <trkpt lat="45.43477" lon="4.18935">
        <ele>654.8</ele>
        <time>2021-06-13T13:17:48Z</time>
      </trkpt>
      <trkpt lat="45.43464" lon="4.18935">
        <ele>650.95</ele>
        <time>2021-06-13T13:17:58Z</time>
      </trkpt>
      <trkpt lat="45.43438" lon="4.18914">
        <ele>646.14</ele>
        <time>2021-06-13T13:18:15Z</time>
      </trkpt>
      <trkpt lat="45.43435" lon="4.18901">
        <ele>644.22</ele>
        <time>2021-06-13T13:18:20Z</time>
      </trkpt>
      <trkpt lat="45.43437" lon="4.18893">
        <ele>644.22</ele>
        <time>2021-06-13T13:18:29Z</time>
      </trkpt>
      <trkpt lat="45.43444" lon="4.18889">
        <ele>644.22</ele>
        <time>2021-06-13T13:18:34Z</time>
      </trkpt>
      <trkpt lat="45.43453" lon="4.18887">
        <ele>646.14</ele>
        <time>2021-06-13T13:18:44Z</time>
      </trkpt>
      <trkpt lat="45.43453" lon="4.18871">
        <ele>650.47</ele>
        <time>2021-06-13T13:18:59Z</time>
      </trkpt>
      <trkpt lat="45.43449" lon="4.18862">
        <ele>654.31</ele>
        <time>2021-06-13T13:19:21Z</time>
      </trkpt>
      <trkpt lat="45.43451" lon="4.18837">
        <ele>657.68</ele>
        <time>2021-06-13T13:19:36Z</time>
      </trkpt>
      <trkpt lat="45.43456" lon="4.18813">
        <ele>660.56</ele>
        <time>2021-06-13T13:19:51Z</time>
      </trkpt>
      <trkpt lat="45.43465" lon="4.18798">
        <ele>663.93</ele>
        <time>2021-06-13T13:20:11Z</time>
      </trkpt>
      <trkpt lat="45.43483" lon="4.18804">
        <ele>670.18</ele>
        <time>2021-06-13T13:20:28Z</time>
      </trkpt>
      <trkpt lat="45.43517" lon="4.18816">
        <ele>674.5</ele>
        <time>2021-06-13T13:20:50Z</time>
      </trkpt>
      <trkpt lat="45.43539" lon="4.18813">
        <ele>678.83</ele>
        <time>2021-06-13T13:21:05Z</time>
      </trkpt>
      <trkpt lat="45.43565" lon="4.1879">
        <ele>681.23</ele>
        <time>2021-06-13T13:21:25Z</time>
      </trkpt>
      <trkpt lat="45.43592" lon="4.18771">
        <ele>678.35</ele>
        <time>2021-06-13T13:21:42Z</time>
      </trkpt>
      <trkpt lat="45.43621" lon="4.18739">
        <ele>677.39</ele>
        <time>2021-06-13T13:21:58Z</time>
      </trkpt>
      <trkpt lat="45.43648" lon="4.18711">
        <ele>678.83</ele>
        <time>2021-06-13T13:22:18Z</time>
      </trkpt>
      <trkpt lat="45.4367" lon="4.18689">
        <ele>680.27</ele>
        <time>2021-06-13T13:22:29Z</time>
      </trkpt>
      <trkpt lat="45.43686" lon="4.18669">
        <ele>682.67</ele>
        <time>2021-06-13T13:22:46Z</time>
      </trkpt>
      <trkpt lat="45.43711" lon="4.18645">
        <ele>683.63</ele>
        <time>2021-06-13T13:23:06Z</time>
      </trkpt>
      <trkpt lat="45.43727" lon="4.18624">
        <ele>684.6</ele>
        <time>2021-06-13T13:23:20Z</time>
      </trkpt>
      <trkpt lat="45.43747" lon="4.18597">
        <ele>685.56</ele>
        <time>2021-06-13T13:23:38Z</time>
      </trkpt>
      <trkpt lat="45.43772" lon="4.18579">
        <ele>681.71</ele>
        <time>2021-06-13T13:23:57Z</time>
      </trkpt>
      <trkpt lat="45.43788" lon="4.18568">
        <ele>680.27</ele>
        <time>2021-06-13T13:24:10Z</time>
      </trkpt>
      <trkpt lat="45.43805" lon="4.18561">
        <ele>676.42</ele>
        <time>2021-06-13T13:24:26Z</time>
      </trkpt>
      <trkpt lat="45.43826" lon="4.18551">
        <ele>673.54</ele>
        <time>2021-06-13T13:24:42Z</time>
      </trkpt>
      <trkpt lat="45.43848" lon="4.1854">
        <ele>671.14</ele>
        <time>2021-06-13T13:24:59Z</time>
      </trkpt>
      <trkpt lat="45.43874" lon="4.18529">
        <ele>667.29</ele>
        <time>2021-06-13T13:25:17Z</time>
      </trkpt>
      <trkpt lat="45.43899" lon="4.18513">
        <ele>663.93</ele>
        <time>2021-06-13T13:25:35Z</time>
      </trkpt>
      <trkpt lat="45.43918" lon="4.18485">
        <ele>661.04</ele>
        <time>2021-06-13T13:25:48Z</time>
      </trkpt>
      <trkpt lat="45.43939" lon="4.18463">
        <ele>659.6</ele>
        <time>2021-06-13T13:26:04Z</time>
      </trkpt>
      <trkpt lat="45.43968" lon="4.18446">
        <ele>660.56</ele>
        <time>2021-06-13T13:26:23Z</time>
      </trkpt>
      <trkpt lat="45.43995" lon="4.18423">
        <ele>661.52</ele>
        <time>2021-06-13T13:26:44Z</time>
      </trkpt>
      <trkpt lat="45.44023" lon="4.18413">
        <ele>664.89</ele>
        <time>2021-06-13T13:27:04Z</time>
      </trkpt>
      <trkpt lat="45.44048" lon="4.18405">
        <ele>667.29</ele>
        <time>2021-06-13T13:27:21Z</time>
      </trkpt>
      <trkpt lat="45.44068" lon="4.18404">
        <ele>668.25</ele>
        <time>2021-06-13T13:27:40Z</time>
      </trkpt>
      <trkpt lat="45.44072" lon="4.18403">
        <ele>667.77</ele>
        <time>2021-06-13T13:27:43Z</time>
      </trkpt>
      <trkpt lat="45.44073" lon="4.18402">
        <ele>667.29</ele>
        <time>2021-06-13T13:27:44Z</time>
      </trkpt>
      <trkpt lat="45.44074" lon="4.184">
        <ele>667.29</ele>
        <time>2021-06-13T13:27:45Z</time>
      </trkpt>
      <trkpt lat="45.44091" lon="4.18396">
        <ele>663.93</ele>
        <time>2021-06-13T13:27:59Z</time>
      </trkpt>
      <trkpt lat="45.4412" lon="4.18404">
        <ele>661.52</ele>
        <time>2021-06-13T13:28:20Z</time>
      </trkpt>
      <trkpt lat="45.44156" lon="4.18417">
        <ele>663.93</ele>
        <time>2021-06-13T13:28:44Z</time>
      </trkpt>
      <trkpt lat="45.44189" lon="4.18426">
        <ele>664.89</ele>
        <time>2021-06-13T13:29:06Z</time>
      </trkpt>
      <trkpt lat="45.44223" lon="4.18436">
        <ele>664.41</ele>
        <time>2021-06-13T13:29:28Z</time>
      </trkpt>
      <trkpt lat="45.44255" lon="4.18446">
        <ele>662.49</ele>
        <time>2021-06-13T13:29:48Z</time>
      </trkpt>
      <trkpt lat="45.4428" lon="4.18455">
        <ele>662.97</ele>
        <time>2021-06-13T13:30:05Z</time>
      </trkpt>
      <trkpt lat="45.44315" lon="4.18465">
        <ele>662.97</ele>
        <time>2021-06-13T13:30:29Z</time>
      </trkpt>
      <trkpt lat="45.44348" lon="4.18482">
        <ele>664.41</ele>
        <time>2021-06-13T13:30:47Z</time>
      </trkpt>
      <trkpt lat="45.44375" lon="4.18498">
        <ele>664.41</ele>
        <time>2021-06-13T13:31:05Z</time>
      </trkpt>
      <trkpt lat="45.44406" lon="4.18518">
        <ele>664.89</ele>
        <time>2021-06-13T13:31:28Z</time>
      </trkpt>
      <trkpt lat="45.44437" lon="4.18532">
        <ele>663.45</ele>
        <time>2021-06-13T13:31:50Z</time>
      </trkpt>
      <trkpt lat="45.44464" lon="4.18531">
        <ele>660.08</ele>
        <time>2021-06-13T13:32:09Z</time>
      </trkpt>
      <trkpt lat="45.44475" lon="4.18528">
        <ele>660.08</ele>
        <time>2021-06-13T13:32:18Z</time>
      </trkpt>
      <trkpt lat="45.44501" lon="4.18508">
        <ele>660.56</ele>
        <time>2021-06-13T13:32:36Z</time>
      </trkpt>
      <trkpt lat="45.44524" lon="4.18498">
        <ele>660.08</ele>
        <time>2021-06-13T13:32:53Z</time>
      </trkpt>
      <trkpt lat="45.44551" lon="4.18487">
        <ele>658.64</ele>
        <time>2021-06-13T13:33:10Z</time>
      </trkpt>
      <trkpt lat="45.44575" lon="4.18479">
        <ele>655.76</ele>
        <time>2021-06-13T13:33:28Z</time>
      </trkpt>
      <trkpt lat="45.44601" lon="4.18468">
        <ele>650.95</ele>
        <time>2021-06-13T13:33:44Z</time>
      </trkpt>
      <trkpt lat="45.44628" lon="4.18465">
        <ele>645.66</ele>
        <time>2021-06-13T13:33:58Z</time>
      </trkpt>
      <trkpt lat="45.44659" lon="4.18458">
        <ele>642.78</ele>
        <time>2021-06-13T13:34:16Z</time>
      </trkpt>
      <trkpt lat="45.44694" lon="4.18446">
        <ele>639.41</ele>
        <time>2021-06-13T13:34:37Z</time>
      </trkpt>
      <trkpt lat="45.44721" lon="4.18438">
        <ele>634.61</ele>
        <time>2021-06-13T13:34:52Z</time>
      </trkpt>
      <trkpt lat="45.44754" lon="4.18429">
        <ele>633.17</ele>
        <time>2021-06-13T13:35:12Z</time>
      </trkpt>
      <trkpt lat="45.44793" lon="4.18419">
        <ele>633.17</ele>
        <time>2021-06-13T13:35:35Z</time>
      </trkpt>
      <trkpt lat="45.44825" lon="4.184">
        <ele>633.17</ele>
        <time>2021-06-13T13:35:58Z</time>
      </trkpt>
      <trkpt lat="45.44848" lon="4.18399">
        <ele>633.17</ele>
        <time>2021-06-13T13:36:12Z</time>
      </trkpt>
      <trkpt lat="45.44884" lon="4.18401">
        <ele>635.09</ele>
        <time>2021-06-13T13:36:35Z</time>
      </trkpt>
      <trkpt lat="45.44903" lon="4.18386">
        <ele>636.53</ele>
        <time>2021-06-13T13:36:50Z</time>
      </trkpt>
      <trkpt lat="45.4493" lon="4.18367">
        <ele>639.89</ele>
        <time>2021-06-13T13:37:10Z</time>
      </trkpt>
      <trkpt lat="45.44936" lon="4.18368">
        <ele>640.38</ele>
        <time>2021-06-13T13:37:13Z</time>
      </trkpt>
      <trkpt lat="45.44938" lon="4.18368">
        <ele>640.38</ele>
        <time>2021-06-13T13:37:14Z</time>
      </trkpt>
      <trkpt lat="45.44969" lon="4.18369">
        <ele>645.66</ele>
        <time>2021-06-13T13:37:34Z</time>
      </trkpt>
      <trkpt lat="45.44992" lon="4.1837">
        <ele>644.7</ele>
        <time>2021-06-13T13:37:48Z</time>
      </trkpt>
      <trkpt lat="45.44994" lon="4.1837">
        <ele>644.7</ele>
        <time>2021-06-13T13:37:49Z</time>
      </trkpt>
      <trkpt lat="45.4503" lon="4.18374">
        <ele>639.89</ele>
        <time>2021-06-13T13:38:05Z</time>
      </trkpt>
      <trkpt lat="45.45058" lon="4.18385">
        <ele>636.05</ele>
        <time>2021-06-13T13:38:22Z</time>
      </trkpt>
      <trkpt lat="45.45083" lon="4.1839">
        <ele>635.09</ele>
        <time>2021-06-13T13:38:39Z</time>
      </trkpt>
      <trkpt lat="45.45114" lon="4.18389">
        <ele>632.68</ele>
        <time>2021-06-13T13:38:59Z</time>
      </trkpt>
      <trkpt lat="45.45128" lon="4.18385">
        <ele>634.13</ele>
        <time>2021-06-13T13:39:10Z</time>
      </trkpt>
      <trkpt lat="45.4513" lon="4.18383">
        <ele>634.61</ele>
        <time>2021-06-13T13:39:11Z</time>
      </trkpt>
      <trkpt lat="45.45135" lon="4.18378">
        <ele>634.13</ele>
        <time>2021-06-13T13:39:15Z</time>
      </trkpt>
      <trkpt lat="45.45152" lon="4.18352">
        <ele>632.68</ele>
        <time>2021-06-13T13:39:31Z</time>
      </trkpt>
      <trkpt lat="45.45159" lon="4.18337">
        <ele>631.24</ele>
        <time>2021-06-13T13:39:39Z</time>
      </trkpt>
      <trkpt lat="45.4516" lon="4.18336">
        <ele>631.24</ele>
        <time>2021-06-13T13:39:40Z</time>
      </trkpt>
      <trkpt lat="45.45161" lon="4.18334">
        <ele>630.76</ele>
        <time>2021-06-13T13:39:41Z</time>
      </trkpt>
      <trkpt lat="45.45162" lon="4.18332">
        <ele>630.76</ele>
        <time>2021-06-13T13:39:42Z</time>
      </trkpt>
      <trkpt lat="45.45163" lon="4.1833">
        <ele>630.28</ele>
        <time>2021-06-13T13:39:43Z</time>
      </trkpt>
      <trkpt lat="45.45183" lon="4.18302">
        <ele>627.88</ele>
        <time>2021-06-13T13:40:01Z</time>
      </trkpt>
      <trkpt lat="45.45194" lon="4.1828">
        <ele>626.44</ele>
        <time>2021-06-13T13:40:19Z</time>
      </trkpt>
      <trkpt lat="45.45199" lon="4.18252">
        <ele>621.15</ele>
        <time>2021-06-13T13:40:36Z</time>
      </trkpt>
      <trkpt lat="45.45186" lon="4.18225">
        <ele>612.5</ele>
        <time>2021-06-13T13:40:54Z</time>
      </trkpt>
      <trkpt lat="45.45157" lon="4.18202">
        <ele>607.69</ele>
        <time>2021-06-13T13:41:15Z</time>
      </trkpt>
      <trkpt lat="45.45177" lon="4.18188">
        <ele>606.73</ele>
        <time>2021-06-13T13:41:31Z</time>
      </trkpt>
      <trkpt lat="45.45197" lon="4.18182">
        <ele>609.61</ele>
        <time>2021-06-13T13:41:48Z</time>
      </trkpt>
      <trkpt lat="45.45202" lon="4.18183">
        <ele>609.61</ele>
        <time>2021-06-13T13:41:51Z</time>
      </trkpt>
      <trkpt lat="45.45226" lon="4.18186">
        <ele>608.65</ele>
        <time>2021-06-13T13:42:10Z</time>
      </trkpt>
      <trkpt lat="45.45254" lon="4.18196">
        <ele>610.09</ele>
        <time>2021-06-13T13:42:29Z</time>
      </trkpt>
      <trkpt lat="45.4528" lon="4.18212">
        <ele>605.29</ele>
        <time>2021-06-13T13:42:47Z</time>
      </trkpt>
      <trkpt lat="45.45306" lon="4.18223">
        <ele>602.4</ele>
        <time>2021-06-13T13:43:05Z</time>
      </trkpt>
      <trkpt lat="45.45331" lon="4.18224">
        <ele>597.12</ele>
        <time>2021-06-13T13:43:23Z</time>
      </trkpt>
      <trkpt lat="45.45331" lon="4.18216">
        <ele>596.15</ele>
        <time>2021-06-13T13:43:28Z</time>
      </trkpt>
      <trkpt lat="45.45328" lon="4.18208">
        <ele>593.75</ele>
        <time>2021-06-13T13:43:46Z</time>
      </trkpt>
      <trkpt lat="45.45325" lon="4.18201">
        <ele>591.83</ele>
        <time>2021-06-13T13:44:08Z</time>
      </trkpt>
      <trkpt lat="45.45313" lon="4.18174">
        <ele>585.1</ele>
        <time>2021-06-13T13:44:25Z</time>
      </trkpt>
      <trkpt lat="45.45298" lon="4.18162">
        <ele>582.22</ele>
        <time>2021-06-13T13:44:42Z</time>
      </trkpt>
      <trkpt lat="45.45272" lon="4.18127">
        <ele>580.77</ele>
        <time>2021-06-13T13:44:59Z</time>
      </trkpt>
      <trkpt lat="45.45274" lon="4.1812">
        <ele>579.81</ele>
        <time>2021-06-13T13:45:04Z</time>
      </trkpt>
      <trkpt lat="45.45295" lon="4.18126">
        <ele>577.41</ele>
        <time>2021-06-13T13:45:22Z</time>
      </trkpt>
      <trkpt lat="45.45314" lon="4.1813">
        <ele>575.01</ele>
        <time>2021-06-13T13:45:35Z</time>
      </trkpt>
      <trkpt lat="45.45333" lon="4.18151">
        <ele>570.68</ele>
        <time>2021-06-13T13:45:53Z</time>
      </trkpt>
      <trkpt lat="45.45353" lon="4.18156">
        <ele>568.76</ele>
        <time>2021-06-13T13:46:10Z</time>
      </trkpt>
      <trkpt lat="45.45369" lon="4.18156">
        <ele>568.76</ele>
        <time>2021-06-13T13:46:26Z</time>
      </trkpt>
      <trkpt lat="45.45378" lon="4.18144">
        <ele>565.39</ele>
        <time>2021-06-13T13:46:39Z</time>
      </trkpt>
      <trkpt lat="45.45376" lon="4.18124">
        <ele>559.62</ele>
        <time>2021-06-13T13:46:55Z</time>
      </trkpt>
      <trkpt lat="45.45379" lon="4.18122">
        <ele>559.14</ele>
        <time>2021-06-13T13:46:57Z</time>
      </trkpt>
      <trkpt lat="45.45402" lon="4.18131">
        <ele>557.22</ele>
        <time>2021-06-13T13:47:14Z</time>
      </trkpt>
      <trkpt lat="45.45401" lon="4.18124">
        <ele>557.7</ele>
        <time>2021-06-13T13:47:26Z</time>
      </trkpt>
      <trkpt lat="45.45411" lon="4.18115">
        <ele>556.74</ele>
        <time>2021-06-13T13:47:39Z</time>
      </trkpt>
      <trkpt lat="45.45439" lon="4.18144">
        <ele>547.61</ele>
        <time>2021-06-13T13:47:56Z</time>
      </trkpt>
      <trkpt lat="45.45448" lon="4.18151">
        <ele>547.13</ele>
        <time>2021-06-13T13:48:03Z</time>
      </trkpt>
      <trkpt lat="45.45466" lon="4.18164">
        <ele>548.57</ele>
        <time>2021-06-13T13:48:18Z</time>
      </trkpt>
      <trkpt lat="45.45497" lon="4.18193">
        <ele>545.2</ele>
        <time>2021-06-13T13:48:37Z</time>
      </trkpt>
      <trkpt lat="45.45528" lon="4.18223">
        <ele>540.4</ele>
        <time>2021-06-13T13:48:56Z</time>
      </trkpt>
      <trkpt lat="45.45542" lon="4.18246">
        <ele>540.4</ele>
        <time>2021-06-13T13:49:12Z</time>
      </trkpt>
      <trkpt lat="45.45552" lon="4.18283">
        <ele>537.51</ele>
        <time>2021-06-13T13:49:31Z</time>
      </trkpt>
      <trkpt lat="45.45559" lon="4.18297">
        <ele>537.51</ele>
        <time>2021-06-13T13:49:47Z</time>
      </trkpt>
      <trkpt lat="45.45574" lon="4.18311">
        <ele>536.07</ele>
        <time>2021-06-13T13:50:06Z</time>
      </trkpt>
      <trkpt lat="45.45577" lon="4.18309">
        <ele>536.07</ele>
        <time>2021-06-13T13:50:09Z</time>
      </trkpt>
      <trkpt lat="45.45589" lon="4.18297">
        <ele>533.19</ele>
        <time>2021-06-13T13:50:27Z</time>
      </trkpt>
      <trkpt lat="45.45604" lon="4.18292">
        <ele>529.34</ele>
        <time>2021-06-13T13:50:43Z</time>
      </trkpt>
      <trkpt lat="45.45623" lon="4.1828">
        <ele>525.98</ele>
        <time>2021-06-13T13:50:59Z</time>
      </trkpt>
      <trkpt lat="45.45644" lon="4.1827">
        <ele>523.58</ele>
        <time>2021-06-13T13:51:16Z</time>
      </trkpt>
      <trkpt lat="45.45647" lon="4.1826">
        <ele>521.65</ele>
        <time>2021-06-13T13:51:26Z</time>
      </trkpt>
      <trkpt lat="45.45647" lon="4.18255">
        <ele>520.69</ele>
        <time>2021-06-13T13:51:29Z</time>
      </trkpt>
      <trkpt lat="45.45631" lon="4.18241">
        <ele>516.37</ele>
        <time>2021-06-13T13:51:47Z</time>
      </trkpt>
      <trkpt lat="45.45633" lon="4.18221">
        <ele>514.92</ele>
        <time>2021-06-13T13:52:00Z</time>
      </trkpt>
      <trkpt lat="45.45653" lon="4.18225">
        <ele>510.6</ele>
        <time>2021-06-13T13:52:11Z</time>
      </trkpt>
      <trkpt lat="45.45673" lon="4.18239">
        <ele>509.16</ele>
        <time>2021-06-13T13:52:27Z</time>
      </trkpt>
      <trkpt lat="45.45687" lon="4.18247">
        <ele>509.64</ele>
        <time>2021-06-13T13:53:02Z</time>
      </trkpt>
      <trkpt lat="45.4569" lon="4.18245">
        <ele>506.75</ele>
        <time>2021-06-13T13:53:31Z</time>
      </trkpt>
      <trkpt lat="45.45687" lon="4.18251">
        <ele>504.83</ele>
        <time>2021-06-13T13:53:57Z</time>
      </trkpt>
      <trkpt lat="45.45686" lon="4.18241">
        <ele>510.12</ele>
        <time>2021-06-13T13:54:20Z</time>
      </trkpt>
      <trkpt lat="45.45686" lon="4.18241">
        <ele>511.56</ele>
        <time>2021-06-13T13:54:42Z</time>
      </trkpt>
      <trkpt lat="45.45676" lon="4.18243">
        <ele>516.85</ele>
        <time>2021-06-13T13:55:12Z</time>
      </trkpt>
      <trkpt lat="45.45678" lon="4.18241">
        <ele>517.81</ele>
        <time>2021-06-13T13:55:45Z</time>
      </trkpt>
      <trkpt lat="45.45682" lon="4.18243">
        <ele>516.37</ele>
        <time>2021-06-13T13:56:17Z</time>
      </trkpt>
      <trkpt lat="45.45703" lon="4.18248">
        <ele>510.6</ele>
        <time>2021-06-13T13:56:39Z</time>
      </trkpt>
      <trkpt lat="45.45714" lon="4.18226">
        <ele>508.67</ele>
        <time>2021-06-13T13:56:59Z</time>
      </trkpt>
      <trkpt lat="45.45718" lon="4.18212">
        <ele>509.16</ele>
        <time>2021-06-13T13:57:07Z</time>
      </trkpt>
      <trkpt lat="45.45727" lon="4.18183">
        <ele>510.12</ele>
        <time>2021-06-13T13:57:29Z</time>
      </trkpt>
      <trkpt lat="45.45722" lon="4.18151">
        <ele>511.56</ele>
        <time>2021-06-13T13:57:49Z</time>
      </trkpt>
      <trkpt lat="45.45703" lon="4.18116">
        <ele>513.48</ele>
        <time>2021-06-13T13:58:10Z</time>
      </trkpt>
      <trkpt lat="45.45695" lon="4.18078">
        <ele>513.48</ele>
        <time>2021-06-13T13:58:24Z</time>
      </trkpt>
      <trkpt lat="45.45694" lon="4.18028">
        <ele>513.96</ele>
        <time>2021-06-13T13:58:46Z</time>
      </trkpt>
      <trkpt lat="45.45695" lon="4.18021">
        <ele>513.48</ele>
        <time>2021-06-13T13:58:50Z</time>
      </trkpt>
      <trkpt lat="45.45703" lon="4.17966">
        <ele>513.96</ele>
        <time>2021-06-13T13:59:12Z</time>
      </trkpt>
      <trkpt lat="45.45708" lon="4.17926">
        <ele>514.92</ele>
        <time>2021-06-13T13:59:29Z</time>
      </trkpt>
      <trkpt lat="45.45699" lon="4.17883">
        <ele>513.48</ele>
        <time>2021-06-13T13:59:50Z</time>
      </trkpt>
      <trkpt lat="45.45681" lon="4.17851">
        <ele>511.08</ele>
        <time>2021-06-13T14:00:11Z</time>
      </trkpt>
      <trkpt lat="45.45663" lon="4.17828">
        <ele>508.19</ele>
        <time>2021-06-13T14:00:29Z</time>
      </trkpt>
      <trkpt lat="45.45634" lon="4.17805">
        <ele>508.67</ele>
        <time>2021-06-13T14:00:50Z</time>
      </trkpt>
      <trkpt lat="45.45618" lon="4.17789">
        <ele>507.23</ele>
        <time>2021-06-13T14:01:06Z</time>
      </trkpt>
      <trkpt lat="45.45594" lon="4.17771">
        <ele>502.43</ele>
        <time>2021-06-13T14:01:24Z</time>
      </trkpt>
      <trkpt lat="45.45567" lon="4.17757">
        <ele>507.23</ele>
        <time>2021-06-13T14:01:41Z</time>
      </trkpt>
      <trkpt lat="45.45536" lon="4.17735">
        <ele>505.79</ele>
        <time>2021-06-13T14:02:00Z</time>
      </trkpt>
      <trkpt lat="45.45511" lon="4.17719">
        <ele>505.31</ele>
        <time>2021-06-13T14:02:15Z</time>
      </trkpt>
      <trkpt lat="45.45509" lon="4.17715">
        <ele>505.31</ele>
        <time>2021-06-13T14:02:17Z</time>
      </trkpt>
      <trkpt lat="45.45509" lon="4.17712">
        <ele>504.83</ele>
        <time>2021-06-13T14:02:18Z</time>
      </trkpt>
      <trkpt lat="45.4551" lon="4.1771">
        <ele>505.31</ele>
        <time>2021-06-13T14:02:19Z</time>
      </trkpt>
      <trkpt lat="45.45511" lon="4.17708">
        <ele>504.83</ele>
        <time>2021-06-13T14:02:20Z</time>
      </trkpt>
      <trkpt lat="45.45512" lon="4.17707">
        <ele>504.83</ele>
        <time>2021-06-13T14:02:21Z</time>
      </trkpt>
      <trkpt lat="45.45513" lon="4.17706">
        <ele>504.83</ele>
        <time>2021-06-13T14:02:22Z</time>
      </trkpt>
      <trkpt lat="45.45515" lon="4.17705">
        <ele>504.83</ele>
        <time>2021-06-13T14:02:23Z</time>
      </trkpt>
      <trkpt lat="45.45535" lon="4.17697">
        <ele>504.83</ele>
        <time>2021-06-13T14:02:37Z</time>
      </trkpt>
      <trkpt lat="45.45562" lon="4.17698">
        <ele>500.02</ele>
        <time>2021-06-13T14:02:51Z</time>
      </trkpt>
      <trkpt lat="45.45586" lon="4.17694">
        <ele>496.66</ele>
        <time>2021-06-13T14:03:07Z</time>
      </trkpt>
      <trkpt lat="45.45613" lon="4.17689">
        <ele>496.18</ele>
        <time>2021-06-13T14:03:25Z</time>
      </trkpt>
      <trkpt lat="45.45635" lon="4.17687">
        <ele>492.33</ele>
        <time>2021-06-13T14:03:44Z</time>
      </trkpt>
      <trkpt lat="45.45653" lon="4.17681">
        <ele>492.81</ele>
        <time>2021-06-13T14:04:02Z</time>
      </trkpt>
      <trkpt lat="45.45677" lon="4.17671">
        <ele>496.66</ele>
        <time>2021-06-13T14:04:22Z</time>
      </trkpt>
      <trkpt lat="45.45704" lon="4.17676">
        <ele>492.81</ele>
        <time>2021-06-13T14:04:39Z</time>
      </trkpt>
      <trkpt lat="45.45734" lon="4.17683">
        <ele>483.2</ele>
        <time>2021-06-13T14:04:57Z</time>
      </trkpt>
      <trkpt lat="45.4574" lon="4.17682">
        <ele>482.72</ele>
        <time>2021-06-13T14:05:01Z</time>
      </trkpt>
      <trkpt lat="45.45741" lon="4.17681">
        <ele>482.72</ele>
        <time>2021-06-13T14:05:02Z</time>
      </trkpt>
      <trkpt lat="45.45764" lon="4.17667">
        <ele>484.64</ele>
        <time>2021-06-13T14:05:20Z</time>
      </trkpt>
      <trkpt lat="45.45792" lon="4.17664">
        <ele>483.2</ele>
        <time>2021-06-13T14:05:37Z</time>
      </trkpt>
      <trkpt lat="45.45817" lon="4.17667">
        <ele>482.72</ele>
        <time>2021-06-13T14:05:51Z</time>
      </trkpt>
      <trkpt lat="45.4585" lon="4.17679">
        <ele>483.68</ele>
        <time>2021-06-13T14:06:12Z</time>
      </trkpt>
      <trkpt lat="45.4588" lon="4.17704">
        <ele>487.53</ele>
        <time>2021-06-13T14:06:31Z</time>
      </trkpt>
      <trkpt lat="45.45904" lon="4.1771">
        <ele>491.85</ele>
        <time>2021-06-13T14:06:50Z</time>
      </trkpt>
      <trkpt lat="45.45918" lon="4.17676">
        <ele>495.22</ele>
        <time>2021-06-13T14:07:08Z</time>
      </trkpt>
      <trkpt lat="45.45933" lon="4.17639">
        <ele>498.58</ele>
        <time>2021-06-13T14:07:28Z</time>
      </trkpt>
      <trkpt lat="45.45949" lon="4.1761">
        <ele>501.95</ele>
        <time>2021-06-13T14:07:45Z</time>
      </trkpt>
      <trkpt lat="45.45976" lon="4.17594">
        <ele>503.87</ele>
        <time>2021-06-13T14:08:05Z</time>
      </trkpt>
      <trkpt lat="45.46003" lon="4.1757">
        <ele>507.23</ele>
        <time>2021-06-13T14:08:26Z</time>
      </trkpt>
      <trkpt lat="45.46023" lon="4.17541">
        <ele>513.48</ele>
        <time>2021-06-13T14:08:46Z</time>
      </trkpt>
      <trkpt lat="45.46039" lon="4.17518">
        <ele>515.88</ele>
        <time>2021-06-13T14:09:02Z</time>
      </trkpt>
      <trkpt lat="45.46062" lon="4.17502">
        <ele>523.09</ele>
        <time>2021-06-13T14:09:19Z</time>
      </trkpt>
      <trkpt lat="45.4609" lon="4.17491">
        <ele>526.94</ele>
        <time>2021-06-13T14:09:38Z</time>
      </trkpt>
      <trkpt lat="45.46115" lon="4.17473">
        <ele>529.34</ele>
        <time>2021-06-13T14:09:56Z</time>
      </trkpt>
      <trkpt lat="45.46145" lon="4.1744">
        <ele>532.23</ele>
        <time>2021-06-13T14:10:19Z</time>
      </trkpt>
      <trkpt lat="45.46167" lon="4.17439">
        <ele>524.06</ele>
        <time>2021-06-13T14:10:32Z</time>
      </trkpt>
      <trkpt lat="45.46169" lon="4.17439">
        <ele>523.09</ele>
        <time>2021-06-13T14:10:33Z</time>
      </trkpt>
      <trkpt lat="45.46172" lon="4.1744">
        <ele>522.13</ele>
        <time>2021-06-13T14:10:34Z</time>
      </trkpt>
      <trkpt lat="45.46179" lon="4.17441">
        <ele>519.25</ele>
        <time>2021-06-13T14:10:40Z</time>
      </trkpt>
      <trkpt lat="45.46182" lon="4.17442">
        <ele>518.77</ele>
        <time>2021-06-13T14:10:42Z</time>
      </trkpt>
      <trkpt lat="45.46184" lon="4.17443">
        <ele>518.29</ele>
        <time>2021-06-13T14:10:43Z</time>
      </trkpt>
      <trkpt lat="45.46205" lon="4.17452">
        <ele>513.96</ele>
        <time>2021-06-13T14:10:58Z</time>
      </trkpt>
      <trkpt lat="45.46232" lon="4.17461">
        <ele>508.19</ele>
        <time>2021-06-13T14:11:16Z</time>
      </trkpt>
      <trkpt lat="45.46257" lon="4.1747">
        <ele>504.35</ele>
        <time>2021-06-13T14:11:32Z</time>
      </trkpt>
      <trkpt lat="45.46281" lon="4.17479">
        <ele>500.5</ele>
        <time>2021-06-13T14:11:48Z</time>
      </trkpt>
      <trkpt lat="45.46303" lon="4.17481">
        <ele>496.18</ele>
        <time>2021-06-13T14:12:03Z</time>
      </trkpt>
      <trkpt lat="45.4633" lon="4.17491">
        <ele>492.81</ele>
        <time>2021-06-13T14:12:22Z</time>
      </trkpt>
      <trkpt lat="45.46354" lon="4.17501">
        <ele>490.89</ele>
        <time>2021-06-13T14:12:40Z</time>
      </trkpt>
      <trkpt lat="45.46379" lon="4.17506">
        <ele>488.49</ele>
        <time>2021-06-13T14:12:56Z</time>
      </trkpt>
      <trkpt lat="45.46408" lon="4.17515">
        <ele>484.64</ele>
        <time>2021-06-13T14:13:15Z</time>
      </trkpt>
      <trkpt lat="45.46421" lon="4.17517">
        <ele>482.24</ele>
        <time>2021-06-13T14:13:22Z</time>
      </trkpt>
      <trkpt lat="45.46423" lon="4.17516">
        <ele>482.24</ele>
        <time>2021-06-13T14:13:23Z</time>
      </trkpt>
      <trkpt lat="45.46425" lon="4.17516">
        <ele>481.76</ele>
        <time>2021-06-13T14:13:24Z</time>
      </trkpt>
      <trkpt lat="45.4645" lon="4.17497">
        <ele>480.32</ele>
        <time>2021-06-13T14:13:44Z</time>
      </trkpt>
      <trkpt lat="45.46456" lon="4.17479">
        <ele>477.91</ele>
        <time>2021-06-13T14:13:56Z</time>
      </trkpt>
      <trkpt lat="45.46456" lon="4.17477">
        <ele>477.43</ele>
        <time>2021-06-13T14:13:57Z</time>
      </trkpt>
      <trkpt lat="45.46456" lon="4.17475">
        <ele>477.43</ele>
        <time>2021-06-13T14:13:58Z</time>
      </trkpt>
      <trkpt lat="45.46456" lon="4.17473">
        <ele>477.43</ele>
        <time>2021-06-13T14:13:59Z</time>
      </trkpt>
      <trkpt lat="45.46456" lon="4.17471">
        <ele>477.43</ele>
        <time>2021-06-13T14:14:00Z</time>
      </trkpt>
      <trkpt lat="45.46464" lon="4.17445">
        <ele>472.14</ele>
        <time>2021-06-13T14:14:15Z</time>
      </trkpt>
      <trkpt lat="45.46479" lon="4.17414">
        <ele>466.38</ele>
        <time>2021-06-13T14:14:30Z</time>
      </trkpt>
      <trkpt lat="45.465" lon="4.17398">
        <ele>462.05</ele>
        <time>2021-06-13T14:14:49Z</time>
      </trkpt>
      <trkpt lat="45.46526" lon="4.17409">
        <ele>458.69</ele>
        <time>2021-06-13T14:15:07Z</time>
      </trkpt>
      <trkpt lat="45.46532" lon="4.17411">
        <ele>458.21</ele>
        <time>2021-06-13T14:15:10Z</time>
      </trkpt>
      <trkpt lat="45.46534" lon="4.17413">
        <ele>458.21</ele>
        <time>2021-06-13T14:15:11Z</time>
      </trkpt>
      <trkpt lat="45.46553" lon="4.17436">
        <ele>457.24</ele>
        <time>2021-06-13T14:15:29Z</time>
      </trkpt>
      <trkpt lat="45.46551" lon="4.17449">
        <ele>458.21</ele>
        <time>2021-06-13T14:15:35Z</time>
      </trkpt>
      <trkpt lat="45.4654" lon="4.17493">
        <ele>456.76</ele>
        <time>2021-06-13T14:15:54Z</time>
      </trkpt>
      <trkpt lat="45.46533" lon="4.17525">
        <ele>454.36</ele>
        <time>2021-06-13T14:16:11Z</time>
      </trkpt>
      <trkpt lat="45.46528" lon="4.17532">
        <ele>454.84</ele>
        <time>2021-06-13T14:16:28Z</time>
      </trkpt>
      <trkpt lat="45.46524" lon="4.17527">
        <ele>453.4</ele>
        <time>2021-06-13T14:16:54Z</time>
      </trkpt>
      <trkpt lat="45.46522" lon="4.17541">
        <ele>462.53</ele>
        <time>2021-06-13T14:17:16Z</time>
      </trkpt>
      <trkpt lat="45.46502" lon="4.17529">
        <ele>467.82</ele>
        <time>2021-06-13T14:17:44Z</time>
      </trkpt>
      <trkpt lat="45.46503" lon="4.17532">
        <ele>472.63</ele>
        <time>2021-06-13T14:18:09Z</time>
      </trkpt>
      <trkpt lat="45.46506" lon="4.17539">
        <ele>473.59</ele>
        <time>2021-06-13T14:18:31Z</time>
      </trkpt>
      <trkpt lat="45.46507" lon="4.17542">
        <ele>472.63</ele>
        <time>2021-06-13T14:18:53Z</time>
      </trkpt>
      <trkpt lat="45.46502" lon="4.17537">
        <ele>479.84</ele>
        <time>2021-06-13T14:19:19Z</time>
      </trkpt>
      <trkpt lat="45.46491" lon="4.17541">
        <ele>482.24</ele>
        <time>2021-06-13T14:19:46Z</time>
      </trkpt>
      <trkpt lat="45.46498" lon="4.17539">
        <ele>477.91</ele>
        <time>2021-06-13T14:20:15Z</time>
      </trkpt>
      <trkpt lat="45.46505" lon="4.17547">
        <ele>475.03</ele>
        <time>2021-06-13T14:20:35Z</time>
      </trkpt>
      <trkpt lat="45.46513" lon="4.17581">
        <ele>473.11</ele>
        <time>2021-06-13T14:20:54Z</time>
      </trkpt>
      <trkpt lat="45.46516" lon="4.17595">
        <ele>468.78</ele>
        <time>2021-06-13T14:21:04Z</time>
      </trkpt>
      <trkpt lat="45.46518" lon="4.17613">
        <ele>467.82</ele>
        <time>2021-06-13T14:21:19Z</time>
      </trkpt>
      <trkpt lat="45.46523" lon="4.17643">
        <ele>469.26</ele>
        <time>2021-06-13T14:21:36Z</time>
      </trkpt>
      <trkpt lat="45.46506" lon="4.17672">
        <ele>467.82</ele>
        <time>2021-06-13T14:21:54Z</time>
      </trkpt>
      <trkpt lat="45.46495" lon="4.17696">
        <ele>467.82</ele>
        <time>2021-06-13T14:22:08Z</time>
      </trkpt>
      <trkpt lat="45.46493" lon="4.17711">
        <ele>467.34</ele>
        <time>2021-06-13T14:22:15Z</time>
      </trkpt>
      <trkpt lat="45.46494" lon="4.17713">
        <ele>467.34</ele>
        <time>2021-06-13T14:22:16Z</time>
      </trkpt>
      <trkpt lat="45.46495" lon="4.17715">
        <ele>466.86</ele>
        <time>2021-06-13T14:22:17Z</time>
      </trkpt>
      <trkpt lat="45.46514" lon="4.17727">
        <ele>465.42</ele>
        <time>2021-06-13T14:22:34Z</time>
      </trkpt>
      <trkpt lat="45.46542" lon="4.17746">
        <ele>464.45</ele>
        <time>2021-06-13T14:22:54Z</time>
      </trkpt>
      <trkpt lat="45.46565" lon="4.17764">
        <ele>465.9</ele>
        <time>2021-06-13T14:23:13Z</time>
      </trkpt>
      <trkpt lat="45.46586" lon="4.17768">
        <ele>471.18</ele>
        <time>2021-06-13T14:23:29Z</time>
      </trkpt>
      <trkpt lat="45.4661" lon="4.17775">
        <ele>473.11</ele>
        <time>2021-06-13T14:23:45Z</time>
      </trkpt>
      <trkpt lat="45.46634" lon="4.17778">
        <ele>470.7</ele>
        <time>2021-06-13T14:24:00Z</time>
      </trkpt>
      <trkpt lat="45.4666" lon="4.17774">
        <ele>472.63</ele>
        <time>2021-06-13T14:24:16Z</time>
      </trkpt>
      <trkpt lat="45.46688" lon="4.17767">
        <ele>475.99</ele>
        <time>2021-06-13T14:24:34Z</time>
      </trkpt>
      <trkpt lat="45.46719" lon="4.17763">
        <ele>477.43</ele>
        <time>2021-06-13T14:24:54Z</time>
      </trkpt>
      <trkpt lat="45.46743" lon="4.17771">
        <ele>478.87</ele>
        <time>2021-06-13T14:25:11Z</time>
      </trkpt>
      <trkpt lat="45.46775" lon="4.17768">
        <ele>480.8</ele>
        <time>2021-06-13T14:25:30Z</time>
      </trkpt>
      <trkpt lat="45.46805" lon="4.17758">
        <ele>483.2</ele>
        <time>2021-06-13T14:25:48Z</time>
      </trkpt>
      <trkpt lat="45.46835" lon="4.17744">
        <ele>488.01</ele>
        <time>2021-06-13T14:26:07Z</time>
      </trkpt>
      <trkpt lat="45.46869" lon="4.17732">
        <ele>491.85</ele>
        <time>2021-06-13T14:26:29Z</time>
      </trkpt>
      <trkpt lat="45.46897" lon="4.17716">
        <ele>493.77</ele>
        <time>2021-06-13T14:26:49Z</time>
      </trkpt>
      <trkpt lat="45.46933" lon="4.17722">
        <ele>497.62</ele>
        <time>2021-06-13T14:27:12Z</time>
      </trkpt>
      <trkpt lat="45.46969" lon="4.17713">
        <ele>498.58</ele>
        <time>2021-06-13T14:27:37Z</time>
      </trkpt>
      <trkpt lat="45.46997" lon="4.17709">
        <ele>500.02</ele>
        <time>2021-06-13T14:27:55Z</time>
      </trkpt>
      <trkpt lat="45.47009" lon="4.17689">
        <ele>500.98</ele>
        <time>2021-06-13T14:28:09Z</time>
      </trkpt>
      <trkpt lat="45.4701" lon="4.17651">
        <ele>502.43</ele>
        <time>2021-06-13T14:28:27Z</time>
      </trkpt>
      <trkpt lat="45.47006" lon="4.17617">
        <ele>501.46</ele>
        <time>2021-06-13T14:28:44Z</time>
      </trkpt>
      <trkpt lat="45.46999" lon="4.1758">
        <ele>500.02</ele>
        <time>2021-06-13T14:29:01Z</time>
      </trkpt>
      <trkpt lat="45.47" lon="4.17541">
        <ele>499.54</ele>
        <time>2021-06-13T14:29:15Z</time>
      </trkpt>
      <trkpt lat="45.47005" lon="4.17502">
        <ele>500.02</ele>
        <time>2021-06-13T14:29:33Z</time>
      </trkpt>
      <trkpt lat="45.47016" lon="4.17466">
        <ele>499.06</ele>
        <time>2021-06-13T14:29:51Z</time>
      </trkpt>
      <trkpt lat="45.47014" lon="4.17426">
        <ele>502.43</ele>
        <time>2021-06-13T14:30:09Z</time>
      </trkpt>
      <trkpt lat="45.47006" lon="4.17383">
        <ele>506.27</ele>
        <time>2021-06-13T14:30:29Z</time>
      </trkpt>
      <trkpt lat="45.47001" lon="4.17341">
        <ele>510.12</ele>
        <time>2021-06-13T14:30:48Z</time>
      </trkpt>
      <trkpt lat="45.47001" lon="4.173">
        <ele>510.12</ele>
        <time>2021-06-13T14:31:07Z</time>
      </trkpt>
      <trkpt lat="45.47011" lon="4.17262">
        <ele>510.12</ele>
        <time>2021-06-13T14:31:26Z</time>
      </trkpt>
      <trkpt lat="45.47025" lon="4.17237">
        <ele>509.16</ele>
        <time>2021-06-13T14:31:41Z</time>
      </trkpt>
      <trkpt lat="45.47038" lon="4.17213">
        <ele>510.6</ele>
        <time>2021-06-13T14:31:55Z</time>
      </trkpt>
      <trkpt lat="45.4705" lon="4.17186">
        <ele>509.64</ele>
        <time>2021-06-13T14:32:09Z</time>
      </trkpt>
      <trkpt lat="45.47059" lon="4.17151">
        <ele>506.27</ele>
        <time>2021-06-13T14:32:25Z</time>
      </trkpt>
      <trkpt lat="45.4707" lon="4.17127">
        <ele>497.62</ele>
        <time>2021-06-13T14:32:40Z</time>
      </trkpt>
      <trkpt lat="45.47069" lon="4.17098">
        <ele>497.14</ele>
        <time>2021-06-13T14:32:56Z</time>
      </trkpt>
      <trkpt lat="45.47067" lon="4.17069">
        <ele>498.1</ele>
        <time>2021-06-13T14:33:09Z</time>
      </trkpt>
      <trkpt lat="45.4707" lon="4.17029">
        <ele>499.54</ele>
        <time>2021-06-13T14:33:26Z</time>
      </trkpt>
      <trkpt lat="45.47071" lon="4.16996">
        <ele>500.5</ele>
        <time>2021-06-13T14:33:42Z</time>
      </trkpt>
      <trkpt lat="45.47074" lon="4.16965">
        <ele>500.98</ele>
        <time>2021-06-13T14:33:57Z</time>
      </trkpt>
      <trkpt lat="45.47082" lon="4.16932">
        <ele>502.43</ele>
        <time>2021-06-13T14:34:14Z</time>
      </trkpt>
      <trkpt lat="45.47093" lon="4.16894">
        <ele>502.91</ele>
        <time>2021-06-13T14:34:34Z</time>
      </trkpt>
      <trkpt lat="45.47104" lon="4.16867">
        <ele>503.87</ele>
        <time>2021-06-13T14:34:48Z</time>
      </trkpt>
      <trkpt lat="45.47105" lon="4.16864">
        <ele>504.83</ele>
        <time>2021-06-13T14:34:49Z</time>
      </trkpt>
      <trkpt lat="45.47115" lon="4.16824">
        <ele>510.6</ele>
        <time>2021-06-13T14:35:09Z</time>
      </trkpt>
      <trkpt lat="45.4711" lon="4.16795">
        <ele>515.88</ele>
        <time>2021-06-13T14:35:22Z</time>
      </trkpt>
      <trkpt lat="45.47102" lon="4.16759">
        <ele>518.77</ele>
        <time>2021-06-13T14:35:42Z</time>
      </trkpt>
      <trkpt lat="45.47079" lon="4.16751">
        <ele>526.46</ele>
        <time>2021-06-13T14:36:01Z</time>
      </trkpt>
      <trkpt lat="45.47071" lon="4.16751">
        <ele>528.38</ele>
        <time>2021-06-13T14:36:05Z</time>
      </trkpt>
      <trkpt lat="45.47049" lon="4.16746">
        <ele>535.59</ele>
        <time>2021-06-13T14:36:18Z</time>
      </trkpt>
      <trkpt lat="45.47046" lon="4.16745">
        <ele>536.07</ele>
        <time>2021-06-13T14:36:19Z</time>
      </trkpt>
      <trkpt lat="45.47044" lon="4.16744">
        <ele>536.55</ele>
        <time>2021-06-13T14:36:20Z</time>
      </trkpt>
      <trkpt lat="45.47042" lon="4.16743">
        <ele>537.03</ele>
        <time>2021-06-13T14:36:21Z</time>
      </trkpt>
      <trkpt lat="45.47039" lon="4.16743">
        <ele>537.51</ele>
        <time>2021-06-13T14:36:22Z</time>
      </trkpt>
      <trkpt lat="45.47023" lon="4.16721">
        <ele>541.84</ele>
        <time>2021-06-13T14:36:39Z</time>
      </trkpt>
      <trkpt lat="45.47012" lon="4.16682">
        <ele>544.24</ele>
        <time>2021-06-13T14:36:57Z</time>
      </trkpt>
      <trkpt lat="45.46993" lon="4.16646">
        <ele>544.72</ele>
        <time>2021-06-13T14:37:14Z</time>
      </trkpt>
      <trkpt lat="45.46991" lon="4.16644">
        <ele>545.2</ele>
        <time>2021-06-13T14:37:15Z</time>
      </trkpt>
      <trkpt lat="45.46984" lon="4.16617">
        <ele>545.2</ele>
        <time>2021-06-13T14:37:28Z</time>
      </trkpt>
      <trkpt lat="45.46984" lon="4.16614">
        <ele>545.2</ele>
        <time>2021-06-13T14:37:29Z</time>
      </trkpt>
      <trkpt lat="45.46983" lon="4.16612">
        <ele>545.2</ele>
        <time>2021-06-13T14:37:30Z</time>
      </trkpt>
      <trkpt lat="45.4697" lon="4.16573">
        <ele>545.69</ele>
        <time>2021-06-13T14:37:47Z</time>
      </trkpt>
      <trkpt lat="45.46964" lon="4.16536">
        <ele>550.49</ele>
        <time>2021-06-13T14:38:06Z</time>
      </trkpt>
      <trkpt lat="45.4696" lon="4.16521">
        <ele>550.01</ele>
        <time>2021-06-13T14:38:13Z</time>
      </trkpt>
      <trkpt lat="45.4696" lon="4.16519">
        <ele>550.01</ele>
        <time>2021-06-13T14:38:14Z</time>
      </trkpt>
      <trkpt lat="45.46959" lon="4.16516">
        <ele>550.01</ele>
        <time>2021-06-13T14:38:15Z</time>
      </trkpt>
      <trkpt lat="45.46957" lon="4.16472">
        <ele>547.61</ele>
        <time>2021-06-13T14:38:35Z</time>
      </trkpt>
      <trkpt lat="45.46945" lon="4.16438">
        <ele>542.8</ele>
        <time>2021-06-13T14:38:49Z</time>
      </trkpt>
      <trkpt lat="45.46927" lon="4.16408">
        <ele>542.8</ele>
        <time>2021-06-13T14:39:04Z</time>
      </trkpt>
      <trkpt lat="45.46911" lon="4.16372">
        <ele>547.13</ele>
        <time>2021-06-13T14:39:21Z</time>
      </trkpt>
      <trkpt lat="45.46896" lon="4.16334">
        <ele>550.97</ele>
        <time>2021-06-13T14:39:38Z</time>
      </trkpt>
      <trkpt lat="45.46888" lon="4.16295">
        <ele>551.93</ele>
        <time>2021-06-13T14:39:55Z</time>
      </trkpt>
      <trkpt lat="45.46878" lon="4.16256">
        <ele>553.86</ele>
        <time>2021-06-13T14:40:13Z</time>
      </trkpt>
      <trkpt lat="45.46872" lon="4.16238">
        <ele>553.86</ele>
        <time>2021-06-13T14:40:23Z</time>
      </trkpt>
      <trkpt lat="45.46873" lon="4.16237">
        <ele>553.86</ele>
        <time>2021-06-13T14:40:24Z</time>
      </trkpt>
      <trkpt lat="45.46874" lon="4.16236">
        <ele>553.38</ele>
        <time>2021-06-13T14:40:25Z</time>
      </trkpt>
      <trkpt lat="45.46876" lon="4.16235">
        <ele>553.38</ele>
        <time>2021-06-13T14:40:26Z</time>
      </trkpt>
      <trkpt lat="45.46879" lon="4.16235">
        <ele>553.38</ele>
        <time>2021-06-13T14:40:27Z</time>
      </trkpt>
      <trkpt lat="45.46903" lon="4.1622">
        <ele>549.53</ele>
        <time>2021-06-13T14:40:43Z</time>
      </trkpt>
      <trkpt lat="45.46927" lon="4.16196">
        <ele>548.09</ele>
        <time>2021-06-13T14:41:02Z</time>
      </trkpt>
      <trkpt lat="45.46941" lon="4.16164">
        <ele>546.17</ele>
        <time>2021-06-13T14:41:17Z</time>
      </trkpt>
      <trkpt lat="45.46937" lon="4.16121">
        <ele>547.61</ele>
        <time>2021-06-13T14:41:33Z</time>
      </trkpt>
      <trkpt lat="45.46935" lon="4.16075">
        <ele>551.93</ele>
        <time>2021-06-13T14:41:51Z</time>
      </trkpt>
      <trkpt lat="45.46933" lon="4.16067">
        <ele>552.9</ele>
        <time>2021-06-13T14:41:56Z</time>
      </trkpt>
      <trkpt lat="45.46932" lon="4.16067">
        <ele>552.9</ele>
        <time>2021-06-13T14:41:57Z</time>
      </trkpt>
      <trkpt lat="45.4693" lon="4.16067">
        <ele>552.9</ele>
        <time>2021-06-13T14:41:58Z</time>
      </trkpt>
      <trkpt lat="45.46894" lon="4.16067">
        <ele>556.74</ele>
        <time>2021-06-13T14:42:18Z</time>
      </trkpt>
      <trkpt lat="45.46863" lon="4.16062">
        <ele>560.59</ele>
        <time>2021-06-13T14:42:37Z</time>
      </trkpt>
      <trkpt lat="45.46837" lon="4.16056">
        <ele>562.99</ele>
        <time>2021-06-13T14:42:51Z</time>
      </trkpt>
      <trkpt lat="45.46809" lon="4.16041">
        <ele>564.91</ele>
        <time>2021-06-13T14:43:07Z</time>
      </trkpt>
      <trkpt lat="45.46779" lon="4.16022">
        <ele>569.24</ele>
        <time>2021-06-13T14:43:26Z</time>
      </trkpt>
      <trkpt lat="45.46748" lon="4.15997">
        <ele>572.6</ele>
        <time>2021-06-13T14:43:47Z</time>
      </trkpt>
      <trkpt lat="45.46723" lon="4.15976">
        <ele>575.49</ele>
        <time>2021-06-13T14:44:05Z</time>
      </trkpt>
      <trkpt lat="45.46703" lon="4.15949">
        <ele>576.93</ele>
        <time>2021-06-13T14:44:19Z</time>
      </trkpt>
      <trkpt lat="45.46685" lon="4.15919">
        <ele>578.85</ele>
        <time>2021-06-13T14:44:33Z</time>
      </trkpt>
      <trkpt lat="45.46665" lon="4.15889">
        <ele>582.22</ele>
        <time>2021-06-13T14:44:46Z</time>
      </trkpt>
      <trkpt lat="45.46656" lon="4.15864">
        <ele>584.62</ele>
        <time>2021-06-13T14:45:00Z</time>
      </trkpt>
      <trkpt lat="45.46644" lon="4.1582">
        <ele>585.1</ele>
        <time>2021-06-13T14:45:19Z</time>
      </trkpt>
      <trkpt lat="45.46626" lon="4.15783">
        <ele>583.66</ele>
        <time>2021-06-13T14:45:37Z</time>
      </trkpt>
      <trkpt lat="45.46599" lon="4.1576">
        <ele>583.66</ele>
        <time>2021-06-13T14:45:56Z</time>
      </trkpt>
      <trkpt lat="45.46572" lon="4.15734">
        <ele>584.62</ele>
        <time>2021-06-13T14:46:13Z</time>
      </trkpt>
      <trkpt lat="45.46545" lon="4.15707">
        <ele>584.62</ele>
        <time>2021-06-13T14:46:31Z</time>
      </trkpt>
      <trkpt lat="45.46519" lon="4.1568">
        <ele>585.58</ele>
        <time>2021-06-13T14:46:51Z</time>
      </trkpt>
      <trkpt lat="45.46488" lon="4.15669">
        <ele>588.46</ele>
        <time>2021-06-13T14:47:10Z</time>
      </trkpt>
      <trkpt lat="45.46454" lon="4.15663">
        <ele>591.35</ele>
        <time>2021-06-13T14:47:35Z</time>
      </trkpt>
      <trkpt lat="45.46417" lon="4.15655">
        <ele>592.79</ele>
        <time>2021-06-13T14:47:58Z</time>
      </trkpt>
      <trkpt lat="45.46387" lon="4.15638">
        <ele>591.83</ele>
        <time>2021-06-13T14:48:19Z</time>
      </trkpt>
      <trkpt lat="45.46358" lon="4.1562">
        <ele>591.83</ele>
        <time>2021-06-13T14:48:39Z</time>
      </trkpt>
      <trkpt lat="45.46336" lon="4.15606">
        <ele>592.79</ele>
        <time>2021-06-13T14:48:54Z</time>
      </trkpt>
      <trkpt lat="45.46305" lon="4.15583">
        <ele>594.71</ele>
        <time>2021-06-13T14:49:16Z</time>
      </trkpt>
      <trkpt lat="45.46285" lon="4.15571">
        <ele>596.15</ele>
        <time>2021-06-13T14:49:31Z</time>
      </trkpt>
      <trkpt lat="45.46253" lon="4.15552">
        <ele>598.08</ele>
        <time>2021-06-13T14:49:54Z</time>
      </trkpt>
      <trkpt lat="45.46229" lon="4.15532">
        <ele>596.64</ele>
        <time>2021-06-13T14:50:12Z</time>
      </trkpt>
      <trkpt lat="45.46217" lon="4.15523">
        <ele>596.64</ele>
        <time>2021-06-13T14:50:28Z</time>
      </trkpt>
      <trkpt lat="45.46218" lon="4.15523">
        <ele>596.64</ele>
        <time>2021-06-13T14:50:38Z</time>
      </trkpt>
      <trkpt lat="45.46218" lon="4.15525">
        <ele>591.83</ele>
        <time>2021-06-13T14:50:49Z</time>
      </trkpt>
      <trkpt lat="45.46214" lon="4.15524">
        <ele>589.91</ele>
        <time>2021-06-13T14:51:05Z</time>
      </trkpt>
      <trkpt lat="45.46213" lon="4.15523">
        <ele>589.91</ele>
        <time>2021-06-13T14:51:06Z</time>
      </trkpt>
      <trkpt lat="45.46202" lon="4.15499">
        <ele>591.35</ele>
        <time>2021-06-13T14:51:21Z</time>
      </trkpt>
      <trkpt lat="45.46192" lon="4.15474">
        <ele>592.79</ele>
        <time>2021-06-13T14:51:37Z</time>
      </trkpt>
      <trkpt lat="45.4619" lon="4.15464">
        <ele>592.31</ele>
        <time>2021-06-13T14:51:43Z</time>
      </trkpt>
      <trkpt lat="45.46179" lon="4.15441">
        <ele>594.23</ele>
        <time>2021-06-13T14:51:57Z</time>
      </trkpt>
      <trkpt lat="45.46169" lon="4.15425">
        <ele>592.31</ele>
        <time>2021-06-13T14:52:09Z</time>
      </trkpt>
      <trkpt lat="45.46168" lon="4.15424">
        <ele>592.31</ele>
        <time>2021-06-13T14:52:10Z</time>
      </trkpt>
      <trkpt lat="45.46149" lon="4.15398">
        <ele>596.15</ele>
        <time>2021-06-13T14:52:28Z</time>
      </trkpt>
      <trkpt lat="45.46147" lon="4.15396">
        <ele>596.15</ele>
        <time>2021-06-13T14:52:30Z</time>
      </trkpt>
      <trkpt lat="45.46129" lon="4.1538">
        <ele>594.23</ele>
        <time>2021-06-13T14:52:46Z</time>
      </trkpt>
      <trkpt lat="45.4611" lon="4.15363">
        <ele>594.23</ele>
        <time>2021-06-13T14:53:03Z</time>
      </trkpt>
      <trkpt lat="45.46089" lon="4.15348">
        <ele>591.35</ele>
        <time>2021-06-13T14:53:21Z</time>
      </trkpt>
      <trkpt lat="45.46066" lon="4.15331">
        <ele>590.87</ele>
        <time>2021-06-13T14:53:40Z</time>
      </trkpt>
      <trkpt lat="45.46049" lon="4.15315">
        <ele>591.83</ele>
        <time>2021-06-13T14:53:56Z</time>
      </trkpt>
      <trkpt lat="45.46048" lon="4.1531">
        <ele>592.31</ele>
        <time>2021-06-13T14:53:59Z</time>
      </trkpt>
      <trkpt lat="45.46043" lon="4.15286">
        <ele>593.75</ele>
        <time>2021-06-13T14:54:13Z</time>
      </trkpt>
      <trkpt lat="45.46037" lon="4.1525">
        <ele>596.15</ele>
        <time>2021-06-13T14:54:32Z</time>
      </trkpt>
      <trkpt lat="45.4603" lon="4.15231">
        <ele>594.71</ele>
        <time>2021-06-13T14:54:44Z</time>
      </trkpt>
      <trkpt lat="45.4601" lon="4.15232">
        <ele>593.27</ele>
        <time>2021-06-13T14:55:02Z</time>
      </trkpt>
      <trkpt lat="45.46006" lon="4.1524">
        <ele>596.15</ele>
        <time>2021-06-13T14:55:18Z</time>
      </trkpt>
      <trkpt lat="45.46007" lon="4.15239">
        <ele>596.64</ele>
        <time>2021-06-13T14:55:38Z</time>
      </trkpt>
      <trkpt lat="45.46007" lon="4.15241">
        <ele>598.56</ele>
        <time>2021-06-13T14:56:02Z</time>
      </trkpt>
      <trkpt lat="45.46009" lon="4.15237">
        <ele>597.6</ele>
        <time>2021-06-13T14:56:22Z</time>
      </trkpt>
      <trkpt lat="45.46007" lon="4.15237">
        <ele>596.64</ele>
        <time>2021-06-13T14:56:43Z</time>
      </trkpt>
      <trkpt lat="45.46009" lon="4.15235">
        <ele>598.56</ele>
        <time>2021-06-13T14:56:58Z</time>
      </trkpt>
      <trkpt lat="45.46007" lon="4.15236">
        <ele>599.04</ele>
        <time>2021-06-13T14:57:27Z</time>
      </trkpt>
      <trkpt lat="45.46005" lon="4.1524">
        <ele>599.52</ele>
        <time>2021-06-13T14:57:43Z</time>
      </trkpt>
      <trkpt lat="45.46006" lon="4.15239">
        <ele>598.08</ele>
        <time>2021-06-13T14:57:59Z</time>
      </trkpt>
      <trkpt lat="45.46008" lon="4.15236">
        <ele>597.12</ele>
        <time>2021-06-13T14:58:13Z</time>
      </trkpt>
      <trkpt lat="45.46006" lon="4.15237">
        <ele>594.71</ele>
        <time>2021-06-13T14:58:24Z</time>
      </trkpt>
      <trkpt lat="45.46006" lon="4.15236">
        <ele>593.75</ele>
        <time>2021-06-13T14:58:50Z</time>
      </trkpt>
      <trkpt lat="45.46005" lon="4.15236">
        <ele>596.15</ele>
        <time>2021-06-13T14:59:11Z</time>
      </trkpt>
      <trkpt lat="45.46007" lon="4.15237">
        <ele>597.12</ele>
        <time>2021-06-13T14:59:43Z</time>
      </trkpt>
      <trkpt lat="45.46006" lon="4.15236">
        <ele>595.19</ele>
        <time>2021-06-13T15:00:15Z</time>
      </trkpt>
      <trkpt lat="45.46006" lon="4.15235">
        <ele>594.71</ele>
        <time>2021-06-13T15:00:31Z</time>
      </trkpt>
      <trkpt lat="45.46009" lon="4.1523">
        <ele>593.27</ele>
        <time>2021-06-13T15:00:50Z</time>
      </trkpt>
      <trkpt lat="45.46007" lon="4.1523">
        <ele>593.75</ele>
        <time>2021-06-13T15:01:25Z</time>
      </trkpt>
      <trkpt lat="45.46007" lon="4.15224">
        <ele>594.23</ele>
        <time>2021-06-13T15:02:00Z</time>
      </trkpt>
      <trkpt lat="45.46006" lon="4.15235">
        <ele>595.19</ele>
        <time>2021-06-13T15:02:16Z</time>
      </trkpt>
      <trkpt lat="45.46006" lon="4.15239">
        <ele>596.15</ele>
        <time>2021-06-13T15:02:37Z</time>
      </trkpt>
      <trkpt lat="45.46006" lon="4.15239">
        <ele>595.19</ele>
        <time>2021-06-13T15:02:57Z</time>
      </trkpt>
      <trkpt lat="45.46006" lon="4.15239">
        <ele>598.08</ele>
        <time>2021-06-13T15:03:19Z</time>
      </trkpt>
      <trkpt lat="45.46007" lon="4.15237">
        <ele>598.56</ele>
        <time>2021-06-13T15:03:37Z</time>
      </trkpt>
      <trkpt lat="45.46007" lon="4.15241">
        <ele>597.6</ele>
        <time>2021-06-13T15:03:49Z</time>
      </trkpt>
      <trkpt lat="45.46007" lon="4.15238">
        <ele>598.08</ele>
        <time>2021-06-13T15:04:05Z</time>
      </trkpt>
      <trkpt lat="45.46008" lon="4.15238">
        <ele>599.04</ele>
        <time>2021-06-13T15:04:18Z</time>
      </trkpt>
      <trkpt lat="45.46007" lon="4.15237">
        <ele>598.56</ele>
        <time>2021-06-13T15:04:33Z</time>
      </trkpt>
      <trkpt lat="45.46005" lon="4.15238">
        <ele>599.04</ele>
        <time>2021-06-13T15:04:46Z</time>
      </trkpt>
      <trkpt lat="45.46008" lon="4.15236">
        <ele>599.52</ele>
        <time>2021-06-13T15:05:06Z</time>
      </trkpt>
      <trkpt lat="45.46007" lon="4.15233">
        <ele>597.6</ele>
        <time>2021-06-13T15:05:21Z</time>
      </trkpt>
      <trkpt lat="45.46006" lon="4.15239">
        <ele>597.12</ele>
        <time>2021-06-13T15:05:39Z</time>
      </trkpt>
      <trkpt lat="45.46007" lon="4.1524">
        <ele>599.04</ele>
        <time>2021-06-13T15:05:58Z</time>
      </trkpt>
      <trkpt lat="45.46004" lon="4.15242">
        <ele>598.08</ele>
        <time>2021-06-13T15:06:09Z</time>
      </trkpt>
      <trkpt lat="45.46002" lon="4.15243">
        <ele>598.56</ele>
        <time>2021-06-13T15:06:23Z</time>
      </trkpt>
      <trkpt lat="45.46002" lon="4.15241">
        <ele>599.04</ele>
        <time>2021-06-13T15:06:41Z</time>
      </trkpt>
      <trkpt lat="45.46001" lon="4.15239">
        <ele>598.56</ele>
        <time>2021-06-13T15:06:51Z</time>
      </trkpt>
      <trkpt lat="45.46008" lon="4.15227">
        <ele>597.12</ele>
        <time>2021-06-13T15:07:05Z</time>
      </trkpt>
      <trkpt lat="45.46008" lon="4.15228">
        <ele>595.67</ele>
        <time>2021-06-13T15:07:17Z</time>
      </trkpt>
      <trkpt lat="45.46007" lon="4.1523">
        <ele>595.67</ele>
        <time>2021-06-13T15:07:31Z</time>
      </trkpt>
      <trkpt lat="45.46009" lon="4.1523">
        <ele>596.64</ele>
        <time>2021-06-13T15:07:44Z</time>
      </trkpt>
      <trkpt lat="45.4601" lon="4.15228">
        <ele>596.64</ele>
        <time>2021-06-13T15:07:45Z</time>
      </trkpt>
      <trkpt lat="45.4601" lon="4.15226">
        <ele>596.64</ele>
        <time>2021-06-13T15:07:46Z</time>
      </trkpt>
      <trkpt lat="45.46012" lon="4.15221">
        <ele>596.15</ele>
        <time>2021-06-13T15:07:50Z</time>
      </trkpt>
      <trkpt lat="45.4601" lon="4.15229">
        <ele>595.19</ele>
        <time>2021-06-13T15:08:00Z</time>
      </trkpt>
      <trkpt lat="45.46008" lon="4.15234">
        <ele>595.67</ele>
        <time>2021-06-13T15:08:14Z</time>
      </trkpt>
      <trkpt lat="45.46005" lon="4.15227">
        <ele>594.23</ele>
        <time>2021-06-13T15:08:27Z</time>
      </trkpt>
      <trkpt lat="45.46013" lon="4.15218">
        <ele>595.19</ele>
        <time>2021-06-13T15:08:41Z</time>
      </trkpt>
      <trkpt lat="45.46015" lon="4.1522">
        <ele>595.67</ele>
        <time>2021-06-13T15:09:15Z</time>
      </trkpt>
      <trkpt lat="45.46015" lon="4.15221">
        <ele>595.19</ele>
        <time>2021-06-13T15:09:52Z</time>
      </trkpt>
      <trkpt lat="45.46017" lon="4.15219">
        <ele>593.75</ele>
        <time>2021-06-13T15:10:28Z</time>
      </trkpt>
      <trkpt lat="45.46017" lon="4.15221">
        <ele>595.67</ele>
        <time>2021-06-13T15:11:06Z</time>
      </trkpt>
      <trkpt lat="45.46015" lon="4.15222">
        <ele>595.19</ele>
        <time>2021-06-13T15:11:33Z</time>
      </trkpt>
      <trkpt lat="45.46014" lon="4.15226">
        <ele>595.19</ele>
        <time>2021-06-13T15:11:37Z</time>
      </trkpt>
      <trkpt lat="45.46012" lon="4.15226">
        <ele>595.19</ele>
        <time>2021-06-13T15:11:38Z</time>
      </trkpt>
      <trkpt lat="45.46008" lon="4.15233">
        <ele>595.67</ele>
        <time>2021-06-13T15:11:44Z</time>
      </trkpt>
      <trkpt lat="45.46007" lon="4.15237">
        <ele>597.12</ele>
        <time>2021-06-13T15:11:54Z</time>
      </trkpt>
      <trkpt lat="45.46006" lon="4.15238">
        <ele>597.12</ele>
        <time>2021-06-13T15:12:13Z</time>
      </trkpt>
      <trkpt lat="45.46005" lon="4.15241">
        <ele>597.12</ele>
        <time>2021-06-13T15:12:27Z</time>
      </trkpt>
      <trkpt lat="45.46003" lon="4.15243">
        <ele>598.56</ele>
        <time>2021-06-13T15:12:41Z</time>
      </trkpt>
      <trkpt lat="45.46003" lon="4.15241">
        <ele>598.08</ele>
        <time>2021-06-13T15:13:02Z</time>
      </trkpt>
      <trkpt lat="45.46005" lon="4.1524">
        <ele>596.64</ele>
        <time>2021-06-13T15:13:12Z</time>
      </trkpt>
      <trkpt lat="45.46003" lon="4.15238">
        <ele>593.75</ele>
        <time>2021-06-13T15:13:26Z</time>
      </trkpt>
      <trkpt lat="45.46009" lon="4.15232">
        <ele>594.23</ele>
        <time>2021-06-13T15:13:44Z</time>
      </trkpt>
      <trkpt lat="45.46014" lon="4.15231">
        <ele>594.23</ele>
        <time>2021-06-13T15:14:01Z</time>
      </trkpt>
      <trkpt lat="45.46007" lon="4.15238">
        <ele>594.23</ele>
        <time>2021-06-13T15:14:17Z</time>
      </trkpt>
      <trkpt lat="45.46006" lon="4.15235">
        <ele>595.67</ele>
        <time>2021-06-13T15:14:33Z</time>
      </trkpt>
      <trkpt lat="45.46006" lon="4.15239">
        <ele>596.15</ele>
        <time>2021-06-13T15:14:45Z</time>
      </trkpt>
      <trkpt lat="45.46004" lon="4.15234">
        <ele>596.64</ele>
        <time>2021-06-13T15:14:58Z</time>
      </trkpt>
      <trkpt lat="45.46003" lon="4.15232">
        <ele>593.75</ele>
        <time>2021-06-13T15:15:22Z</time>
      </trkpt>
      <trkpt lat="45.46001" lon="4.15234">
        <ele>594.71</ele>
        <time>2021-06-13T15:15:39Z</time>
      </trkpt>
      <trkpt lat="45.46002" lon="4.15231">
        <ele>597.6</ele>
        <time>2021-06-13T15:16:05Z</time>
      </trkpt>
      <trkpt lat="45.46008" lon="4.15232">
        <ele>597.6</ele>
        <time>2021-06-13T15:16:21Z</time>
      </trkpt>
      <trkpt lat="45.46005" lon="4.15233">
        <ele>595.19</ele>
        <time>2021-06-13T15:16:35Z</time>
      </trkpt>
      <trkpt lat="45.46001" lon="4.15233">
        <ele>594.23</ele>
        <time>2021-06-13T15:16:55Z</time>
      </trkpt>
      <trkpt lat="45.45999" lon="4.15229">
        <ele>595.67</ele>
        <time>2021-06-13T15:17:09Z</time>
      </trkpt>
      <trkpt lat="45.45999" lon="4.15227">
        <ele>596.15</ele>
        <time>2021-06-13T15:17:24Z</time>
      </trkpt>
      <trkpt lat="45.46003" lon="4.1523">
        <ele>596.64</ele>
        <time>2021-06-13T15:17:35Z</time>
      </trkpt>
      <trkpt lat="45.46" lon="4.15231">
        <ele>596.64</ele>
        <time>2021-06-13T15:17:46Z</time>
      </trkpt>
      <trkpt lat="45.45999" lon="4.15229">
        <ele>597.12</ele>
        <time>2021-06-13T15:18:02Z</time>
      </trkpt>
      <trkpt lat="45.46002" lon="4.15229">
        <ele>597.12</ele>
        <time>2021-06-13T15:18:30Z</time>
      </trkpt>
      <trkpt lat="45.46001" lon="4.15229">
        <ele>597.6</ele>
        <time>2021-06-13T15:18:42Z</time>
      </trkpt>
      <trkpt lat="45.46" lon="4.15228">
        <ele>597.12</ele>
        <time>2021-06-13T15:18:55Z</time>
      </trkpt>
      <trkpt lat="45.46" lon="4.15228">
        <ele>598.08</ele>
        <time>2021-06-13T15:19:12Z</time>
      </trkpt>
      <trkpt lat="45.46" lon="4.15228">
        <ele>598.56</ele>
        <time>2021-06-13T15:19:28Z</time>
      </trkpt>
      <trkpt lat="45.46001" lon="4.1523">
        <ele>599.52</ele>
        <time>2021-06-13T15:19:39Z</time>
      </trkpt>
      <trkpt lat="45.46001" lon="4.15227">
        <ele>598.56</ele>
        <time>2021-06-13T15:19:52Z</time>
      </trkpt>
      <trkpt lat="45.46001" lon="4.15228">
        <ele>599.52</ele>
        <time>2021-06-13T15:20:03Z</time>
      </trkpt>
      <trkpt lat="45.46001" lon="4.1523">
        <ele>600.96</ele>
        <time>2021-06-13T15:20:25Z</time>
      </trkpt>
      <trkpt lat="45.46001" lon="4.15229">
        <ele>599.52</ele>
        <time>2021-06-13T15:20:40Z</time>
      </trkpt>
      <trkpt lat="45.46001" lon="4.15231">
        <ele>598.56</ele>
        <time>2021-06-13T15:20:52Z</time>
      </trkpt>
      <trkpt lat="45.46001" lon="4.1523">
        <ele>597.12</ele>
        <time>2021-06-13T15:21:14Z</time>
      </trkpt>
      <trkpt lat="45.46001" lon="4.15228">
        <ele>597.6</ele>
        <time>2021-06-13T15:21:40Z</time>
      </trkpt>
      <trkpt lat="45.46001" lon="4.15229">
        <ele>598.08</ele>
        <time>2021-06-13T15:22:00Z</time>
      </trkpt>
      <trkpt lat="45.46001" lon="4.15229">
        <ele>598.56</ele>
        <time>2021-06-13T15:22:20Z</time>
      </trkpt>
      <trkpt lat="45.46" lon="4.15229">
        <ele>598.56</ele>
        <time>2021-06-13T15:22:38Z</time>
      </trkpt>
      <trkpt lat="45.45999" lon="4.15231">
        <ele>597.6</ele>
        <time>2021-06-13T15:22:56Z</time>
      </trkpt>
      <trkpt lat="45.45999" lon="4.15226">
        <ele>596.15</ele>
        <time>2021-06-13T15:23:19Z</time>
      </trkpt>
      <trkpt lat="45.46004" lon="4.15232">
        <ele>596.15</ele>
        <time>2021-06-13T15:23:30Z</time>
      </trkpt>
      <trkpt lat="45.46" lon="4.15233">
        <ele>595.19</ele>
        <time>2021-06-13T15:23:45Z</time>
      </trkpt>
      <trkpt lat="45.46" lon="4.15236">
        <ele>595.19</ele>
        <time>2021-06-13T15:24:12Z</time>
      </trkpt>
      <trkpt lat="45.46002" lon="4.15235">
        <ele>597.12</ele>
        <time>2021-06-13T15:24:29Z</time>
      </trkpt>
      <trkpt lat="45.46003" lon="4.15234">
        <ele>597.12</ele>
        <time>2021-06-13T15:24:51Z</time>
      </trkpt>
      <trkpt lat="45.46005" lon="4.15231">
        <ele>597.12</ele>
        <time>2021-06-13T15:25:01Z</time>
      </trkpt>
      <trkpt lat="45.46005" lon="4.15229">
        <ele>597.12</ele>
        <time>2021-06-13T15:25:02Z</time>
      </trkpt>
      <trkpt lat="45.46004" lon="4.15226">
        <ele>596.64</ele>
        <time>2021-06-13T15:25:03Z</time>
      </trkpt>
      <trkpt lat="45.46003" lon="4.15223">
        <ele>596.64</ele>
        <time>2021-06-13T15:25:04Z</time>
      </trkpt>
      <trkpt lat="45.46002" lon="4.15221">
        <ele>596.64</ele>
        <time>2021-06-13T15:25:05Z</time>
      </trkpt>
      <trkpt lat="45.46" lon="4.1522">
        <ele>596.64</ele>
        <time>2021-06-13T15:25:06Z</time>
      </trkpt>
      <trkpt lat="45.45998" lon="4.15219">
        <ele>596.64</ele>
        <time>2021-06-13T15:25:07Z</time>
      </trkpt>
      <trkpt lat="45.45995" lon="4.15219">
        <ele>596.64</ele>
        <time>2021-06-13T15:25:08Z</time>
      </trkpt>
      <trkpt lat="45.45989" lon="4.15214">
        <ele>596.64</ele>
        <time>2021-06-13T15:25:17Z</time>
      </trkpt>
      <trkpt lat="45.4599" lon="4.15211">
        <ele>596.64</ele>
        <time>2021-06-13T15:25:18Z</time>
      </trkpt>
      <trkpt lat="45.45991" lon="4.15207">
        <ele>596.15</ele>
        <time>2021-06-13T15:25:19Z</time>
      </trkpt>
      <trkpt lat="45.45992" lon="4.15203">
        <ele>596.15</ele>
        <time>2021-06-13T15:25:20Z</time>
      </trkpt>
      <trkpt lat="45.45994" lon="4.15199">
        <ele>596.15</ele>
        <time>2021-06-13T15:25:21Z</time>
      </trkpt>
      <trkpt lat="45.45997" lon="4.15195">
        <ele>596.15</ele>
        <time>2021-06-13T15:25:22Z</time>
      </trkpt>
      <trkpt lat="45.46019" lon="4.15165">
        <ele>596.15</ele>
        <time>2021-06-13T15:25:28Z</time>
      </trkpt>
      <trkpt lat="45.46025" lon="4.1516">
        <ele>596.15</ele>
        <time>2021-06-13T15:25:29Z</time>
      </trkpt>
      <trkpt lat="45.46037" lon="4.15152">
        <ele>595.67</ele>
        <time>2021-06-13T15:25:31Z</time>
      </trkpt>
      <trkpt lat="45.46124" lon="4.15113">
        <ele>594.71</ele>
        <time>2021-06-13T15:25:41Z</time>
      </trkpt>
      <trkpt lat="45.46135" lon="4.15112">
        <ele>594.71</ele>
        <time>2021-06-13T15:25:42Z</time>
      </trkpt>
      <trkpt lat="45.46146" lon="4.15112">
        <ele>594.71</ele>
        <time>2021-06-13T15:25:43Z</time>
      </trkpt>
      <trkpt lat="45.46181" lon="4.15113">
        <ele>593.75</ele>
        <time>2021-06-13T15:25:46Z</time>
      </trkpt>
      <trkpt lat="45.46319" lon="4.15098">
        <ele>587.98</ele>
        <time>2021-06-13T15:25:56Z</time>
      </trkpt>
      <trkpt lat="45.46416" lon="4.15112">
        <ele>583.66</ele>
        <time>2021-06-13T15:26:03Z</time>
      </trkpt>
      <trkpt lat="45.4643" lon="4.15109">
        <ele>583.18</ele>
        <time>2021-06-13T15:26:04Z</time>
      </trkpt>
      <trkpt lat="45.46445" lon="4.15105">
        <ele>582.7</ele>
        <time>2021-06-13T15:26:05Z</time>
      </trkpt>
      <trkpt lat="45.46635" lon="4.15039">
        <ele>575.49</ele>
        <time>2021-06-13T15:26:19Z</time>
      </trkpt>
      <trkpt lat="45.46648" lon="4.15039">
        <ele>574.53</ele>
        <time>2021-06-13T15:26:20Z</time>
      </trkpt>
      <trkpt lat="45.4666" lon="4.1504">
        <ele>574.53</ele>
        <time>2021-06-13T15:26:21Z</time>
      </trkpt>
      <trkpt lat="45.46672" lon="4.15041">
        <ele>574.53</ele>
        <time>2021-06-13T15:26:22Z</time>
      </trkpt>
    </trkseg>
  </trk>
</gpx>